GFSSGP_sfc_dewp_000.txt.gz
Dewpoint
49 34 34 28 25 21 16 26 35 36 37 38 41 38 43 49 49 48 55 58 62 64 66 68 72 72 72 72 72 72 72 72 71 71 70 70 69 68 68 68 68 67 67 67 67 68 68 68 68
34 33 27 27 22 17 20 30 30 35 36 34 36 36 42 45 50 51 52 59 63 64 66 69 72 72 72 72 72 72 72 71 71 70 70 69 69 68 67 67 67 66 66 66 66 66 68 68 67
43 31 23 24 19 14 23 30 36 34 33 34 34 43 44 45 48 49 54 59 64 67 69 72 72 72 72 72 72 72 72 72 71 71 70 69 68 66 66 66 66 65 65 65 66 65 64 65 66
30 23 19 16 14 21 24 34 34 33 38 37 35 42 45 48 48 49 54 56 58 66 70 71 71 71 72 72 72 72 71 71 70 70 69 68 67 66 66 65 64 63 63 63 64 64 65 66 66
30 24 17 17 22 25 31 31 32 33 34 33 32 43 48 51 48 48 50 52 54 64 68 70 70 71 71 71 71 71 70 70 69 68 68 67 66 65 64 64 63 62 62 62 61 61 62 63 64
20 21 17 15 23 27 29 29 31 34 31 29 32 41 48 51 49 48 47 48 51 58 65 66 70 70 70 70 70 69 69 69 69 68 66 66 65 64 64 63 63 62 62 61 61 60 60 61 61
24 21 17 22 24 26 30 30 23 21 26 27 32 40 46 48 51 48 46 45 52 54 55 60 64 67 68 68 68 68 68 68 67 67 66 66 65 64 63 62 61 61 60 60 59 59 59 58 60
19 17 16 25 21 22 22 21 21 21 27 26 28 35 41 49 50 48 45 45 48 54 55 58 61 61 63 65 67 67 67 67 67 66 66 66 65 64 63 63 61 60 59 59 58 58 57 57 58
14 13 19 16 16 14 13 9 12 13 25 24 33 34 45 49 50 48 45 44 47 51 57 59 58 61 63 62 64 66 67 67 66 66 65 64 64 63 61 61 62 61 60 60 59 58 57 58 59
12 14 9 6 7 7 5 7 6 10 20 21 27 39 50 50 50 47 45 43 47 54 55 60 61 61 59 53 63 64 62 64 64 63 64 63 62 61 59 62 63 63 63 62 61 60 60 60 56
11 10 7 4 7 3 4 5 3 10 13 16 23 28 47 50 49 47 43 43 47 52 54 60 64 63 61 59 59 59 60 61 64 63 62 62 61 63 62 64 63 63 63 62 61 59 58 56 55
9 7 6 5 3 1 -0 5 2 7 13 17 23 29 45 45 46 46 45 43 47 51 53 61 62 63 61 60 58 60 59 60 60 61 61 62 62 61 59 58 56 55 55 55 56 55 56 55 52
10 7 7 5 6 10 13 9 12 9 13 18 23 33 41 45 46 46 46 46 48 50 53 58 62 63 63 61 62 62 61 61 60 60 60 61 59 60 59 57 55 55 54 53 53 52 52 52 49
10 9 8 10 15 14 13 12 18 16 14 14 22 31 38 43 45 46 47 48 49 50 54 60 61 62 59 59 60 62 61 60 61 57 56 57 58 58 57 56 55 54 53 53 52 51 53 52 50
13 13 15 17 19 18 16 17 15 18 18 16 17 24 30 38 41 43 46 48 49 47 50 61 65 61 58 58 59 59 54 52 55 55 55 54 55 56 57 56 56 55 55 54 54 54 53 53 51
12 16 15 17 18 21 19 17 16 19 18 18 19 20 24 33 37 41 46 46 45 50 51 61 61 59 56 59 55 55 56 56 55 56 55 55 55 55 56 56 56 56 57 55 54 53 52 51 51
17 12 16 19 18 19 18 19 18 21 22 21 22 23 23 26 36 39 43 46 47 46 50 56 58 56 54 56 54 55 55 55 53 52 53 53 52 55 55 54 56 57 55 54 54 52 52 51 51
15 11 9 9 18 14 12 15 20 21 21 24 22 23 25 25 31 39 41 44 48 49 50 53 56 53 52 54 54 52 51 52 52 52 51 52 51 52 53 52 54 56 53 52 53 54 52 51 50
13 10 9 16 19 17 16 18 20 23 23 27 27 28 30 38 44 46 49 51 50 52 49 53 55 55 52 52 50 49 49 49 50 48 49 48 50 50 51 50 50 50 49 50 50 49 48 48 50
15 14 14 17 19 17 19 16 21 23 26 27 28 32 37 39 39 42 46 50 54 52 53 53 51 49 47 46 49 49 49 48 48 49 49 49 49 48 44 48 47 48 47 48 49 50 47 45 46
19 18 25 22 21 19 18 19 21 24 26 28 30 32 34 36 38 41 45 49 51 50 50 46 45 46 48 48 45 46 46 46 45 45 46 46 46 45 46 46 47 48 46 45 46 46 45 44 43
21 27 24 21 20 16 18 15 21 23 26 28 31 33 33 33 35 38 43 46 48 49 49 46 46 44 45 46 46 45 44 44 47 49 47 47 46 46 43 44 46 46 46 45 46 42 46 44 42
27 28 25 24 22 21 18 19 24 23 24 28 31 33 35 37 39 40 42 44 45 49 50 49 46 44 44 45 45 46 48 48 47 47 46 45 45 44 43 42 43 45 44 44 45 44 44 45 43
29 28 27 27 26 30 20 21 28 24 26 29 32 34 36 37 39 39 42 44 45 49 49 48 45 42 44 45 47 46 45 44 43 43 43 41 41 41 42 42 43 44 44 43 43 45 43 42 42
26 27 31 33 33 30 26 20 29 28 29 30 32 34 37 40 41 40 40 41 43 46 47 46 45 43 44 44 43 43 44 44 43 42 40 39 39 40 39 42 42 42 42 42 42 43 43 41 40
27 26 34 27 30 26 21 15 25 30 30 31 32 33 35 38 41 41 41 43 43 45 46 47 45 43 43 45 43 45 44 42 41 41 39 39 40 40 40 41 41 41 40 40 40 40 41 40 41
29 29 25 30 36 31 18 26 28 29 29 29 30 31 33 36 38 39 41 43 43 44 45 46 45 44 44 45 46 43 42 43 41 39 40 40 40 37 40 41 39 39 40 40 39 39 38 38 39
28 26 29 33 30 23 18 19 27 28 28 28 28 29 32 36 37 40 39 43 43 44 46 48 46 43 43 41 41 39 40 41 40 40 39 40 40 38 38 39 39 39 39 38 37 37 38 37 38
28 28 26 23 30 27 25 20 25 27 27 28 31 31 35 36 37 39 39 40 41 43 43 45 43 42 41 40 39 41 40 40 39 39 39 39 38 37 36 37 36 36 36 38 39 37 36 34 33
27 27 25 35 29 36 35 26 28 30 32 32 32 34 36 38 38 38 40 40 40 41 41 41 43 42 41 40 40 38 39 37 37 38 36 36 36 37 35 35 34 35 35 37 37 36 36 34 33

GFSSGP_sfc_dewp_003.txt.gz
Dewpoint
49 37 37 31 24 23 19 24 37 36 36 37 46 48 49 50 49 50 62 65 66 69 70 70 71 71 72 72 72 72 72 72 71 71 71 71 70 69 68 68 69 68 67 67 66 67 68 68 67
41 36 33 27 23 19 27 35 34 34 34 41 44 45 48 48 52 56 61 65 66 68 70 70 71 71 72 72 72 72 72 72 71 71 71 69 68 67 67 67 68 66 66 66 65 65 65 65 66
44 36 23 23 21 18 30 34 32 33 36 35 43 47 46 48 51 55 64 67 69 71 72 71 70 71 72 72 72 72 72 71 71 71 69 68 67 66 67 66 66 64 64 64 65 65 66 66 67
31 27 19 15 14 22 34 34 34 37 37 42 43 47 47 48 50 56 67 69 70 71 71 71 71 71 72 72 72 71 71 70 70 69 67 68 66 66 65 64 63 63 62 62 63 63 63 64 65
38 27 17 17 21 36 32 33 34 36 36 40 49 47 47 48 52 54 66 68 70 70 71 71 70 71 72 72 71 71 70 70 69 69 68 67 66 65 64 64 63 62 62 62 61 61 61 62 63
24 20 17 16 22 30 29 30 35 37 36 37 48 48 47 47 47 50 58 65 68 69 70 70 70 70 70 70 70 69 69 69 69 68 68 66 65 65 64 63 62 61 61 60 60 60 59 60 61
23 21 17 24 26 29 25 24 20 32 28 38 47 46 47 46 46 46 52 60 66 67 68 67 68 68 68 67 68 68 68 68 68 67 67 66 66 65 64 63 61 60 60 59 59 59 59 59 60
22 20 16 21 25 22 21 19 15 24 23 27 42 42 46 47 46 43 48 52 55 60 63 64 65 65 65 66 66 67 67 66 66 66 66 65 65 63 64 63 63 61 60 59 59 59 59 59 60
19 12 12 13 24 15 14 10 8 19 23 29 37 44 49 48 44 42 42 46 50 55 59 61 61 62 63 64 66 66 67 66 65 65 65 64 64 63 62 62 62 62 62 62 61 61 60 60 59
12 13 10 9 10 9 9 7 7 16 21 26 45 47 47 47 45 43 42 44 47 52 56 57 58 62 61 59 64 64 64 65 65 64 64 63 63 63 61 61 62 62 62 63 63 62 61 60 57
12 9 5 4 4 6 6 5 9 18 19 21 44 46 47 48 46 45 42 44 47 51 56 59 58 57 57 59 62 63 63 64 64 62 61 61 59 61 60 61 62 61 63 62 62 61 59 57 57
8 7 5 5 6 3 3 2 5 7 14 20 33 48 48 48 47 45 42 42 47 50 57 59 60 58 57 54 55 56 59 59 62 62 61 60 59 56 55 54 55 57 59 60 59 57 55 56 55
8 8 7 6 7 13 11 7 10 7 14 18 25 46 48 47 46 45 43 42 47 50 58 59 60 59 58 56 58 57 58 57 57 59 59 58 56 55 55 54 53 52 51 51 52 52 51 52 50
13 9 6 6 13 16 16 14 16 16 13 14 29 43 43 45 45 45 45 43 44 49 58 59 60 61 59 56 57 58 57 56 57 56 55 56 55 55 55 53 54 52 52 52 50 49 50 51 51
14 10 11 14 18 17 18 16 16 17 12 12 18 28 41 45 46 46 45 44 46 50 61 61 64 63 57 55 55 57 48 50 51 52 52 52 52 52 53 53 54 54 54 54 52 52 52 52 52
13 17 14 17 20 20 16 15 17 18 18 16 18 20 21 40 44 45 45 44 45 57 61 61 60 62 59 54 51 52 52 51 52 52 53 52 53 53 52 51 51 54 55 53 52 52 51 51 51
18 13 18 17 20 22 19 18 18 19 19 19 20 18 19 25 39 44 45 43 42 46 58 59 57 59 57 51 50 52 49 50 49 49 49 47 51 51 51 51 52 53 53 52 52 52 52 51 50
17 16 18 19 17 14 12 18 21 22 22 23 23 32 35 43 44 46 46 45 43 49 57 57 58 57 50 49 47 49 46 47 46 45 44 44 48 48 48 47 48 48 48 48 48 48 48 48 47
17 15 19 19 19 21 18 20 23 27 26 29 38 41 41 42 44 48 48 48 49 52 50 51 52 47 47 48 47 46 43 43 43 43 46 45 44 44 44 45 47 46 46 45 45 47 46 45 47
18 20 24 20 20 18 17 19 24 28 30 31 37 37 39 41 44 45 46 45 48 45 44 46 47 46 46 47 46 45 43 43 43 43 43 45 46 44 43 45 46 45 44 43 43 43 44 43 45
24 25 24 24 22 20 20 21 24 27 30 31 32 34 37 39 42 44 44 45 44 43 42 41 41 42 44 44 41 41 41 42 43 45 45 45 47 44 43 43 44 43 44 43 42 44 41 42 43
27 30 27 24 23 18 18 19 24 28 30 32 33 35 36 39 43 43 44 44 44 44 42 41 41 39 40 42 41 41 43 44 46 45 44 45 43 42 42 41 41 43 43 42 43 43 43 43 42
30 33 29 28 25 23 21 23 24 28 30 31 33 34 37 39 40 42 43 44 44 43 42 41 40 40 40 39 39 43 42 43 43 43 41 39 40 40 40 41 40 42 43 41 42 43 42 42 42
28 31 31 30 28 25 26 27 32 33 30 33 35 36 37 38 39 41 43 43 43 42 41 39 37 38 39 39 39 41 39 39 41 39 37 37 38 39 38 39 40 41 40 40 41 42 41 40 41
30 30 28 26 26 25 31 28 34 32 31 34 36 37 38 39 39 39 41 41 41 41 41 40 41 39 39 40 39 38 39 38 37 36 35 35 37 37 37 39 39 39 39 39 39 39 39 39 38
30 29 27 24 23 25 20 25 28 30 32 33 33 36 38 38 38 38 39 39 40 40 39 41 40 40 40 39 40 39 39 39 38 36 35 36 37 37 39 38 38 38 38 38 38 38 38 39 38
32 26 26 29 29 25 25 27 29 30 30 30 30 31 36 37 37 37 39 40 41 41 43 43 42 41 37 38 38 39 40 40 39 36 35 37 39 37 39 39 38 38 38 38 37 36 37 37 37
28 27 28 29 21 19 21 28 31 33 34 30 29 32 34 36 38 39 39 41 41 41 43 42 41 40 38 37 41 42 41 41 41 38 38 37 37 37 37 36 36 35 35 36 37 37 36 36 35
30 30 29 27 28 23 22 23 31 32 32 32 33 35 36 37 38 39 39 39 41 40 40 41 41 40 38 38 39 39 38 37 38 37 35 35 35 35 35 34 34 34 34 35 36 36 36 35 34
29 30 31 26 27 28 26 23 33 33 32 32 34 36 37 36 37 38 39 38 37 37 36 36 38 39 38 38 39 37 37 35 36 34 33 33 33 33 33 32 29 29 28 29 32 34 35 33 30

GFSSGP_sfc_dewp_009.txt.gz
Dewpoint
48 33 36 29 23 23 21 21 43 43 47 51 54 51 53 56 52 49 64 66 69 69 69 70 71 71 71 71 71 71 71 70 70 69 69 68 66 66 66 66 65 64 64 64 64 65 65 65 65
34 34 30 27 22 18 25 37 43 46 48 48 50 52 55 57 62 63 64 68 68 68 69 70 71 71 71 71 71 71 70 70 70 69 68 67 66 66 65 65 65 64 63 63 62 63 63 64 65
37 34 22 22 21 18 27 39 43 45 47 45 47 47 52 58 62 63 66 68 68 68 69 70 70 71 71 71 71 71 71 71 70 69 67 66 66 64 63 63 63 62 61 61 61 61 61 62 63
29 26 18 17 17 18 29 34 41 42 45 48 48 47 49 59 62 65 67 68 68 68 69 69 69 70 71 71 71 71 71 69 69 68 66 66 65 63 62 62 61 61 60 60 59 59 59 60 61
32 22 16 16 16 24 28 36 42 43 45 46 47 46 51 64 65 67 68 68 68 68 69 69 69 70 70 71 70 70 70 69 69 68 66 65 64 63 62 61 60 60 59 59 59 59 59 59 59
22 20 16 14 27 31 28 35 45 46 46 48 49 48 49 65 66 67 68 67 67 68 70 70 70 70 70 70 69 69 68 68 68 68 66 65 64 64 62 61 60 59 59 59 59 59 59 59 59
20 17 15 20 32 27 31 29 46 45 45 46 47 45 51 62 66 68 67 66 66 67 68 69 70 70 69 68 67 67 67 67 67 67 66 65 65 64 63 61 60 59 58 59 59 60 60 59 59
22 18 17 27 30 33 25 21 35 46 45 47 46 45 52 53 65 67 66 66 67 67 67 67 66 66 65 65 66 66 66 66 66 66 65 64 63 63 64 63 62 61 60 60 61 61 61 60 60
21 18 14 14 24 30 33 17 21 35 46 43 45 46 56 59 64 64 64 64 64 65 64 64 64 63 63 63 65 66 65 65 65 65 64 63 61 60 60 62 62 62 62 61 61 62 62 61 60
22 17 15 14 22 23 14 27 31 39 44 46 44 45 54 56 60 60 60 60 61 61 62 62 62 62 63 63 64 63 63 63 63 62 62 62 61 61 60 61 63 63 62 63 63 63 63 62 58
18 12 9 8 18 14 12 13 20 41 41 46 44 45 50 55 54 55 56 57 57 59 61 60 60 61 61 61 62 62 62 62 62 62 62 61 62 61 61 60 59 59 60 59 60 59 59 58 57
16 11 9 7 12 7 7 9 23 23 40 47 45 44 46 48 49 50 52 54 55 58 58 59 60 60 60 60 60 61 61 62 62 62 62 60 59 57 56 56 55 53 53 52 56 56 56 55 54
11 7 7 12 8 6 5 6 11 14 33 47 44 42 43 44 45 47 50 50 54 57 58 59 61 59 58 59 60 60 61 62 62 61 61 60 57 53 53 53 52 52 52 52 51 50 50 49 50
11 10 5 11 13 10 6 13 14 15 46 46 43 41 41 41 42 42 43 47 52 56 57 58 60 58 56 57 59 59 60 61 61 60 59 56 55 54 54 52 51 51 52 52 51 50 50 50 50
10 6 8 8 14 13 16 15 12 19 46 45 44 44 45 44 43 42 43 44 52 56 57 59 59 59 57 57 57 57 58 57 58 55 53 53 53 52 51 49 48 49 50 48 47 48 48 46 46
13 13 9 12 18 18 11 7 16 21 45 45 46 46 46 45 46 45 46 42 50 57 58 60 61 59 58 56 56 55 53 51 52 52 52 51 51 49 48 45 45 47 48 47 46 46 44 43 44
15 10 15 15 18 18 15 16 18 15 36 32 40 44 43 45 47 51 53 51 56 59 59 59 61 60 58 55 55 54 51 49 47 47 49 48 47 47 45 45 46 47 47 45 45 43 44 43 43
10 14 22 13 16 19 17 21 29 36 38 41 43 43 43 45 48 50 54 56 56 56 57 58 57 56 54 52 48 50 51 50 49 46 45 45 46 46 45 45 45 46 43 43 42 41 42 42 43
19 18 15 17 18 25 27 30 37 39 42 43 42 42 43 44 45 46 47 48 48 50 52 52 53 54 51 49 50 50 45 45 46 46 48 46 44 43 42 42 43 43 41 41 42 42 41 40 42
23 21 22 22 23 27 31 31 35 37 40 43 42 41 41 42 42 43 44 45 47 48 50 49 48 48 49 50 49 48 47 45 48 46 43 42 42 41 39 40 41 41 41 40 40 41 41 41 42
28 25 23 21 25 28 29 29 29 32 37 40 42 43 41 42 43 43 42 40 41 42 43 41 42 43 46 48 46 43 43 45 43 42 40 39 40 39 40 40 41 41 41 40 41 41 41 40 41
26 29 26 23 24 23 25 25 28 32 36 39 41 42 43 42 42 41 40 39 39 39 39 38 39 39 40 41 40 40 41 41 43 41 37 36 39 38 40 40 41 41 41 40 41 41 39 39 38
29 30 26 26 22 22 23 24 27 32 34 38 39 41 42 42 41 41 41 40 40 39 39 39 39 39 39 39 40 42 41 40 41 37 35 35 38 39 40 39 39 40 40 38 38 38 37 37 37
29 30 31 32 27 23 26 26 27 30 32 36 38 40 41 42 42 42 42 41 41 41 39 38 38 39 40 40 40 41 38 38 34 34 35 35 37 39 39 39 39 39 38 37 37 36 35 35 36
30 29 25 23 23 23 29 29 30 31 33 36 37 38 40 41 42 43 41 41 41 41 41 41 40 39 39 39 38 38 35 34 34 36 38 36 38 40 38 38 38 38 37 36 36 35 34 34 33
29 29 26 20 21 22 27 26 28 33 36 37 38 38 39 43 41 40 40 41 40 39 36 35 36 36 37 37 37 37 36 38 39 39 39 39 39 39 38 37 36 36 36 35 35 34 34 33 32
29 24 28 27 26 23 26 27 29 33 36 35 36 38 38 38 39 39 40 40 40 40 40 38 36 36 37 38 39 39 39 39 40 40 40 38 38 38 38 37 37 38 35 34 34 33 32 32 32
26 29 26 26 18 18 23 26 27 29 32 32 34 37 38 38 38 39 39 38 37 37 39 39 39 37 37 38 39 39 40 39 39 40 38 36 35 37 36 38 38 33 32 32 33 32 32 33 32
28 27 28 28 25 20 19 25 29 31 32 34 36 37 37 38 38 38 38 36 35 34 34 35 36 35 33 34 36 38 38 38 38 37 36 35 34 36 37 36 32 30 29 29 29 28 30 32 30
28 29 27 21 24 25 22 22 31 34 35 36 36 37 38 38 37 36 35 34 33 30 27 28 28 27 29 31 33 34 35 35 36 36 34 35 35 33 33 35 35 30 27 27 27 27 29 26 24

GFSSGP_sfc_dewp_012.txt.gz
Dewpoint
51 43 36 30 16 22 19 22 41 43 48 52 53 54 55 58 52 49 65 67 68 69 70 70 70 71 71 71 70 71 70 70 69 69 68 67 66 66 65 65 66 64 63 63 63 63 64 64 65
32 33 29 27 20 16 22 27 44 47 50 50 52 52 55 55 62 63 64 68 68 68 69 70 70 71 71 71 71 71 70 70 69 68 67 66 65 64 64 64 65 63 62 61 61 61 61 61 62
35 32 22 22 21 15 23 42 46 47 47 46 47 51 54 57 63 63 67 68 68 68 69 70 70 70 71 71 71 71 71 70 69 68 66 66 64 63 63 63 63 61 60 59 58 58 59 59 60
29 26 19 17 16 18 29 39 45 47 48 49 47 49 53 60 62 66 68 68 68 67 68 69 70 70 71 71 71 71 70 70 69 68 66 65 64 62 62 62 61 60 59 58 58 58 59 59 59
28 20 15 18 15 18 22 38 42 43 48 45 46 48 52 64 66 67 68 68 67 68 68 69 69 70 71 71 71 70 69 69 69 68 67 65 63 62 61 61 60 59 59 59 59 59 59 59 60
22 19 15 15 22 31 31 42 46 46 46 48 49 50 54 66 65 67 67 67 68 68 69 68 69 70 70 70 70 69 68 68 68 67 66 64 64 63 61 61 60 59 59 60 60 60 60 60 60
19 16 14 23 33 31 27 45 45 45 47 47 49 48 58 63 66 67 66 67 68 68 68 68 68 69 68 68 68 67 68 68 67 67 66 65 64 63 62 62 61 60 60 61 61 61 61 61 61
22 18 19 32 32 33 36 28 44 45 46 47 49 53 57 61 66 66 65 65 66 66 66 66 67 68 66 66 66 66 66 66 66 66 65 63 63 63 63 62 61 62 61 61 62 62 62 62 62
21 17 14 27 33 33 35 24 31 42 46 45 45 52 59 65 65 64 64 65 65 66 66 66 66 66 64 63 65 66 66 65 65 65 64 62 60 59 59 62 63 63 62 63 62 63 63 62 61
22 19 16 18 30 36 38 27 35 44 45 45 47 58 63 64 63 61 61 61 62 63 64 64 63 62 62 64 63 62 63 63 63 62 62 61 60 60 61 61 62 62 63 63 63 63 63 61 58
20 18 13 12 30 32 19 31 29 43 42 45 50 57 60 62 61 61 61 61 62 63 63 62 61 61 61 62 62 61 61 61 61 61 61 60 61 60 59 59 58 57 59 56 57 58 57 57 56
17 16 11 8 22 16 20 16 37 34 38 46 54 57 57 59 58 58 58 59 58 59 61 61 60 60 60 60 61 60 61 61 61 61 61 60 59 57 56 55 52 52 52 51 53 53 54 52 51
17 12 10 10 10 9 8 13 32 21 40 45 52 54 54 55 55 53 54 55 56 57 58 59 60 59 59 59 60 59 60 61 61 61 60 59 57 53 53 52 52 52 52 52 50 50 50 50 50
18 8 8 13 7 5 6 11 13 21 46 44 48 50 51 52 50 49 51 52 54 57 58 59 60 59 58 58 59 59 60 60 61 60 59 57 55 53 53 51 50 49 51 49 49 49 49 48 47
10 4 8 9 14 12 16 12 12 33 45 43 43 46 44 43 44 43 45 48 52 56 58 59 59 58 58 58 58 59 59 58 58 56 55 55 53 53 49 47 46 47 48 47 46 46 44 43 43
12 12 9 10 16 18 7 4 16 42 45 44 45 45 45 46 46 45 48 45 51 58 59 60 60 60 60 58 58 59 55 56 53 53 54 52 49 47 46 45 47 48 46 45 44 45 42 42 43
14 9 12 14 18 17 12 17 29 30 44 41 42 42 45 46 50 52 53 47 55 59 59 59 60 60 59 57 57 55 52 52 47 49 48 46 47 46 45 46 47 45 43 43 42 42 42 42 42
8 11 21 12 22 25 21 35 38 40 40 42 42 44 46 46 46 50 54 56 56 58 58 57 57 57 56 54 51 52 51 50 50 48 46 46 45 45 45 43 43 42 41 41 41 40 41 41 42
15 14 14 16 21 32 34 36 37 42 42 42 42 43 43 44 45 49 50 52 52 53 55 54 54 53 52 49 51 48 48 49 48 45 43 43 42 41 40 41 41 41 40 40 41 41 40 40 42
22 20 20 23 28 33 34 31 34 36 40 42 42 43 43 43 43 44 46 48 49 50 53 53 50 48 49 49 49 50 47 46 45 41 40 41 40 39 39 41 41 40 40 40 41 40 40 40 42
27 22 22 22 31 32 31 31 32 36 41 42 42 42 42 43 43 42 42 42 47 47 45 44 44 44 46 48 45 43 44 45 42 41 37 38 39 39 40 41 41 40 39 40 40 40 39 38 39
24 28 25 27 26 25 28 28 30 35 38 40 41 41 42 41 40 39 38 37 38 38 39 39 40 39 40 40 40 39 40 41 42 38 35 37 39 39 39 39 40 39 40 41 40 39 38 39 36
28 29 26 24 23 22 25 27 27 35 37 39 40 41 42 41 40 39 38 38 39 39 39 39 39 40 39 39 41 42 40 41 37 35 35 35 37 38 38 38 38 39 39 37 37 36 35 36 35
30 30 30 30 27 21 24 25 26 32 35 38 39 41 42 41 41 40 41 41 40 40 39 39 40 39 40 40 40 39 39 35 34 36 37 36 37 38 38 39 38 38 37 37 36 35 34 34 34
31 27 24 23 22 22 28 27 27 32 35 38 39 40 41 42 41 41 41 41 41 40 40 39 37 37 37 37 36 36 35 34 36 37 38 37 39 39 39 37 37 37 36 37 36 33 33 32 31
28 28 25 19 21 23 27 26 28 32 34 38 39 39 40 41 43 41 40 38 37 36 35 36 36 36 37 37 37 37 36 37 38 39 39 39 39 39 37 37 35 35 36 37 37 35 33 33 31
28 24 28 27 25 23 26 27 31 36 36 37 37 38 40 40 39 40 39 39 39 39 38 36 36 37 37 38 38 39 39 39 39 40 40 39 38 38 37 36 37 37 38 36 35 33 31 32 32
27 29 24 25 17 17 23 26 27 32 34 36 36 37 38 39 39 39 37 37 37 37 38 39 37 33 31 31 35 35 34 35 36 37 37 37 37 36 37 37 37 37 36 34 34 33 31 31 31
28 27 28 27 24 18 18 23 29 32 35 33 35 37 38 38 38 36 35 35 34 33 33 31 28 26 27 29 31 31 32 33 35 36 36 35 34 35 36 36 34 31 32 31 29 28 28 28 30
28 28 25 20 19 24 21 20 29 32 33 36 37 37 37 37 36 35 34 33 27 26 26 26 25 25 27 27 29 30 32 33 34 35 35 34 34 34 33 34 35 35 32 28 26 26 26 28 25

GFSSGP_sfc_dewp_015.txt.gz
Dewpoint
52 40 36 32 19 22 19 21 40 45 50 53 55 54 54 55 51 50 65 67 68 68 69 68 69 71 70 70 71 71 70 69 69 68 67 66 66 65 65 65 66 64 62 62 61 61 60 61 61
30 33 31 29 18 14 22 32 45 47 52 52 50 49 52 53 59 64 64 68 68 68 68 67 69 70 70 70 71 71 70 69 69 67 66 66 65 64 64 64 65 63 60 59 58 58 58 59 59
32 30 26 24 22 15 26 44 46 46 48 48 52 53 54 53 62 64 67 68 68 68 68 68 69 70 70 71 71 71 70 70 69 68 66 65 63 63 63 63 64 60 59 58 58 58 58 59 60
30 28 21 20 18 20 31 45 47 46 46 46 50 50 57 61 63 65 68 68 67 68 68 68 69 70 71 71 71 71 70 70 69 68 66 64 63 62 62 62 62 60 60 60 60 59 59 59 61
28 23 19 17 16 19 23 45 47 44 45 44 44 47 53 64 66 67 67 67 67 67 68 68 69 70 70 71 71 70 70 69 68 68 67 64 63 61 61 61 61 60 61 60 60 60 60 61 62
27 23 18 15 29 30 36 44 45 46 45 46 49 50 57 66 65 67 67 66 67 67 69 69 70 70 70 70 70 69 68 68 68 67 66 64 63 62 61 61 60 60 61 61 61 61 61 61 61
24 20 17 25 32 33 33 46 45 45 46 46 51 53 60 64 67 66 66 67 67 68 68 69 69 69 69 68 68 67 67 67 67 66 66 65 64 62 63 62 62 61 62 62 62 62 62 62 62
23 21 25 33 32 37 37 38 50 46 46 49 53 54 58 62 67 66 67 67 67 67 68 68 68 68 68 68 67 67 66 66 66 66 64 63 62 62 62 61 62 62 62 62 62 63 63 63 62
22 19 27 32 34 39 41 34 37 45 46 46 47 56 60 65 66 65 64 65 66 66 66 66 66 67 68 67 66 66 66 66 65 64 63 62 60 60 60 62 62 63 63 63 63 63 63 63 61
23 21 19 27 37 38 38 35 39 45 45 45 57 62 63 64 63 63 63 62 64 64 65 66 66 66 67 64 65 64 62 62 62 62 63 62 62 62 61 62 62 61 62 61 61 61 61 59 56
23 22 20 16 36 37 35 31 38 44 44 44 54 59 61 62 61 60 60 61 62 63 63 64 65 66 65 63 63 62 62 62 62 63 63 63 63 64 62 62 59 59 57 54 55 56 55 56 54
18 20 12 10 33 35 32 28 41 44 41 46 57 61 61 60 60 60 60 60 61 63 64 65 66 64 64 62 62 61 60 61 62 63 64 64 62 62 60 56 55 56 55 55 54 53 55 54 52
21 19 12 10 23 24 21 27 38 35 45 52 59 61 61 62 62 61 59 59 61 60 62 63 62 62 62 62 62 61 62 62 63 63 64 63 61 59 57 56 54 53 52 51 51 51 51 50 48
22 9 9 12 11 9 17 13 24 30 46 54 57 58 59 58 57 55 54 54 56 57 59 61 61 61 60 60 61 63 63 63 63 63 62 62 59 59 56 52 50 49 50 50 49 50 47 45 44
11 9 10 14 11 10 16 13 17 38 45 51 55 54 54 53 52 52 52 53 55 57 59 61 61 60 61 61 61 61 58 59 60 61 59 57 57 53 51 50 50 50 49 49 48 47 45 44 41
12 16 10 11 17 17 10 9 31 37 44 45 48 47 48 47 47 48 50 48 53 58 60 61 61 61 60 59 59 56 55 57 56 57 55 53 51 51 52 49 49 48 47 46 45 43 41 42 41
18 11 13 14 23 17 17 21 37 39 44 43 43 45 45 48 49 53 56 52 57 59 60 61 62 60 59 58 56 55 53 54 51 52 51 50 49 50 49 47 47 46 44 44 42 41 42 40 37
13 12 13 15 21 30 32 35 40 42 43 44 44 46 47 46 48 53 56 58 59 60 60 60 59 57 56 56 53 53 53 51 50 48 45 45 44 46 44 44 45 43 42 42 41 41 39 40 39
14 14 13 19 29 35 36 37 38 42 42 43 44 45 46 46 50 53 56 58 58 58 58 58 58 55 53 49 52 52 52 49 45 43 44 43 43 43 44 43 43 43 42 43 42 40 38 35 40
22 22 24 28 32 35 35 36 39 40 41 42 44 45 46 47 49 51 53 55 57 57 56 56 55 51 50 52 52 52 50 47 42 41 42 41 43 42 41 44 42 43 41 43 43 40 36 37 41
27 24 23 27 33 34 33 33 38 40 42 43 44 44 46 48 49 50 51 54 56 56 53 49 49 49 49 49 47 46 48 46 43 40 38 40 41 41 42 43 44 43 42 41 42 41 40 35 37
26 27 29 31 28 25 28 19 34 39 41 42 43 44 45 45 46 46 45 46 46 46 46 46 45 43 43 44 44 45 43 43 42 39 39 39 41 41 40 41 43 43 42 42 41 39 38 35 30
28 30 28 25 24 24 27 25 29 39 39 41 42 43 43 42 42 39 39 40 40 42 44 44 44 43 43 44 46 44 44 41 39 40 41 41 42 41 40 41 42 42 41 41 40 37 34 32 28
33 31 31 30 27 23 24 24 26 35 38 40 41 42 42 41 41 40 41 41 41 42 44 44 41 41 42 43 44 44 42 40 39 41 41 41 41 42 42 41 42 41 40 38 37 37 33 33 31
30 29 27 27 28 24 28 27 27 32 37 40 41 41 42 42 42 41 41 41 42 43 42 40 39 38 40 40 40 40 40 40 41 41 41 42 41 41 42 42 41 38 37 37 36 33 32 32 29
29 29 30 22 25 24 27 27 27 32 34 39 40 41 42 42 43 42 42 40 39 40 39 39 39 39 40 41 41 42 42 40 37 37 36 37 38 39 42 41 39 38 37 35 35 34 34 34 33
28 25 30 28 26 25 25 28 30 34 34 38 39 40 41 42 42 41 40 39 39 38 40 40 37 34 34 36 35 35 34 34 34 36 37 36 39 39 41 40 38 40 38 36 36 35 35 34 33
28 29 26 27 22 18 20 25 25 33 33 37 38 39 41 41 41 40 39 40 40 40 41 38 32 28 30 30 32 30 32 33 33 34 33 34 37 39 40 39 39 38 37 35 35 33 33 33 32
29 28 29 27 26 19 18 19 31 33 35 36 38 39 41 41 41 39 37 37 37 39 34 30 29 26 27 28 30 32 32 33 33 32 33 34 37 38 38 38 38 36 34 35 35 33 31 30 29
29 28 27 26 21 25 26 21 28 34 35 37 37 39 40 40 39 36 35 34 33 30 27 29 27 26 27 28 29 30 31 32 33 33 34 36 35 36 36 36 35 35 37 36 33 29 27 28 28

GFSSGP_sfc_dewp_018.txt.gz
Dewpoint
53 36 26 29 23 21 21 22 38 48 49 52 53 52 52 52 52 51 64 64 65 66 65 66 70 70 70 70 71 71 70 69 68 67 67 66 65 65 65 66 65 63 61 60 59 58 58 58 59
24 22 30 26 21 19 19 23 36 47 48 49 46 49 50 49 57 62 63 66 66 67 65 64 70 70 70 71 71 71 70 69 68 66 66 65 65 64 64 64 64 62 59 57 57 57 58 59 60
23 30 23 18 16 16 19 37 43 46 46 43 46 51 53 52 55 62 66 67 67 67 65 66 69 70 70 70 70 70 70 70 68 67 65 64 64 63 63 62 63 60 59 59 59 58 59 60 60
20 25 22 16 16 16 30 42 43 44 45 45 46 49 52 57 53 62 66 67 68 68 66 68 69 69 70 70 70 71 70 70 69 68 65 63 62 61 61 61 62 61 60 60 59 60 60 61 62
24 21 16 15 15 16 32 44 44 41 40 42 44 47 48 57 62 64 67 67 66 68 67 67 68 68 69 69 71 70 70 69 68 68 66 63 61 60 61 61 61 61 61 60 61 61 61 61 62
18 21 14 14 22 28 25 44 44 40 38 41 41 46 55 63 63 66 67 67 66 65 66 66 68 68 69 70 70 69 69 68 68 67 66 63 62 62 61 61 61 61 61 61 61 61 61 62 62
20 14 14 21 30 34 35 44 43 40 36 43 47 48 60 64 65 66 65 65 66 66 67 67 66 67 69 68 68 67 68 67 67 66 66 64 64 64 62 62 61 60 61 61 62 62 62 62 62
23 16 18 26 32 38 43 44 40 39 41 48 49 47 57 63 65 66 65 65 66 66 66 67 66 66 67 67 67 67 67 66 66 66 64 63 63 62 62 62 62 62 62 62 62 63 63 63 62
24 14 18 29 33 38 36 35 41 42 44 48 49 52 58 63 64 64 65 66 66 66 66 65 63 64 65 64 66 66 66 66 65 64 63 60 57 58 57 61 62 62 62 63 62 62 62 62 62
22 17 17 31 35 37 37 34 34 43 45 46 53 58 61 63 63 62 62 62 63 64 64 64 65 66 65 61 62 60 57 56 59 59 60 59 62 61 59 61 61 60 60 58 59 59 60 58 47
23 17 18 32 36 31 31 33 33 38 43 45 52 59 61 61 61 61 61 61 62 62 63 64 66 66 63 60 58 55 56 59 61 62 62 63 62 62 59 56 55 57 56 53 53 52 49 52 50
21 21 16 29 36 30 28 31 34 39 39 45 53 59 61 61 61 60 60 57 57 60 61 63 65 65 63 58 55 57 57 60 61 62 64 64 61 62 59 54 56 58 54 53 51 49 52 51 49
22 19 17 15 28 32 31 29 35 38 41 50 55 57 59 58 56 55 54 54 55 55 59 62 62 62 61 60 59 60 62 61 63 63 64 64 61 61 57 58 55 54 52 51 50 49 47 46 45
21 16 11 12 27 28 27 27 34 34 47 52 55 55 56 57 55 53 52 52 54 54 58 61 59 60 59 60 62 62 63 63 64 64 64 62 62 62 58 56 52 51 50 49 48 47 44 43 44
16 12 12 12 22 23 25 21 23 38 46 49 50 52 54 54 54 51 49 48 50 53 57 60 61 60 61 61 61 59 59 61 63 63 61 60 60 57 54 55 53 51 50 49 47 45 44 43 41
11 13 10 15 18 14 19 17 28 40 44 46 49 52 53 51 50 50 50 48 49 53 58 61 62 62 61 60 59 59 58 59 59 59 60 57 54 53 55 51 51 50 48 45 45 43 41 41 40
13 5 8 15 22 16 13 14 31 41 43 45 48 48 49 48 49 52 53 50 51 55 59 62 63 62 62 60 57 57 57 57 56 54 52 52 51 51 50 48 48 47 44 44 42 41 41 39 38
10 11 7 10 23 12 16 27 31 41 42 43 44 46 47 48 48 52 54 54 54 58 60 62 61 62 61 59 58 55 53 51 50 48 47 46 46 47 46 46 47 44 42 41 42 43 42 41 40
10 11 11 17 30 28 26 27 31 38 42 44 44 45 46 47 50 54 56 57 58 60 60 61 60 61 59 55 53 51 51 50 47 45 46 45 44 44 44 42 43 43 43 44 44 42 41 39 39
16 14 20 25 31 30 29 31 35 36 40 43 44 45 46 48 50 54 57 57 58 59 59 60 58 57 54 52 52 52 50 47 45 44 45 43 42 41 40 43 42 44 42 43 44 43 39 36 39
22 20 25 21 29 30 29 28 34 38 39 41 44 45 46 48 51 53 55 57 59 58 59 57 55 52 52 52 49 49 49 46 44 43 42 41 43 41 42 43 43 43 41 39 42 41 40 36 36
22 25 26 28 24 18 28 14 32 36 38 41 43 45 47 49 52 53 53 53 55 54 52 50 50 49 47 45 46 47 44 44 43 42 41 41 44 43 41 41 43 43 41 42 41 38 38 35 31
26 29 28 26 24 25 25 19 29 37 36 40 44 46 49 51 49 46 46 48 47 50 49 48 45 44 45 46 47 45 44 42 41 42 42 43 42 43 41 41 41 43 42 42 41 38 36 35 34
31 30 28 27 26 23 21 22 17 32 34 39 43 45 47 46 43 41 42 42 43 45 46 46 44 43 44 44 44 44 43 40 38 39 36 32 32 31 34 37 43 43 42 42 38 37 38 36 32
30 26 23 24 25 23 27 23 20 27 35 39 42 42 44 43 41 40 40 40 42 44 45 44 42 41 42 41 39 39 39 38 32 30 27 28 26 27 30 34 38 40 41 39 37 38 38 32 29
28 26 24 16 21 18 27 20 21 31 33 39 41 40 42 41 41 41 41 42 43 44 43 43 41 39 37 37 36 34 30 27 26 28 28 28 28 29 34 36 38 41 40 37 37 38 34 32 30
28 26 30 28 30 28 18 24 28 33 33 37 39 39 40 40 41 42 42 42 43 43 44 42 37 32 32 32 32 30 30 30 30 32 32 29 30 28 33 39 40 40 40 39 39 35 34 33 32
29 29 27 28 23 17 15 18 16 31 33 36 38 39 39 39 41 42 41 42 42 42 42 39 33 30 30 32 31 28 30 30 31 31 30 30 31 31 33 36 38 39 39 40 37 34 35 31 30
28 27 26 26 28 16 13 10 28 29 33 36 38 39 40 41 42 42 41 41 41 41 36 32 30 30 32 29 30 31 30 31 30 30 30 30 32 31 31 32 35 36 37 36 36 36 37 31 27
29 27 24 22 21 29 30 15 28 34 34 35 37 38 40 42 42 42 40 40 40 37 32 31 31 31 29 28 28 28 29 28 29 30 29 31 31 32 32 33 33 33 33 34 35 35 30 25 25

GFSSGP_sfc_dewp_021.txt.gz
Dewpoint
53 44 29 18 22 23 20 19 23 44 47 52 52 48 50 52 54 51 60 63 64 63 62 65 70 70 70 70 71 71 70 68 67 67 66 65 65 65 65 65 65 61 59 58 57 57 59 60 61
38 21 14 21 21 17 16 18 29 46 48 48 49 50 48 49 57 61 62 64 64 64 62 63 70 70 71 71 71 70 69 67 67 66 65 65 64 64 63 62 64 61 59 58 57 59 59 59 60
30 16 18 16 19 17 17 27 44 46 46 46 46 48 48 48 57 61 63 65 66 65 63 65 69 70 70 70 70 70 70 69 68 66 64 64 63 62 61 61 63 61 60 59 59 60 60 60 59
17 13 20 19 18 17 19 39 43 41 44 43 44 43 49 53 56 60 65 66 66 66 67 68 69 69 70 69 70 70 69 69 68 67 64 62 61 61 61 62 62 61 60 60 60 60 61 61 62
17 17 14 17 18 18 31 44 44 44 42 43 41 42 42 51 55 61 64 67 67 68 68 66 68 68 69 70 70 70 69 69 68 67 65 62 60 60 61 62 62 61 61 60 60 61 61 62 62
11 15 14 15 17 19 19 42 41 40 39 38 42 44 47 54 56 60 65 66 65 67 68 67 68 67 68 69 70 69 69 68 68 66 65 61 61 61 61 61 61 61 61 61 61 61 62 62 62
14 12 13 15 26 28 24 45 48 38 36 38 40 42 53 54 59 64 62 63 62 64 67 66 64 66 68 68 68 68 67 67 67 66 65 63 63 63 62 61 61 61 61 62 62 62 62 63 62
13 15 12 15 30 34 35 41 42 43 48 45 45 46 47 56 64 66 65 66 64 64 66 66 66 65 67 67 67 67 66 66 66 64 64 63 63 62 61 62 62 62 62 63 63 63 63 63 62
19 15 10 19 35 38 38 37 39 38 39 44 48 49 55 61 63 64 64 65 65 66 65 65 62 63 64 65 66 66 66 66 65 63 62 60 56 57 58 62 62 61 61 61 60 61 62 62 62
14 12 12 30 39 42 33 33 33 37 35 41 49 54 59 61 60 61 62 62 62 63 63 63 64 63 62 57 61 57 55 54 57 57 57 57 59 59 57 59 60 60 58 58 58 59 61 60 48
16 17 18 24 37 37 37 34 32 38 38 41 47 52 57 59 59 59 59 60 60 61 63 64 66 66 60 58 54 52 53 57 60 61 60 60 58 59 57 55 54 56 56 53 53 52 49 52 50
17 17 17 25 32 28 27 30 32 44 49 40 48 55 58 56 58 58 58 54 55 59 62 64 65 64 60 55 52 54 55 58 57 59 62 61 60 59 57 53 54 55 53 54 52 50 52 50 48
19 18 20 28 29 24 27 28 38 40 37 43 51 55 55 55 53 52 50 50 52 54 58 62 62 60 59 57 58 59 59 62 65 62 64 63 61 62 62 61 57 54 52 52 51 50 48 49 46
21 19 16 21 27 34 26 25 36 35 39 46 51 51 48 49 48 48 47 48 50 52 56 58 57 58 57 59 62 62 63 62 63 64 65 64 62 61 58 59 57 54 53 52 49 49 46 45 45
19 15 13 17 26 28 25 19 24 37 39 43 44 45 46 46 45 45 46 47 49 51 55 57 58 58 60 62 59 58 58 59 61 63 63 62 62 61 60 58 55 52 51 51 48 47 45 42 40
16 17 14 15 24 26 26 17 27 36 37 39 40 43 45 47 46 44 44 44 47 51 56 58 57 60 61 60 60 60 60 59 60 61 61 59 58 56 56 54 52 52 50 46 46 44 42 42 41
17 11 15 15 20 23 23 18 25 35 35 37 41 44 46 46 46 47 47 45 46 52 57 60 61 61 61 61 60 60 59 58 58 56 53 54 52 52 51 49 49 49 45 45 44 44 44 43 42
12 10 8 13 19 21 12 18 22 32 33 38 40 43 45 45 46 49 50 48 47 52 58 61 61 61 62 61 59 57 57 56 53 50 49 48 48 48 48 47 49 47 44 45 46 47 45 43 40
13 12 6 11 17 13 12 18 23 30 33 36 37 40 43 46 48 51 53 53 53 57 59 61 61 61 60 58 57 56 52 51 49 47 47 47 46 45 46 44 45 46 45 46 46 44 44 37 37
11 10 14 15 19 22 15 17 23 28 31 34 36 38 41 44 48 51 54 55 56 57 59 60 59 60 58 55 53 52 51 48 46 46 47 45 45 44 43 46 45 45 43 43 42 42 40 37 37
15 13 19 17 21 22 19 20 28 31 33 37 39 39 41 43 48 51 54 56 57 58 58 58 57 57 54 53 51 50 49 47 44 44 43 44 45 44 44 44 44 43 41 37 40 40 40 35 35
18 23 19 21 22 16 20 13 23 31 33 36 39 41 43 44 48 51 54 56 57 58 58 55 54 52 52 49 46 46 44 44 45 44 44 44 44 44 42 41 42 42 40 40 39 35 39 37 33
29 26 25 22 21 22 20 15 32 32 30 33 37 40 42 46 49 51 53 53 53 53 52 52 50 46 46 47 48 46 46 44 43 43 40 39 37 34 32 33 36 41 40 40 41 40 39 36 36
27 27 26 24 19 21 15 17 22 28 28 33 39 42 46 49 49 46 47 48 48 49 49 48 45 44 46 46 47 46 43 40 37 35 31 29 28 28 30 29 34 36 39 40 39 40 39 39 37
24 24 22 21 23 22 20 19 18 16 30 31 39 43 47 47 44 42 42 42 44 46 47 46 44 44 45 43 40 40 39 34 32 29 27 28 27 27 30 33 35 35 36 38 38 39 39 40 34
25 22 23 15 18 18 23 15 14 28 26 31 39 43 46 44 41 40 40 41 43 45 45 44 43 42 40 39 36 33 32 32 29 29 30 28 28 28 31 32 35 37 37 37 41 38 41 39 36
23 24 26 25 28 25 14 11 22 30 30 33 38 41 43 41 39 39 40 42 44 45 45 45 42 38 35 35 37 35 35 31 32 32 32 29 30 26 30 33 33 35 36 38 41 41 40 36 35
28 26 24 22 19 17 10 12 11 27 28 33 37 40 41 40 39 40 41 44 44 44 46 45 40 35 36 36 35 35 34 31 33 33 31 30 30 30 31 31 31 32 34 40 39 37 36 36 37
27 24 24 24 28 22 15 13 21 18 27 31 35 39 40 40 40 41 42 43 43 44 43 40 35 36 36 33 34 37 31 31 32 32 31 30 31 30 29 30 31 31 31 31 33 34 36 35 35
28 26 26 28 22 26 30 17 22 26 28 32 34 37 39 40 40 41 42 42 42 43 40 36 36 37 33 32 30 31 31 29 30 31 30 30 30 30 29 29 30 29 29 31 33 34 35 34 30

GFSSGP_sfc_dewp_024.txt.gz
Dewpoint
51 41 39 32 15 23 20 18 18 41 48 49 48 45 49 53 55 53 66 63 62 62 65 67 70 70 70 71 70 70 69 68 67 67 68 67 67 66 66 65 64 63 59 58 60 59 59 59 60
42 40 33 14 16 18 17 23 44 46 47 48 48 48 47 51 58 62 64 64 62 63 63 65 70 70 70 71 70 69 68 67 67 67 66 66 65 64 64 65 64 63 60 60 59 59 59 58 59
41 29 9 11 15 17 16 30 42 46 46 46 46 48 48 51 59 61 65 65 63 61 62 67 70 69 70 70 70 69 69 68 67 66 65 63 62 62 63 65 64 63 60 60 61 61 61 61 63
28 18 12 18 16 16 17 41 43 42 44 44 45 43 49 51 58 62 67 67 65 65 67 68 67 68 69 70 70 69 68 68 66 65 65 63 61 62 63 65 64 62 61 61 61 61 62 64 64
25 14 10 13 14 17 20 44 46 49 52 43 41 39 45 52 62 63 65 66 67 67 66 67 67 67 68 70 69 69 68 68 67 65 65 63 61 62 64 65 64 63 61 61 61 62 63 63 63
16 13 13 13 13 15 17 43 47 49 52 45 41 40 48 54 59 64 66 67 67 66 67 68 67 67 68 69 68 68 68 67 67 65 64 63 63 64 64 64 64 64 63 63 62 63 63 63 63
20 10 10 13 14 23 36 47 47 45 47 44 48 48 51 53 61 64 64 64 66 66 67 67 66 67 68 67 67 67 67 67 67 65 65 65 64 64 64 64 64 64 64 64 64 64 64 64 63
14 14 13 13 11 26 45 45 42 45 43 49 52 46 51 59 64 65 62 62 63 66 65 65 66 67 67 66 66 66 66 66 65 64 63 63 63 63 63 64 64 63 63 63 63 63 63 63 62
13 11 13 13 16 41 47 48 45 41 44 49 53 51 60 62 61 62 61 61 62 63 65 65 65 66 66 65 65 65 66 65 64 63 62 61 59 60 61 62 62 63 63 62 60 60 61 62 62
13 15 13 25 39 45 45 45 42 36 37 45 49 57 59 61 60 61 62 59 60 60 63 64 65 65 65 61 63 62 60 60 59 58 59 60 62 58 58 61 61 61 60 60 60 60 61 61 52
15 14 15 29 43 44 42 38 35 42 42 45 51 53 56 58 59 60 61 61 60 61 63 65 65 65 60 60 61 57 58 62 63 63 62 63 61 61 60 61 57 61 60 58 58 57 55 53 52
14 13 16 28 44 44 46 39 39 43 45 49 51 52 54 56 57 57 58 58 61 61 63 64 64 64 61 58 58 58 59 62 62 63 63 64 64 62 62 62 60 58 56 56 56 55 55 52 50
14 18 17 29 31 41 41 40 41 39 46 47 50 53 52 53 53 53 52 56 58 60 63 63 64 62 61 61 62 63 64 66 66 66 66 65 64 63 62 61 59 59 57 56 55 52 51 50 49
17 20 17 27 31 27 33 37 41 43 43 46 50 49 50 48 47 47 48 52 54 58 60 61 60 61 61 62 64 63 62 62 64 64 64 63 63 61 59 59 59 58 56 54 53 52 50 49 47
23 18 17 19 28 26 34 32 34 39 42 43 43 43 44 45 45 45 47 50 52 56 57 59 60 60 63 62 60 59 59 59 63 63 63 63 62 61 59 58 57 56 54 52 51 49 48 46 44
19 20 18 17 25 30 28 24 25 36 38 39 41 42 42 42 42 44 48 48 50 54 56 58 57 62 63 60 60 60 61 61 61 61 61 60 60 57 56 56 55 54 54 50 49 49 47 46 46
25 18 17 15 23 28 27 27 24 30 37 37 38 40 42 44 43 44 46 47 49 55 57 59 61 62 61 61 62 61 60 59 59 58 57 56 55 54 54 53 53 52 51 50 49 49 48 46 45
20 16 16 14 13 23 21 22 23 26 34 37 38 40 44 44 43 47 47 47 49 57 60 61 62 62 61 61 61 59 59 59 57 56 53 53 51 52 52 52 50 49 49 49 49 48 47 47 42
18 18 13 11 16 17 17 17 18 25 30 36 39 41 43 45 47 49 52 53 52 58 61 62 62 62 61 61 59 58 57 55 55 50 52 50 49 48 48 50 50 49 48 48 46 44 43 42 42
16 16 12 11 14 16 11 12 18 23 29 33 36 40 43 44 46 51 52 55 57 59 61 62 61 62 60 60 58 56 54 54 50 50 50 49 49 47 47 48 47 48 46 44 44 43 42 41 41
16 18 20 13 11 8 25 11 18 20 26 30 34 36 39 42 48 50 53 56 58 60 61 60 60 60 60 58 54 52 50 50 48 49 48 48 48 47 46 46 46 45 44 43 43 42 41 39 38
21 27 22 23 19 15 24 22 34 34 25 27 32 36 38 40 47 50 53 55 60 60 60 59 59 58 55 55 53 51 48 47 49 49 49 47 47 45 41 41 43 44 45 43 43 39 41 39 36
28 27 27 21 18 29 28 25 29 34 32 31 36 40 41 43 46 50 53 56 57 59 59 58 56 53 52 51 52 51 49 49 48 47 43 41 41 38 36 37 40 41 41 43 43 43 40 39 37
29 27 26 20 21 30 23 29 25 29 32 39 34 38 41 44 48 50 53 54 54 56 55 55 49 47 50 50 51 50 47 44 41 39 38 36 36 36 37 37 39 40 41 41 42 41 40 40 40
20 20 23 28 30 29 18 18 28 30 39 45 46 38 42 47 49 50 50 50 50 51 51 50 46 46 49 48 46 45 41 41 40 37 36 34 34 34 36 36 38 39 40 41 41 41 39 40 40
33 19 28 28 29 24 22 18 17 29 31 36 39 42 46 48 49 47 47 47 48 49 48 47 45 45 44 44 41 40 39 38 38 38 34 35 34 34 35 36 37 38 39 40 40 40 40 40 40
21 22 23 28 33 29 17 11 15 26 27 27 40 42 46 46 45 43 43 45 46 47 48 48 45 43 41 40 41 41 40 39 39 37 36 36 35 30 35 36 36 36 37 39 37 41 41 41 40
23 21 26 25 24 21 14 12 17 27 25 29 36 41 44 45 42 41 41 45 45 47 48 50 47 41 39 40 42 38 38 40 39 37 35 33 34 34 35 35 35 35 35 36 38 38 37 37 38
26 24 21 19 31 31 27 17 22 21 24 30 35 41 43 44 41 41 41 44 45 47 46 47 43 37 38 40 40 40 39 39 37 37 35 33 34 34 34 34 33 33 34 34 35 35 35 36 36
25 27 23 37 28 35 36 24 23 26 24 31 32 35 42 43 42 41 42 44 45 45 45 45 41 37 40 38 36 37 39 36 37 36 34 34 33 34 33 33 32 33 33 34 35 35 34 34 33

GFSSGP_sfc_dewp_027.txt.gz
Dewpoint
55 50 43 38 21 19 19 19 28 45 47 49 49 53 55 56 56 52 66 65 66 68 69 69 70 70 71 71 70 70 69 68 68 68 68 67 66 66 65 64 63 63 61 59 59 58 58 58 60
44 40 38 32 12 13 17 27 45 47 48 49 48 50 53 56 61 64 63 64 65 67 68 68 70 70 70 70 69 68 68 67 68 67 66 65 65 64 65 65 64 64 61 61 61 61 61 61 62
45 41 29 11 9 11 15 36 47 47 48 46 46 49 50 57 63 64 65 64 64 65 66 68 69 69 69 69 69 68 68 67 66 66 65 64 63 63 64 65 64 64 62 61 61 61 61 62 64
35 27 14 13 16 16 16 40 47 48 52 53 50 46 50 60 62 64 64 64 63 66 67 67 67 67 68 70 69 68 67 66 66 65 64 64 63 64 64 65 64 62 62 62 62 62 62 63 63
35 23 9 12 14 17 28 46 48 48 50 50 52 45 49 61 65 66 66 66 66 66 66 65 66 67 69 69 69 68 67 66 65 65 65 65 63 63 64 65 64 63 62 62 62 62 64 63 63
27 17 11 10 9 26 46 49 48 48 50 49 48 46 50 62 64 65 67 66 65 65 65 66 68 67 68 68 68 67 66 66 64 64 65 65 65 65 65 65 65 64 64 64 63 64 63 63 63
26 19 12 9 10 36 46 48 48 47 49 49 50 51 54 63 63 65 64 64 66 66 65 66 67 68 67 66 66 66 66 65 65 65 64 64 64 64 64 65 65 64 64 64 63 63 63 62 61
19 17 14 11 11 42 46 47 50 47 44 50 53 51 54 61 61 63 63 64 64 63 65 65 66 66 66 64 65 65 65 64 64 64 64 63 63 64 64 64 63 63 63 62 63 61 61 61 61
22 14 9 9 33 41 46 44 50 51 46 47 54 58 62 61 59 60 61 62 59 62 64 64 65 65 64 64 64 65 65 64 63 63 63 61 60 60 61 62 62 61 61 61 61 60 60 61 60
18 13 13 34 42 42 45 44 46 48 44 51 54 60 61 58 57 57 57 58 58 59 63 65 64 65 63 61 62 62 62 61 58 58 59 58 59 59 60 61 62 61 61 61 60 61 61 59 50
16 14 14 38 43 45 43 42 43 43 43 49 50 55 58 59 58 57 55 56 57 59 62 63 64 65 61 59 60 59 59 59 58 56 57 59 60 57 57 58 57 57 60 57 57 55 53 50 49
16 16 15 41 43 41 46 48 39 41 46 50 50 52 57 59 57 58 57 57 58 59 62 63 63 63 59 60 59 57 58 61 61 61 63 62 62 61 59 59 57 57 57 54 54 51 49 48 48
17 16 19 39 43 46 46 43 41 38 45 52 55 55 56 57 58 58 59 58 59 61 62 62 62 58 57 59 62 63 63 64 65 64 63 63 61 59 57 58 56 56 54 53 52 50 48 46 45
18 17 22 32 42 43 43 43 41 42 43 47 52 54 55 56 56 59 59 59 61 62 61 62 60 57 61 62 62 61 61 63 63 63 62 62 61 58 58 57 57 53 52 50 50 47 47 44 44
24 19 19 25 32 37 37 38 37 42 44 44 48 50 50 48 50 56 58 59 60 60 61 61 58 60 61 59 58 58 59 62 61 62 61 61 60 58 56 55 53 51 51 48 46 47 47 46 45
21 21 19 19 30 33 27 25 40 42 43 43 43 43 44 44 45 51 52 58 59 59 58 58 58 61 58 58 59 59 59 60 60 60 59 59 59 56 55 53 50 49 50 48 47 47 46 46 45
23 18 20 19 25 27 26 25 40 43 43 42 42 41 41 42 44 46 49 55 56 56 57 57 61 59 59 59 59 58 59 59 58 57 57 56 55 54 52 51 48 48 48 49 47 46 46 45 44
18 19 18 18 23 27 25 23 26 36 38 40 40 41 43 42 42 45 46 51 55 56 58 60 60 59 59 59 59 58 58 57 57 55 53 50 49 48 50 48 47 47 47 46 45 44 43 44 40
24 21 18 15 17 26 25 22 24 26 38 40 44 46 43 43 46 45 45 49 55 58 59 60 59 60 59 58 57 57 56 55 52 49 49 48 46 46 47 47 47 46 45 43 43 42 40 39 41
25 23 20 16 18 19 19 18 22 25 30 42 40 42 44 45 46 49 50 53 58 58 61 61 60 60 59 59 59 57 55 52 48 48 46 46 46 45 46 45 45 43 42 41 41 40 39 40 38
27 27 23 20 14 11 21 21 27 26 28 37 42 42 43 44 48 50 51 54 60 60 61 61 60 60 59 59 59 52 49 47 46 46 45 46 46 45 44 44 42 41 41 40 40 40 39 37 36
20 27 27 23 23 13 24 20 32 32 28 30 34 38 43 44 49 50 52 54 60 60 61 60 61 59 59 59 50 46 45 45 46 47 46 45 46 40 36 38 37 38 41 40 42 40 39 38 35
27 29 28 30 26 27 27 23 27 32 24 31 36 38 39 46 49 51 53 58 59 60 60 59 59 59 56 52 49 48 46 46 46 44 39 33 34 35 34 37 36 36 38 38 39 40 40 38 36
29 29 31 31 28 25 24 26 28 32 29 36 39 37 39 43 48 51 56 57 58 59 58 57 50 47 49 48 48 46 45 38 35 34 33 32 35 35 36 34 35 36 37 38 39 40 38 39 39
30 27 25 25 26 27 30 27 29 33 33 36 35 34 40 47 50 53 55 54 53 51 49 46 46 47 45 42 39 39 36 34 33 33 33 33 32 32 32 32 35 35 37 38 39 38 38 38 37
26 28 29 25 28 27 30 26 25 30 33 35 37 39 42 47 50 51 50 50 50 48 45 45 46 44 42 42 36 35 35 36 36 34 34 34 33 32 32 33 33 34 35 36 38 39 38 38 38
26 24 31 33 34 31 26 16 27 32 36 40 40 41 46 48 47 48 48 48 47 46 46 45 45 42 42 37 36 36 35 36 37 34 34 34 33 30 32 33 32 33 33 33 35 37 39 39 39
26 28 26 29 21 20 18 19 28 29 30 37 40 45 46 46 44 45 46 46 46 46 47 46 44 41 38 38 38 36 35 37 36 35 35 32 32 31 32 32 32 32 33 33 34 36 35 35 36
27 25 25 25 29 24 23 22 23 24 30 33 41 45 46 45 42 43 44 45 46 46 46 46 42 38 37 39 38 36 36 37 37 36 34 33 33 31 31 31 31 31 32 33 33 34 33 34 34
26 28 32 26 21 29 27 24 24 22 27 30 31 42 45 44 41 41 42 44 45 45 45 46 38 36 38 38 37 36 37 37 36 37 34 34 32 31 31 31 32 33 33 33 33 33 32 31 31

GFSSGP_sfc_dewp_030.txt.gz
Dewpoint
55 50 42 37 24 18 17 18 19 36 47 49 54 56 56 58 56 49 65 66 68 68 69 69 70 70 70 70 69 69 68 66 66 66 66 66 65 65 65 65 64 63 61 61 61 60 60 61 61
47 40 38 30 13 10 11 20 25 47 50 50 50 54 56 58 62 63 64 67 68 69 68 68 70 70 70 69 69 68 67 66 66 65 65 65 65 65 65 65 64 64 62 61 61 60 60 61 63
43 43 36 23 10 9 11 30 46 48 51 47 47 50 53 60 61 62 65 67 68 68 67 68 69 69 69 69 68 68 67 67 66 65 65 64 64 64 64 65 65 64 61 61 60 60 61 62 64
35 26 19 10 10 12 14 19 47 47 47 51 51 47 54 63 63 63 65 65 66 67 67 68 68 69 69 69 68 68 67 66 65 66 66 65 64 63 64 65 65 63 62 61 61 61 62 63 63
35 20 11 9 10 15 43 47 49 49 49 50 49 48 55 63 64 64 64 65 66 66 66 66 67 68 68 68 68 67 66 65 65 66 66 65 64 64 65 65 65 63 62 62 61 62 63 63 63
27 18 11 10 13 44 47 49 49 50 51 51 47 50 58 64 64 65 66 66 66 65 65 66 67 67 68 67 67 66 66 65 65 66 65 65 65 65 65 65 65 64 64 63 63 63 62 62 63
28 23 18 15 15 36 47 49 48 47 49 47 51 52 59 60 65 65 65 65 65 65 65 66 65 66 67 66 66 65 65 65 65 65 65 64 64 64 65 65 65 64 64 63 61 61 61 61 61
25 19 13 13 10 24 46 47 49 47 46 52 54 52 56 60 63 63 63 63 63 63 63 63 65 65 65 64 65 65 64 64 64 64 64 63 63 64 64 63 64 63 62 61 60 60 60 61 61
20 18 15 13 22 41 47 45 49 51 47 56 59 59 60 61 61 61 60 61 61 62 62 61 63 65 64 63 64 64 64 63 63 63 63 61 60 60 61 61 62 62 61 61 58 59 60 59 60
21 16 16 17 40 42 44 45 46 43 51 54 57 59 59 59 59 58 57 59 60 61 61 62 64 64 63 61 62 62 60 59 59 59 59 58 58 59 60 61 61 61 60 59 60 60 59 55 49
21 17 17 25 42 42 42 42 45 45 45 51 52 56 57 57 57 58 57 58 58 60 59 61 63 63 61 59 60 60 59 57 57 57 57 58 59 58 58 57 56 56 58 55 54 51 49 48 49
16 17 17 34 45 43 42 43 37 42 47 52 55 57 56 56 56 57 57 56 57 60 60 63 64 63 60 58 58 58 56 58 59 62 61 61 60 58 58 56 56 56 54 52 51 49 47 45 46
18 18 24 41 42 43 44 44 39 47 49 53 57 57 56 56 55 55 54 55 56 59 61 62 63 62 59 60 58 60 63 64 63 62 62 61 58 57 57 56 55 53 51 51 48 47 45 44 43
25 20 36 42 43 43 40 42 40 45 51 52 54 56 56 54 53 55 56 56 57 59 61 62 62 58 59 61 62 62 63 63 62 61 61 59 58 58 57 55 53 51 49 48 47 46 45 45 44
29 19 29 41 42 42 39 36 34 42 49 51 52 56 55 53 55 55 56 57 58 61 61 61 58 61 61 60 60 59 61 61 61 61 60 59 59 56 55 53 50 50 49 46 47 46 46 45 45
23 21 18 35 39 39 31 28 37 42 46 47 49 53 56 54 56 57 57 58 61 60 60 59 61 60 58 57 57 58 59 59 59 59 59 59 57 56 54 50 49 49 49 48 47 46 45 45 44
22 17 21 24 30 32 27 28 37 42 43 44 45 49 52 56 57 57 58 60 60 59 59 59 60 58 58 57 57 58 58 58 58 57 57 57 55 54 51 49 47 48 48 47 46 45 44 44 40
22 22 20 19 21 27 24 26 38 42 42 43 42 43 43 50 54 56 58 59 59 58 59 60 59 58 58 57 57 58 57 57 56 55 54 50 49 51 49 47 47 47 45 42 42 40 40 41 39
26 24 23 22 18 27 25 24 38 41 42 42 43 42 42 46 49 52 58 58 56 57 58 60 59 58 57 57 56 56 56 55 54 52 49 47 47 47 47 47 45 44 42 40 41 40 39 38 39
28 26 25 23 21 25 24 22 31 33 39 41 42 42 42 43 44 48 54 55 56 57 59 59 59 58 56 57 57 57 56 52 49 48 47 46 46 46 45 45 43 42 41 40 40 39 38 40 37
27 27 26 25 19 14 20 24 26 27 38 41 42 43 43 43 43 45 50 54 56 56 59 59 59 58 57 56 58 53 49 47 46 45 45 45 45 45 44 44 42 42 42 41 40 40 39 36 36
24 27 27 25 23 13 22 21 28 29 29 40 39 41 43 44 44 49 51 55 56 59 60 60 60 59 58 58 56 52 49 45 45 45 45 45 45 39 38 37 37 37 38 37 39 41 39 37 35
28 28 27 29 26 25 24 19 22 31 22 34 35 38 41 45 46 49 55 58 58 60 60 60 60 59 59 58 54 50 47 46 47 46 43 35 35 36 37 36 35 37 38 37 37 38 39 38 36
29 29 30 32 30 24 27 23 23 29 27 25 33 36 39 44 49 51 57 59 60 60 60 60 59 58 56 58 50 48 46 44 42 37 33 34 36 37 34 35 35 35 36 37 38 38 38 38 38
29 25 23 22 25 23 30 25 24 30 32 32 33 33 40 46 50 54 57 58 59 59 59 59 53 47 47 48 47 45 40 38 34 34 34 34 35 34 32 34 34 34 35 35 38 38 37 37 37
27 25 25 20 23 23 30 27 27 29 31 34 35 38 45 48 51 54 55 57 57 57 55 51 47 42 41 40 38 36 34 35 35 35 35 36 34 34 34 34 33 33 33 33 33 36 37 38 37
27 24 29 30 32 29 27 24 26 33 34 37 38 38 45 50 52 52 52 52 50 48 47 47 44 41 39 39 36 38 38 37 36 35 35 36 34 33 34 33 32 34 33 33 33 35 36 38 37
28 27 24 29 22 22 19 20 26 29 31 34 39 38 46 49 49 50 50 49 48 47 47 46 43 41 39 39 39 36 36 37 36 37 35 34 34 33 33 32 32 31 31 32 33 34 34 34 35
27 25 25 26 26 21 22 21 22 27 31 37 38 40 47 47 49 49 49 48 47 46 45 45 42 38 39 36 36 36 36 37 37 37 35 34 34 33 32 32 31 30 31 32 32 33 33 33 34
29 28 30 25 19 27 25 22 27 25 30 37 39 42 47 46 47 48 48 47 46 46 46 44 41 37 35 37 37 37 37 39 37 36 35 34 33 33 32 32 31 31 32 32 33 33 33 31 30

GFSSGP_sfc_dewp_033.txt.gz
Dewpoint
54 48 40 36 22 18 18 17 18 23 45 53 55 55 55 58 54 48 65 66 68 69 69 69 69 70 70 69 69 68 67 65 64 65 65 65 65 66 65 64 64 64 62 61 60 60 60 61 64
46 40 36 23 14 11 11 16 19 26 50 55 53 56 57 57 61 62 63 67 68 68 68 68 69 69 69 69 68 67 66 64 65 64 64 65 64 65 65 65 65 64 63 60 60 60 61 61 64
42 40 37 22 11 10 11 18 47 48 51 50 48 51 56 59 62 62 66 67 68 68 67 68 69 69 69 68 67 67 67 66 65 65 64 64 64 63 64 65 65 64 62 61 60 60 60 63 63
34 29 19 10 7 10 12 15 29 48 49 52 51 48 59 63 61 64 67 68 68 67 68 68 68 68 68 68 68 67 66 65 66 66 65 65 64 63 64 65 65 64 61 61 61 61 63 62 62
33 20 13 8 9 14 45 47 49 49 51 52 51 54 58 62 64 65 66 67 66 67 67 67 67 68 68 68 67 67 66 66 66 66 65 65 65 64 65 65 65 64 62 61 61 63 64 63 61
27 17 11 10 11 31 46 48 49 50 51 51 48 53 58 64 62 64 66 65 66 66 66 66 67 67 67 67 67 66 66 66 66 66 66 66 65 65 65 65 65 64 64 63 63 63 63 63 61
27 23 18 15 15 15 46 48 48 48 47 50 52 53 58 62 64 65 64 63 63 63 65 66 65 65 66 66 66 65 65 66 66 65 65 65 65 65 65 65 64 64 63 62 62 61 62 62 61
27 21 17 13 11 16 45 47 49 47 47 52 55 54 55 60 62 64 62 62 61 61 62 64 64 65 64 63 64 64 64 65 65 65 64 64 64 64 64 64 63 63 62 61 61 61 62 62 61
20 20 16 15 19 37 45 45 49 52 54 56 58 57 59 62 62 61 61 60 59 59 60 61 63 64 63 63 63 63 64 64 64 64 63 62 60 60 60 62 62 60 60 60 60 61 60 57 60
22 18 17 18 30 41 45 44 46 50 53 54 55 59 60 61 60 59 57 58 56 56 58 58 60 64 63 62 62 61 60 60 60 60 59 58 58 59 59 61 61 60 59 60 60 59 57 53 49
21 19 19 18 41 42 43 44 46 49 49 53 53 55 58 59 59 58 58 58 58 58 59 58 59 63 62 60 61 60 58 58 58 58 57 58 58 59 57 56 55 56 56 51 51 49 48 47 46
19 18 17 24 44 43 42 42 39 44 48 55 55 56 57 57 57 57 58 58 59 59 59 59 62 63 61 59 59 58 56 56 56 56 57 59 58 58 56 56 57 53 52 50 49 47 45 45 44
18 19 19 29 43 42 44 40 45 48 53 56 56 56 55 56 57 57 57 57 59 59 58 60 63 63 60 58 57 57 59 60 62 62 61 59 56 56 55 54 53 52 50 48 47 45 45 44 44
27 26 40 42 42 43 41 44 45 47 56 56 55 53 52 52 55 54 55 55 57 59 60 61 62 63 59 58 59 61 62 62 62 61 60 57 57 56 55 53 51 49 48 47 46 45 45 45 44
29 27 39 41 42 41 40 36 43 48 55 55 54 54 53 52 53 54 54 54 56 58 60 61 61 59 59 60 60 61 61 61 60 60 59 58 57 56 53 51 50 49 47 47 46 46 45 45 42
22 21 25 38 41 39 32 31 38 49 51 53 55 55 55 54 53 55 54 54 56 58 61 61 60 60 59 59 59 59 60 59 59 59 58 58 56 55 52 49 48 49 48 47 46 45 43 44 39
22 16 21 33 36 36 31 29 38 47 50 51 54 55 53 52 53 55 55 56 57 60 60 58 60 59 58 57 58 58 58 58 58 57 58 57 55 53 49 48 48 47 46 45 44 42 42 40 38
21 21 23 20 20 33 35 29 39 43 48 49 49 53 54 51 52 56 56 57 58 60 60 60 59 58 57 56 57 57 56 56 56 56 55 51 52 50 48 47 47 45 42 41 41 38 40 39 39
27 26 25 24 24 26 28 26 37 41 43 44 45 47 54 54 54 56 57 57 60 59 59 59 58 57 56 56 56 55 55 55 54 53 49 48 50 48 46 45 44 43 40 40 40 39 38 38 37
28 26 25 26 23 22 24 23 35 41 41 43 43 44 45 54 54 56 57 58 59 58 59 59 58 57 56 56 56 56 55 53 52 50 47 47 47 46 45 44 43 41 40 39 39 38 38 39 36
27 27 26 26 23 21 23 22 24 28 40 41 44 43 44 47 52 54 57 58 58 57 58 58 58 57 56 56 56 53 49 48 46 45 45 45 46 45 44 43 42 41 41 39 39 39 38 36 37
25 28 28 25 23 11 20 17 26 27 34 40 42 43 42 44 48 50 55 57 56 56 58 59 58 58 56 56 56 53 52 49 45 45 45 45 44 41 38 37 37 37 38 37 38 39 38 37 35
27 32 27 28 26 23 24 19 21 30 27 36 40 42 43 42 44 47 52 55 56 56 58 59 59 59 57 56 56 54 51 46 46 45 44 35 37 37 36 37 37 37 37 37 37 38 38 38 36
31 29 29 31 28 22 26 22 22 27 26 30 39 40 41 44 46 49 50 54 55 58 58 58 59 58 58 57 55 54 49 46 44 42 36 35 37 36 36 35 36 37 37 36 38 38 37 38 37
27 24 20 19 23 21 28 25 25 25 29 30 33 37 38 41 48 53 56 56 57 58 58 58 58 58 58 58 53 50 47 45 43 39 35 36 35 34 35 35 36 36 35 35 37 37 37 36 36
29 24 23 18 21 20 29 27 25 29 31 32 32 34 38 44 48 53 56 57 57 58 58 59 58 52 51 53 49 46 45 47 47 44 38 36 35 35 35 35 35 34 34 33 32 34 35 37 37
28 24 28 28 30 26 26 26 24 29 32 37 37 40 44 47 50 54 57 58 58 58 58 57 51 47 45 45 42 40 42 42 42 41 36 35 36 34 35 35 34 34 33 32 33 34 34 37 37
29 29 22 27 21 21 21 20 24 27 27 32 38 37 45 49 52 53 55 55 55 54 51 50 46 43 41 40 40 39 38 37 36 35 35 34 35 36 35 34 33 33 32 32 32 33 34 34 34
27 25 25 26 25 20 20 22 23 27 29 29 33 37 42 49 51 52 53 53 52 49 48 46 42 38 38 39 38 38 37 38 35 33 33 33 35 34 34 34 33 32 31 32 33 33 33 33 32
29 28 27 25 20 26 25 22 25 23 27 31 35 37 43 49 50 51 51 50 48 48 47 45 42 39 39 40 41 39 37 36 35 34 34 35 33 34 34 33 32 31 31 31 32 31 32 32 30

GFSSGP_sfc_dewp_036.txt.gz
Dewpoint
53 44 39 31 21 17 17 16 17 18 36 55 56 55 54 57 53 46 65 65 68 68 69 69 69 69 69 69 68 68 67 66 65 65 66 66 66 65 65 65 64 65 64 62 62 64 66 67 66
43 38 35 22 14 12 11 15 18 35 49 52 50 53 57 55 61 62 63 68 68 68 68 68 69 68 68 68 68 67 66 66 66 65 65 66 65 65 66 65 64 64 64 61 61 62 64 66 67
40 39 34 18 12 10 10 13 39 48 51 50 49 53 57 58 61 63 66 68 68 68 68 68 69 68 68 68 67 66 66 66 66 65 65 65 65 64 65 65 64 64 64 61 60 61 62 64 65
34 32 16 11 7 9 11 15 45 47 49 51 51 53 61 62 62 65 67 68 68 67 67 68 68 68 68 67 67 66 66 66 66 65 66 65 65 64 66 65 65 64 64 61 60 60 62 64 63
28 21 14 12 9 10 30 46 48 49 50 51 53 53 57 62 66 66 66 67 67 67 67 68 67 67 68 68 67 66 66 66 66 66 65 66 66 65 66 65 65 64 64 63 62 63 62 63 62
26 17 11 10 10 13 46 48 48 49 50 50 53 54 57 63 64 64 64 64 66 66 67 67 68 67 67 67 66 66 67 66 66 66 66 66 66 66 65 65 65 64 64 64 64 63 62 62 62
26 22 16 14 15 14 44 48 47 47 48 49 52 54 58 62 62 61 62 62 63 65 65 65 64 62 66 66 66 66 66 66 66 66 66 66 65 65 64 64 64 64 63 63 64 64 62 62 62
27 21 19 14 12 13 43 47 48 47 48 54 58 53 55 61 61 60 61 61 61 62 64 62 62 62 64 63 65 65 66 66 66 66 65 64 64 64 64 63 64 63 62 62 63 63 62 61 61
22 21 16 15 18 22 45 45 49 55 54 55 57 58 60 62 61 59 59 59 60 61 61 60 61 63 62 61 63 64 65 65 64 64 63 61 60 60 58 61 61 61 61 61 62 61 60 60 59
22 19 18 19 17 37 45 43 47 52 52 53 56 60 61 61 60 59 56 56 56 58 59 61 61 62 62 61 60 60 61 61 61 60 58 58 58 57 59 60 60 61 61 62 59 58 56 51 48
21 19 20 19 22 42 44 43 47 52 49 52 54 57 59 60 59 57 55 55 55 56 57 59 60 63 62 61 59 59 58 59 58 58 57 57 59 58 56 55 56 54 54 49 48 47 46 45 45
21 20 19 19 43 42 41 43 43 46 49 55 55 57 58 57 58 58 55 55 56 56 56 58 59 62 61 61 59 58 56 57 57 57 57 59 58 57 56 57 54 52 50 48 47 46 46 45 44
20 18 22 28 43 43 43 43 46 51 55 55 56 55 56 57 57 57 59 56 57 58 57 56 59 62 61 59 58 57 56 57 58 58 59 59 57 56 55 54 52 50 49 47 46 45 45 44 42
26 29 37 42 42 43 46 46 46 51 55 55 55 55 56 56 56 57 58 58 58 58 58 56 59 63 60 58 57 57 59 59 61 61 60 56 56 55 53 52 50 48 47 46 46 45 45 43 41
30 33 36 41 41 41 41 36 45 53 55 54 54 53 52 55 54 55 55 56 58 58 58 59 61 62 59 58 57 58 59 60 59 59 57 56 56 55 52 50 49 47 47 47 46 45 45 42 39
21 22 24 37 40 40 35 32 46 54 53 52 53 53 54 52 53 54 54 54 56 58 59 61 61 60 59 57 58 58 59 59 59 58 58 57 56 54 50 49 48 48 47 46 45 44 43 40 39
23 16 22 35 39 37 32 34 44 52 53 52 53 54 55 54 52 55 54 54 55 58 60 60 60 59 58 57 58 58 59 58 58 58 58 57 55 52 49 48 48 47 46 44 42 42 41 38 38
22 22 26 22 24 36 35 30 43 49 51 52 53 54 55 53 53 54 54 55 56 58 60 59 59 58 57 57 57 57 56 56 57 57 57 55 54 50 48 48 46 44 42 41 39 39 40 39 39
26 26 25 24 25 26 32 33 40 46 48 50 51 52 54 52 52 53 55 56 57 59 59 59 57 57 57 56 55 54 54 55 54 54 51 52 50 48 47 46 44 43 41 40 39 39 37 39 37
28 25 24 25 23 24 25 29 39 43 46 48 49 49 51 53 52 52 56 56 57 59 59 58 58 57 57 57 55 55 54 53 53 50 47 49 47 46 45 44 42 41 40 40 39 39 38 39 37
25 25 25 25 26 23 23 23 36 37 42 44 47 47 49 51 53 53 56 56 57 59 59 59 58 57 56 56 55 52 50 49 48 46 45 46 46 45 44 43 42 41 40 38 39 39 38 36 37
25 27 28 27 23 14 21 14 25 32 39 40 42 44 44 47 51 54 55 56 57 58 58 59 58 57 56 56 55 53 53 50 48 46 45 45 45 42 40 38 37 37 38 37 38 38 39 38 36
26 30 29 27 25 23 23 18 19 29 30 38 39 42 43 44 46 51 54 56 58 57 57 58 58 57 57 56 56 54 52 52 50 45 44 39 38 37 37 37 37 37 38 37 39 39 39 38 36
31 28 25 29 27 22 24 22 22 28 27 32 37 41 43 43 44 48 51 55 57 56 57 57 58 58 57 56 55 54 51 48 48 45 39 37 37 36 36 35 36 36 36 37 39 38 37 37 37
27 23 20 18 23 22 27 25 25 25 27 30 31 37 41 43 43 46 48 53 55 55 56 57 58 58 58 57 55 53 51 50 48 44 39 37 36 36 35 35 36 36 36 38 37 37 37 36 36
26 23 22 16 20 18 27 24 22 28 32 34 33 32 40 42 44 45 48 51 54 56 57 57 58 58 58 57 56 54 54 50 49 45 40 39 36 37 37 37 38 39 37 35 34 34 34 35 37
27 24 26 27 28 25 24 25 21 29 35 36 35 37 36 40 44 46 50 53 55 56 57 57 58 58 57 57 54 52 51 50 47 44 42 37 36 35 36 41 39 37 34 33 34 34 34 36 37
27 29 23 25 19 19 21 19 20 24 26 35 36 37 39 44 48 50 54 55 56 56 57 57 58 56 53 52 51 49 48 48 47 43 39 37 35 35 40 38 35 35 34 33 34 34 35 36 35
26 25 25 25 25 20 18 20 24 24 28 29 30 36 38 45 49 52 54 56 56 56 55 55 53 49 45 45 44 44 44 46 45 43 40 37 35 37 38 34 34 34 33 33 32 33 34 33 33
27 26 27 24 20 26 24 22 25 23 23 26 29 33 38 44 49 51 52 52 53 53 52 52 49 45 44 45 44 45 44 43 41 38 34 35 34 37 34 35 34 33 32 32 32 33 32 33 32

GFSSGP_sfc_dewp_039.txt.gz
Dewpoint
53 42 39 30 20 20 14 14 17 19 31 54 57 54 53 55 52 48 65 66 68 67 66 67 69 69 70 69 69 68 68 67 66 67 67 67 66 66 66 66 65 65 65 66 67 66 65 65 66
43 37 35 26 17 11 9 15 19 46 47 52 51 55 55 55 59 61 63 67 68 67 65 65 68 68 69 68 68 68 67 66 66 67 67 66 66 66 66 65 65 65 66 66 67 67 66 66 68
40 37 34 25 17 11 12 14 36 48 50 50 49 56 57 57 60 62 66 67 68 67 66 66 68 68 68 68 67 66 66 66 66 66 66 66 67 66 66 65 64 65 65 64 65 66 67 67 66
35 34 18 16 13 12 13 15 45 46 48 50 51 54 60 62 63 65 67 68 68 67 66 68 68 68 67 67 67 66 66 66 66 65 66 67 66 66 66 65 65 65 64 62 62 64 65 65 65
27 24 21 14 11 11 13 42 48 48 48 51 52 54 56 62 66 67 67 67 67 67 68 68 67 67 67 67 67 66 66 66 66 66 66 66 66 66 66 65 65 65 64 63 63 63 64 64 64
27 20 16 12 12 12 34 47 48 49 49 51 52 53 57 63 62 64 65 66 67 67 67 67 67 67 67 66 66 66 67 66 66 66 66 67 66 66 66 65 65 65 65 64 63 64 63 63 63
27 24 18 16 16 15 38 48 47 47 47 47 54 53 59 60 62 62 63 63 66 66 65 64 65 65 66 66 66 66 66 66 66 66 66 66 65 65 65 64 64 64 65 64 63 63 63 63 63
28 23 18 17 13 14 40 47 48 47 48 56 57 52 55 59 61 62 62 63 63 64 62 60 60 61 64 65 66 66 66 66 66 66 65 64 64 64 64 63 63 63 63 64 63 62 63 63 60
23 23 18 17 16 20 45 45 50 55 53 55 56 57 59 60 60 59 60 60 59 59 58 57 56 61 63 63 65 65 66 66 65 64 63 61 57 58 58 61 61 62 63 63 63 61 60 59 58
24 23 20 20 19 29 43 44 48 51 52 52 55 60 60 59 58 57 58 57 57 56 56 57 61 61 62 60 63 63 63 62 60 58 59 57 60 58 57 59 61 61 62 61 60 58 56 52 46
23 22 22 20 20 38 43 44 46 49 48 51 52 56 59 59 57 57 57 56 55 56 57 58 60 62 62 61 61 61 60 59 59 60 59 60 59 59 57 57 57 58 55 49 49 48 45 48 45
22 22 22 20 40 43 43 44 49 47 49 54 55 57 59 57 56 56 56 56 56 56 56 59 58 59 60 62 58 59 57 57 57 58 60 60 59 58 57 57 54 53 50 50 49 48 49 48 46
22 20 24 34 42 42 43 43 47 50 54 56 56 57 57 57 55 55 56 55 56 55 56 56 58 58 62 61 59 58 58 58 60 59 60 60 60 59 58 56 53 51 49 49 48 48 46 46 44
26 28 39 43 42 43 44 47 45 52 55 55 54 53 55 56 56 56 56 55 54 54 56 57 57 59 62 60 59 58 58 58 59 58 61 61 61 59 57 54 51 50 49 49 48 47 45 43 43
29 31 36 41 41 43 41 36 44 53 54 54 54 54 56 55 56 57 55 56 56 56 56 56 58 62 63 60 59 58 58 59 59 61 62 60 60 58 56 54 50 50 50 50 49 48 46 43 40
21 24 23 37 40 41 32 31 46 54 52 52 53 52 52 55 56 57 57 57 58 56 56 56 58 61 63 60 59 59 61 62 62 62 61 59 59 57 55 52 50 51 50 49 48 46 43 42 40
25 19 25 35 39 39 34 33 44 53 51 49 51 51 53 52 54 55 56 57 58 58 58 57 59 61 63 61 60 61 61 62 62 62 61 60 58 56 54 51 51 51 49 48 45 45 43 40 39
23 23 24 23 27 37 37 32 46 51 50 49 50 51 53 53 51 54 55 55 56 58 59 59 61 62 62 61 60 60 61 61 62 62 61 59 57 54 52 51 51 48 46 45 43 43 43 41 40
27 25 24 25 25 31 35 34 42 49 50 50 50 51 53 53 54 53 55 56 56 57 59 59 61 62 60 60 59 59 60 61 61 60 60 58 55 52 52 49 48 47 45 44 45 43 43 41 42
27 25 24 26 23 26 24 27 36 46 48 49 50 51 52 53 53 53 54 55 56 56 58 61 61 61 60 60 58 58 59 58 58 57 55 56 53 51 50 48 46 45 44 45 45 44 41 42 41
26 25 25 25 26 24 25 24 32 41 45 47 49 50 51 52 53 52 54 55 56 56 58 60 60 60 59 59 58 56 55 54 54 52 51 52 51 49 48 48 45 45 45 42 43 42 42 37 40
24 26 27 27 24 18 23 16 22 34 40 43 46 48 49 50 52 53 53 55 56 56 58 59 60 60 59 59 58 57 56 54 54 52 49 49 49 48 46 45 45 43 41 41 41 40 41 40 36
26 30 29 27 25 24 24 19 20 29 33 40 43 45 47 49 50 52 54 54 56 58 60 60 60 60 59 59 59 59 57 57 54 50 49 48 47 46 43 42 42 41 39 41 42 43 42 41 41
30 28 26 29 28 24 24 23 22 26 28 33 39 44 44 46 48 49 53 56 56 59 60 61 60 59 59 58 58 57 57 54 52 48 46 45 43 41 41 39 40 40 39 41 42 43 43 41 40
28 26 23 20 26 23 28 25 26 27 28 30 33 37 43 45 47 47 49 53 56 58 59 60 59 59 59 58 57 57 56 54 52 49 46 44 42 40 39 39 39 38 39 41 42 41 41 41 39
28 26 26 17 21 19 27 23 20 29 30 34 36 35 35 42 46 46 47 50 55 57 59 59 59 59 58 58 58 57 56 54 54 51 47 44 42 40 39 39 39 39 39 39 39 39 38 39 39
27 25 27 29 30 27 24 25 24 27 31 34 36 37 35 38 43 45 47 49 53 57 58 59 59 59 59 59 58 57 56 55 53 50 47 46 42 39 40 40 41 41 39 38 37 37 37 39 41
29 29 27 28 23 21 21 21 18 23 26 30 33 36 38 42 41 45 47 50 52 56 57 59 59 58 59 59 58 57 57 56 53 49 46 45 42 40 39 41 42 38 37 37 37 36 36 38 39
28 27 27 26 27 22 20 20 28 25 27 31 32 33 39 41 45 47 49 53 54 56 57 57 58 58 58 57 57 57 55 54 52 50 47 44 42 40 38 41 38 37 35 35 35 35 35 36 37
28 30 29 30 23 27 27 22 26 29 27 27 29 31 38 40 44 48 52 54 56 57 57 57 57 57 56 55 53 53 53 51 50 49 47 44 42 39 38 38 36 36 34 34 34 34 36 35 35

GFSSGP_sfc_dewp_042.txt.gz
Dewpoint
52 39 32 30 18 13 12 10 13 16 28 47 52 51 49 54 52 48 64 66 66 64 62 67 70 70 70 70 70 69 69 68 67 67 67 67 66 67 66 66 66 67 66 66 65 66 66 65 65
34 31 31 22 11 9 8 12 14 32 38 52 52 54 51 53 58 61 64 66 66 64 62 62 70 69 69 69 69 68 67 67 67 67 67 66 67 67 67 66 67 68 68 66 66 66 66 65 66
39 35 26 18 11 6 8 13 25 35 45 45 48 54 55 55 58 61 64 67 66 64 62 64 69 69 69 68 68 67 67 67 67 67 67 67 67 67 67 66 66 68 69 68 66 67 67 66 66
31 30 22 12 9 9 11 13 29 34 43 47 47 50 57 61 61 61 65 68 67 65 63 67 68 68 68 68 67 66 66 66 66 66 67 67 67 67 66 66 65 66 67 67 67 66 65 65 65
27 23 16 11 9 10 11 13 36 38 45 47 49 51 55 63 65 65 66 68 66 67 67 67 67 67 68 68 67 66 66 66 66 66 66 67 67 67 66 66 65 65 66 65 65 64 64 64 64
23 20 12 8 7 9 12 32 39 45 47 49 49 51 56 63 64 66 67 68 67 67 68 67 67 67 67 66 66 66 66 66 66 66 66 67 67 67 67 66 65 65 65 65 65 64 64 64 63
22 17 12 10 11 18 32 45 45 45 45 45 51 49 58 61 63 64 66 67 67 67 66 66 66 65 66 66 66 66 66 66 66 66 66 66 66 65 65 65 65 65 63 64 64 64 63 62 62
24 20 12 14 19 21 31 44 47 46 45 53 54 48 55 60 62 63 62 64 63 64 64 63 62 61 61 65 66 66 66 66 66 66 65 64 64 64 64 64 65 65 64 63 64 64 63 61 59
24 18 13 15 16 18 38 36 48 51 48 52 55 56 59 61 62 60 59 59 59 59 61 61 60 61 60 62 65 66 66 66 65 64 63 59 53 54 55 61 63 64 64 63 63 63 61 60 58
23 18 15 17 18 19 27 36 44 48 47 49 55 59 60 60 60 59 57 56 55 56 58 59 57 59 60 63 63 62 60 57 59 58 56 52 56 54 53 59 63 63 62 61 60 58 57 55 47
23 20 21 20 20 21 30 41 45 44 42 47 51 57 59 58 59 58 57 57 54 55 56 56 56 57 60 62 63 61 59 60 57 59 56 57 56 56 55 56 56 56 57 50 50 49 48 49 47
22 23 23 22 30 33 38 43 45 45 51 53 56 58 58 57 57 57 56 55 54 55 57 54 54 54 59 61 59 57 54 54 54 55 57 57 55 56 56 55 57 56 54 53 51 50 51 50 48
24 24 26 32 33 41 42 41 44 51 54 55 57 57 57 57 56 56 55 55 55 54 56 56 57 57 57 58 60 59 57 55 54 56 56 55 54 56 56 56 55 54 53 51 50 50 48 48 47
27 27 37 38 39 39 40 43 44 52 53 52 53 54 56 55 55 56 56 54 53 54 54 57 56 56 59 56 57 58 57 55 56 54 57 59 56 58 57 57 54 52 51 51 50 49 48 47 46
27 28 35 37 40 40 41 36 44 51 50 50 50 53 55 54 54 54 55 55 52 51 53 53 56 56 57 58 57 54 55 54 54 55 62 61 61 60 59 56 54 52 52 53 52 50 48 45 43
24 25 21 29 39 39 39 30 46 49 48 48 49 48 53 55 54 54 54 53 51 52 54 55 54 57 61 60 57 52 54 55 53 58 61 63 61 60 59 56 54 53 53 51 50 48 46 45 42
24 17 20 23 37 37 36 29 42 49 46 44 46 46 49 54 54 54 54 53 53 53 54 57 57 57 62 62 58 57 57 55 55 60 60 62 60 59 57 55 54 55 52 51 49 47 47 42 39
16 18 21 23 30 36 34 31 39 46 45 42 44 45 46 51 54 56 55 54 54 54 55 55 57 60 62 62 59 54 52 54 59 61 61 61 59 58 57 54 55 53 51 49 47 47 42 41 39
23 19 19 21 24 27 26 28 32 43 46 44 43 45 47 47 49 54 56 57 56 56 56 56 58 60 60 61 58 54 52 55 60 62 62 61 59 58 57 54 54 52 50 49 49 45 43 40 39
26 22 21 24 25 25 21 22 28 39 45 45 43 44 46 47 49 50 54 55 56 56 58 58 57 58 60 59 59 54 55 54 57 60 61 61 60 57 56 54 52 51 48 49 47 45 41 39 41
26 24 24 23 26 24 24 21 28 36 43 45 46 44 45 46 48 50 50 53 55 55 56 57 57 59 60 59 58 55 57 59 59 60 60 59 59 56 54 54 51 50 48 46 46 43 39 39 41
23 25 25 26 25 18 24 15 22 28 37 42 43 46 44 46 48 48 50 50 52 54 56 56 57 59 59 60 58 57 54 53 56 58 57 56 57 55 52 52 51 50 47 45 43 38 41 41 39
24 28 27 27 24 24 21 16 19 26 24 31 39 43 45 43 46 48 50 50 51 54 56 57 57 59 59 60 60 59 58 56 57 57 55 55 55 53 51 51 50 49 45 44 41 43 42 42 43
30 28 28 29 26 22 20 19 18 18 18 22 29 37 43 45 46 47 48 51 52 54 56 57 57 58 60 61 61 61 61 59 59 56 53 52 52 51 50 48 48 47 43 43 43 44 44 42 40
28 27 24 21 23 22 26 22 20 21 25 28 29 30 38 43 46 47 47 49 52 54 57 58 57 56 60 61 61 61 61 61 58 57 54 51 51 50 49 47 46 43 42 42 44 44 43 41 40
26 26 25 17 20 19 25 19 19 25 28 30 33 35 36 36 43 45 48 49 51 54 57 59 58 58 60 61 59 60 60 60 59 59 56 52 50 49 47 46 44 41 41 43 43 42 41 40 38
28 26 26 26 31 24 18 19 21 24 25 27 30 35 36 36 36 40 45 48 50 54 57 60 59 59 59 60 60 59 59 59 58 58 56 52 50 47 46 44 41 42 42 43 41 40 38 37 39
29 28 26 26 21 18 18 18 14 19 19 24 23 28 34 38 38 41 43 45 49 52 56 60 60 58 59 61 60 59 59 59 58 57 55 51 48 45 44 42 41 42 42 40 39 38 37 37 39
29 27 27 25 26 21 19 17 21 20 22 26 27 29 33 36 40 43 45 48 50 52 54 57 57 57 58 59 59 59 59 59 58 57 55 52 50 47 43 41 41 42 39 38 37 38 34 37 39
24 25 27 26 22 28 29 21 21 24 27 27 27 29 33 38 39 43 47 51 52 53 54 55 56 56 57 59 59 59 58 57 57 55 54 51 48 44 43 42 42 38 37 37 38 37 35 41 39

GFSSGP_sfc_dewp_045.txt.gz
Dewpoint
55 46 34 24 17 14 9 9 9 15 19 33 41 39 41 44 43 48 65 65 63 62 64 68 71 71 71 71 71 70 70 69 68 68 68 67 67 67 67 67 67 68 68 67 65 64 64 64 64
38 27 26 21 14 6 7 6 9 12 31 37 44 45 42 47 56 61 64 66 64 63 63 68 70 70 71 70 70 69 68 68 68 68 67 67 68 68 68 68 68 68 68 67 65 64 64 64 64
38 29 24 20 13 6 3 10 11 26 32 32 36 46 47 52 56 60 64 67 66 65 62 69 70 70 70 69 69 68 67 67 67 67 68 68 68 68 68 69 69 69 68 67 65 64 64 64 65
28 27 21 10 8 9 7 13 13 21 27 34 33 42 55 60 60 59 65 68 67 65 64 68 69 69 69 68 68 67 67 66 66 67 67 68 67 67 67 69 69 69 68 67 65 64 63 65 65
25 20 15 14 9 7 8 9 12 26 30 37 40 40 50 62 64 64 66 67 67 65 67 67 67 68 68 68 67 67 67 66 67 67 67 67 67 67 67 67 68 68 68 66 64 63 64 65 64
22 18 11 8 7 6 8 14 25 27 36 42 43 41 58 63 63 66 67 67 68 67 67 67 68 67 67 67 67 67 66 67 67 67 67 67 67 67 66 66 67 67 67 65 65 64 64 63 62
21 17 13 9 8 18 28 38 40 38 37 41 48 44 57 61 63 65 66 67 67 67 66 66 65 67 66 66 66 66 66 67 67 67 67 67 66 66 65 65 65 66 65 65 64 64 63 62 61
18 17 12 9 20 27 29 31 41 41 43 49 50 45 51 61 62 62 63 64 65 65 64 62 62 65 66 65 66 66 67 67 67 66 65 65 64 64 65 64 64 64 65 65 64 63 62 61 60
19 16 12 12 15 18 25 30 39 45 44 48 52 56 59 61 61 59 59 59 61 62 62 61 59 58 61 65 66 66 67 66 65 64 63 61 56 54 56 62 64 64 64 64 63 62 61 60 59
19 17 15 16 18 19 24 31 39 44 39 44 55 58 59 61 60 59 57 56 57 59 59 58 56 56 57 57 61 62 62 60 59 58 59 55 58 56 55 61 63 63 63 63 62 61 60 57 47
20 18 19 18 23 24 25 31 40 40 42 50 50 58 59 60 59 59 57 57 56 57 57 58 57 57 59 60 62 62 59 58 58 59 59 59 58 58 55 57 55 57 58 51 51 51 50 52 49
20 21 20 21 23 27 34 34 39 40 49 53 56 58 58 58 57 57 55 54 54 54 55 56 58 58 59 59 60 62 58 58 58 59 62 61 56 59 57 54 55 55 54 53 53 51 54 52 51
22 22 25 29 29 36 39 38 42 48 52 56 58 57 57 57 57 56 55 54 54 53 53 54 56 57 58 59 59 59 56 55 55 57 58 59 57 59 56 56 56 55 55 54 53 52 51 51 49
24 23 30 31 33 36 36 38 42 48 49 52 53 55 56 56 56 55 54 54 55 52 52 54 56 57 56 55 58 60 61 58 59 57 59 61 56 59 55 56 55 55 54 53 52 51 51 49 47
23 22 29 29 32 33 38 39 37 47 46 45 49 54 54 55 56 55 53 54 54 54 55 56 55 54 53 54 54 54 60 57 58 57 62 59 60 61 59 57 56 55 54 54 53 53 51 47 43
19 22 26 26 31 34 40 39 40 44 44 44 43 50 52 53 54 55 54 52 53 54 52 51 47 49 57 56 54 52 55 55 52 53 57 61 58 59 60 57 56 56 55 54 53 52 49 45 44
20 19 25 26 27 35 31 36 40 42 41 43 41 46 51 49 53 53 53 52 50 51 50 51 55 56 58 58 56 55 56 53 50 54 55 61 61 61 60 57 57 57 54 54 53 51 49 45 41
14 15 18 25 40 27 27 30 37 41 38 41 40 44 48 46 50 52 52 49 49 51 52 53 55 57 60 62 56 53 51 53 52 52 55 60 60 60 60 57 57 57 54 53 52 51 47 43 41
18 17 19 24 21 21 23 22 32 39 41 38 41 41 45 48 49 53 52 52 52 53 54 54 55 56 60 59 54 51 50 50 51 54 56 59 59 59 59 56 57 57 54 53 53 50 47 43 41
20 18 16 18 21 22 21 23 22 35 38 38 37 41 41 43 49 53 53 51 54 53 53 54 54 55 59 60 57 53 51 48 51 54 60 61 60 59 58 58 56 56 53 53 52 49 45 43 42
22 22 23 19 24 22 21 19 19 27 36 38 38 38 42 42 44 49 51 52 53 52 53 53 54 56 57 56 56 54 51 51 50 53 56 61 60 59 58 58 56 55 54 52 51 49 47 41 44
21 21 21 22 21 19 25 20 30 25 31 37 38 38 39 41 43 44 47 52 53 54 55 55 55 55 57 57 57 55 50 51 54 57 58 59 61 60 57 56 56 55 53 52 51 47 46 44 44
22 25 24 24 24 23 19 13 24 20 23 30 36 38 38 40 42 44 45 45 51 54 55 56 56 55 56 57 57 58 55 53 54 56 59 60 59 59 56 56 56 55 53 52 51 47 46 45 44
25 26 26 26 25 24 19 17 24 18 16 17 29 35 38 38 40 43 45 46 46 49 55 58 55 55 56 57 58 58 58 57 58 60 58 56 57 57 56 54 55 55 53 51 47 46 49 45 45
26 26 24 23 23 23 25 18 19 32 19 21 23 26 35 39 40 41 42 45 47 49 53 55 54 53 56 59 60 60 61 61 60 61 59 57 57 56 55 55 54 52 51 50 46 48 47 46 42
26 26 26 27 22 20 24 16 17 22 23 24 26 29 30 35 40 41 41 43 47 50 52 55 54 54 54 59 61 62 62 62 62 61 60 58 58 56 56 54 51 49 49 47 47 46 44 44 44
25 25 26 27 26 24 19 18 17 18 18 21 24 29 33 34 35 39 41 43 45 49 54 58 57 55 56 60 61 62 61 60 61 61 60 59 57 55 53 51 48 47 45 47 46 43 40 43 43
26 26 26 26 23 23 16 17 16 19 18 19 20 24 29 35 35 35 38 42 45 48 54 60 59 58 58 61 61 60 60 60 60 60 59 57 56 52 49 48 46 45 44 45 44 41 38 40 44
25 27 26 24 26 26 22 18 23 19 20 20 23 23 26 28 38 40 40 41 44 48 51 55 58 58 59 60 60 60 58 59 60 60 59 57 54 51 48 47 45 44 45 44 41 38 38 40 42
25 25 26 27 24 27 28 23 23 22 22 24 25 25 27 30 33 39 44 47 48 49 50 54 57 57 57 60 60 60 59 58 59 59 58 56 54 52 48 45 43 45 43 41 39 39 37 39 42

GFSSGP_sfc_dewp_048.txt.gz
Dewpoint
55 50 43 36 20 18 13 9 9 6 22 41 44 48 48 44 43 46 60 61 62 63 69 70 71 71 71 71 71 71 70 69 69 69 68 68 68 69 69 69 69 69 66 64 64 63 62 61 62
44 42 32 23 18 14 7 8 5 19 38 38 37 47 46 43 52 59 62 59 61 67 68 70 71 71 71 71 70 70 69 69 69 68 68 68 68 68 69 68 68 68 67 64 64 63 62 62 64
44 34 25 22 19 12 8 13 15 18 31 33 34 34 42 54 54 61 65 65 66 65 66 69 70 70 70 70 69 69 68 68 68 67 68 68 69 69 69 68 68 68 67 64 64 63 63 64 65
34 28 24 17 8 8 7 14 16 15 20 29 36 27 56 62 61 60 65 65 65 64 67 69 68 69 69 69 69 68 68 67 67 67 68 68 69 70 70 69 68 68 67 64 63 63 63 65 64
29 22 17 15 13 13 7 10 11 13 21 39 41 38 55 62 65 65 66 64 65 67 69 68 68 68 68 69 68 68 67 67 67 67 67 68 68 69 69 69 68 68 67 64 63 63 64 64 62
25 22 15 10 12 13 33 37 39 22 22 40 44 46 48 61 63 66 67 67 67 68 68 68 68 68 68 68 67 67 67 67 67 67 67 68 67 68 68 69 68 67 66 65 65 65 64 63 62
21 19 14 12 18 24 35 40 41 42 44 49 49 47 48 56 61 65 67 67 67 67 67 67 67 67 67 66 66 66 67 67 67 67 67 67 66 66 67 68 67 66 65 65 64 64 63 63 61
20 15 13 12 14 23 26 34 42 34 46 53 50 48 53 60 62 63 64 65 65 65 64 64 65 64 64 64 66 66 67 67 67 66 65 65 64 65 65 66 65 65 65 64 64 64 63 62 60
18 16 16 17 20 20 22 24 31 47 41 50 51 56 60 61 61 60 60 61 62 62 62 62 62 62 63 64 65 66 67 66 65 64 63 60 57 57 59 64 65 65 64 64 63 62 61 59 57
16 17 20 17 17 19 21 24 43 48 45 46 47 51 59 59 60 57 57 58 59 58 60 62 60 59 59 62 63 64 64 62 62 59 59 56 57 57 59 63 64 64 64 63 62 61 60 58 49
17 17 19 18 21 21 21 26 30 37 46 46 48 56 58 58 59 58 56 56 58 57 57 57 59 58 58 59 60 61 62 60 60 60 59 60 58 58 60 60 58 60 60 55 56 57 53 53 52
17 17 20 19 24 23 23 34 37 46 54 52 55 58 58 57 57 56 55 55 56 57 55 56 57 57 57 58 59 60 60 59 59 59 61 61 59 58 58 57 58 57 55 53 54 54 56 53 52
18 18 20 26 27 25 30 38 43 49 55 56 56 56 57 56 55 55 54 54 54 54 55 57 57 57 57 56 59 59 59 58 58 57 60 60 59 59 58 58 57 56 57 55 56 55 53 52 50
19 22 20 28 27 31 41 45 46 49 50 53 54 55 55 55 55 54 54 53 53 53 54 56 57 57 57 56 55 58 58 58 55 55 60 59 60 59 59 60 59 59 57 57 55 54 53 52 50
20 17 19 27 29 30 38 37 42 42 45 49 52 53 55 54 54 53 54 52 52 52 54 56 56 57 57 56 58 58 57 58 60 59 60 60 61 59 61 59 60 58 58 57 56 54 54 50 48
20 19 17 24 32 39 37 37 39 42 42 42 51 52 53 51 54 53 53 51 52 52 55 54 55 55 56 57 57 55 55 58 59 59 61 60 61 60 60 61 59 59 58 57 56 54 53 51 48
20 15 20 22 30 32 42 42 45 45 41 39 47 48 51 53 53 53 53 52 53 52 54 53 53 53 53 53 46 49 53 57 57 57 58 61 61 61 61 60 60 59 58 57 56 55 53 49 46
16 15 16 25 30 28 30 41 47 50 38 39 42 47 48 48 50 52 51 52 52 52 53 51 50 51 54 55 47 50 54 55 56 55 55 60 61 62 62 61 60 59 57 57 55 53 51 49 46
14 15 21 25 27 31 21 24 42 44 41 39 40 45 45 48 51 51 50 52 52 50 51 50 48 51 57 56 53 55 53 55 55 55 55 60 60 61 61 61 60 59 57 56 56 53 50 45 44
16 15 17 16 24 21 16 20 38 45 43 37 39 43 44 46 51 50 49 50 51 51 51 53 54 54 56 57 57 55 54 52 53 55 57 61 61 60 60 60 59 58 57 56 55 52 49 48 46
18 17 19 24 23 23 21 17 26 35 34 35 38 41 44 45 49 51 50 50 51 53 53 54 54 54 56 59 58 56 54 53 51 53 59 61 61 60 60 60 60 59 58 56 54 53 50 46 46
17 19 19 21 20 16 23 19 22 24 35 33 35 39 41 42 49 51 52 52 53 53 54 55 54 54 55 59 58 57 52 51 51 53 57 60 61 61 60 60 59 58 57 55 54 52 50 48 46
20 26 24 23 21 21 22 23 20 23 27 31 35 38 41 43 44 50 50 51 52 53 55 55 54 54 56 56 58 57 56 54 55 53 59 59 61 61 60 60 59 58 57 56 54 52 51 48 46
22 23 26 25 24 24 21 19 26 27 32 27 34 37 39 41 42 45 48 51 51 53 55 55 55 54 56 57 57 59 58 56 57 59 59 60 60 60 60 59 58 58 57 56 54 51 49 46 46
23 24 25 24 25 26 21 20 25 28 30 27 31 35 38 40 41 43 44 45 50 53 55 56 56 55 56 59 58 58 59 60 59 59 59 59 59 59 58 58 57 56 55 53 50 49 49 46 45
25 24 28 27 29 29 29 20 19 26 24 24 23 28 36 39 41 42 44 46 46 50 55 56 56 55 55 57 60 59 59 60 60 60 61 59 58 58 57 57 56 54 51 50 49 48 47 45 44
25 24 27 32 32 31 29 27 25 22 19 20 23 27 33 33 40 41 42 47 48 49 51 55 55 55 55 57 60 60 59 60 61 61 60 59 59 58 57 56 51 50 48 47 47 46 43 43 44
24 25 26 26 27 26 18 16 17 21 19 19 20 28 33 37 38 39 42 45 46 49 51 54 55 54 55 56 61 59 57 59 61 61 60 60 59 57 55 51 49 48 46 47 45 44 43 42 42
23 24 30 28 26 28 27 23 35 27 24 23 27 26 35 37 40 41 42 44 45 47 50 55 56 55 56 58 61 61 60 59 61 60 59 59 58 52 50 49 48 46 45 46 44 42 40 40 41
25 25 28 29 27 32 38 27 28 30 26 27 27 28 32 36 37 42 44 46 46 48 51 57 57 57 60 60 61 61 60 60 59 59 59 57 53 51 49 48 47 45 46 45 43 39 37 43 42

GFSSGP_sfc_dewp_051.txt.gz
Dewpoint
54 48 50 40 30 21 17 15 17 14 18 42 46 42 42 44 43 49 61 63 63 63 67 68 70 71 71 71 71 70 70 70 69 69 69 69 70 70 70 68 67 67 66 63 61 62 62 63 63
47 44 43 34 19 16 16 16 15 31 37 45 45 45 44 45 54 59 59 62 61 62 61 67 69 71 71 71 70 70 69 69 68 68 69 70 69 70 70 67 66 67 66 62 60 61 63 63 64
48 42 30 22 20 18 16 15 13 33 33 37 36 43 51 50 52 59 65 59 63 65 66 68 69 70 71 70 69 69 69 68 68 68 69 69 69 69 69 67 67 67 65 62 60 62 63 63 64
39 32 29 20 18 18 17 30 36 23 22 39 40 52 58 57 56 55 64 60 66 66 67 69 69 69 70 70 69 69 68 67 67 68 69 69 69 69 69 68 67 67 65 62 61 62 62 63 63
40 31 21 21 20 20 34 35 37 38 34 47 43 46 54 56 59 66 66 66 67 68 68 68 68 68 69 69 69 68 67 67 68 68 69 69 69 69 69 68 67 66 65 63 62 62 63 62 62
28 26 21 19 18 28 35 38 33 32 46 45 48 47 47 53 62 63 66 65 67 67 67 67 69 66 68 68 68 67 67 67 67 68 69 70 69 69 69 68 67 66 65 65 64 63 62 61 60
25 22 18 16 13 22 31 39 33 35 48 47 49 48 49 53 62 64 66 66 67 67 67 67 67 68 67 67 67 67 67 67 67 67 67 68 68 68 69 67 67 66 65 65 64 63 62 60 59
24 20 15 14 16 23 28 32 38 43 47 53 52 50 54 57 62 64 65 65 65 66 66 65 65 66 65 65 66 67 67 67 66 66 65 66 67 67 67 66 65 65 65 64 63 63 61 59 57
25 16 15 16 20 21 26 34 45 46 47 51 49 51 57 61 61 62 61 62 62 62 63 62 62 62 63 64 66 66 66 66 65 64 64 62 63 63 63 64 65 64 64 63 63 61 60 58 55
20 17 16 18 22 21 23 23 44 45 43 46 47 53 60 60 58 59 60 59 60 60 61 61 61 61 61 63 65 65 64 62 61 59 56 56 58 60 62 63 64 63 63 62 62 60 59 56 47
18 15 17 18 22 23 22 42 47 48 47 47 49 54 58 58 57 56 56 58 57 59 60 60 59 59 60 61 60 63 62 61 59 58 57 58 59 59 60 60 61 61 61 57 58 57 52 51 51
17 18 17 18 27 25 40 44 47 51 53 55 58 58 58 57 56 56 56 56 56 56 57 57 58 58 58 54 54 59 60 59 58 58 59 58 59 57 57 56 57 56 56 52 52 52 53 51 48
19 19 22 21 29 36 42 43 46 44 53 56 57 57 56 56 55 55 55 55 56 55 56 56 57 57 57 58 58 58 60 57 57 60 60 58 58 57 56 56 56 54 54 51 53 53 52 50 48
23 21 19 20 30 38 39 43 43 46 52 53 54 55 55 54 54 54 53 53 54 56 56 56 56 56 56 56 54 55 58 55 56 57 58 59 58 60 57 57 56 56 55 54 54 53 51 50 47
27 24 20 18 28 39 42 39 40 48 46 53 54 53 54 54 54 53 53 52 54 55 55 55 55 55 55 56 56 56 58 57 56 55 57 59 59 58 58 60 60 60 57 56 53 53 51 50 48
24 23 19 19 31 40 38 37 39 44 44 51 52 53 53 53 53 53 52 52 53 54 54 54 54 55 55 55 56 55 55 57 56 57 58 58 59 59 58 59 58 59 57 55 54 53 51 49 47
25 20 19 18 37 40 40 42 39 46 46 49 52 52 50 53 53 52 51 51 52 53 54 54 55 54 55 55 53 53 55 55 56 56 57 58 58 60 58 59 59 58 56 55 54 53 52 50 46
21 20 17 26 28 36 40 40 41 45 47 46 48 52 51 53 52 52 52 51 52 52 53 54 54 53 54 55 51 53 52 53 55 56 56 59 58 59 60 60 59 58 56 55 55 53 52 49 44
22 18 14 18 27 28 37 39 39 44 47 45 46 50 50 49 51 52 52 51 51 52 51 52 52 51 52 53 50 48 48 52 53 55 54 57 59 60 60 60 59 59 56 55 54 53 49 44 42
24 20 16 25 28 30 35 38 40 44 46 43 45 47 47 49 50 50 51 51 51 52 51 50 50 50 50 55 45 45 50 53 54 54 54 56 60 60 60 60 58 58 57 56 54 51 47 45 42
22 19 19 25 26 24 23 36 40 41 45 46 45 46 47 49 49 49 50 50 49 49 49 48 47 48 50 55 53 50 53 53 51 53 53 56 60 60 60 59 59 58 58 56 53 51 47 45 45
17 20 25 26 24 19 22 19 36 40 43 45 42 44 45 50 49 49 50 50 49 48 50 50 47 47 50 54 54 51 53 52 50 50 53 59 60 60 60 60 59 58 58 56 54 53 51 48 44
20 27 29 28 25 24 23 22 23 38 40 42 41 44 43 50 49 49 47 49 50 50 49 51 50 50 52 54 55 56 56 53 51 50 54 58 60 60 60 60 59 58 58 57 55 53 51 50 48
26 29 28 28 26 24 24 23 26 27 29 37 38 40 43 45 50 50 49 49 49 51 52 52 52 53 53 54 55 57 58 57 53 53 54 59 60 60 61 61 59 59 58 57 55 52 51 49 47
25 24 24 28 24 24 29 26 27 29 31 33 35 38 41 44 47 50 50 50 50 50 52 53 53 53 53 53 54 57 58 57 55 56 56 57 58 58 58 59 58 58 56 55 53 50 48 48 47
25 24 28 25 26 29 31 26 24 29 30 30 30 36 38 41 45 49 50 51 51 51 52 53 53 53 53 54 56 57 57 58 58 58 58 58 58 58 58 58 57 55 54 51 50 49 48 48 47
26 25 28 34 35 31 31 29 28 28 24 23 23 25 36 39 41 45 48 49 49 51 51 53 53 52 54 55 57 57 57 57 58 58 59 58 56 56 56 57 55 54 51 49 49 47 47 46 44
24 27 25 33 28 30 26 27 26 29 23 20 20 25 31 35 40 42 44 46 47 50 51 53 54 54 54 55 58 57 57 58 59 59 58 58 57 56 55 55 53 50 48 47 47 46 45 44 44
26 24 28 30 32 25 23 25 33 27 30 23 22 26 30 34 35 41 43 45 45 46 50 54 55 57 56 55 56 58 57 58 59 59 58 58 56 54 54 52 50 48 47 47 45 44 43 44 43
24 25 28 31 28 33 28 27 29 28 27 28 25 25 26 36 37 38 41 44 46 47 53 55 56 59 58 57 58 59 59 59 59 58 58 58 56 53 51 50 49 47 46 45 44 42 41 42 43

GFSSGP_sfc_dewp_054.txt.gz
Dewpoint
53 50 48 39 27 22 19 17 20 18 18 38 45 43 40 48 50 48 62 63 63 66 68 69 70 71 71 71 71 70 70 69 69 69 70 70 69 68 68 67 67 65 65 64 64 64 64 64 65
46 44 40 35 21 17 17 18 17 18 23 44 44 45 47 49 53 58 58 62 63 63 68 68 69 70 70 70 70 70 69 69 69 70 70 70 69 68 67 67 66 65 65 64 63 64 63 62 64
43 39 31 27 20 17 17 18 22 31 40 40 39 56 53 51 53 56 61 62 62 63 65 69 69 69 69 70 70 69 68 68 69 69 70 70 69 68 68 67 66 65 64 63 63 63 62 63 63
39 33 29 22 19 20 20 20 28 36 40 46 42 50 58 57 59 59 61 63 61 63 65 64 67 69 69 70 69 68 68 68 69 69 69 70 68 68 67 66 65 65 64 63 63 62 61 62 63
39 30 22 22 21 21 22 33 33 45 45 46 46 44 52 57 62 64 66 66 66 66 67 67 67 67 68 69 68 68 67 68 68 68 69 69 69 68 67 66 65 65 64 62 61 61 63 62 63
29 28 22 21 21 20 24 36 41 45 44 45 46 47 46 55 61 63 66 67 67 67 67 67 67 67 68 68 66 67 67 68 68 68 68 69 69 67 67 66 65 65 65 64 63 63 62 62 62
27 24 21 19 18 16 27 37 41 47 47 47 50 49 50 52 60 63 66 66 66 67 66 64 66 67 67 66 65 65 67 68 68 68 68 68 68 67 67 66 66 65 65 63 62 62 61 61 60
26 23 20 18 15 18 25 35 43 44 48 52 51 48 52 58 61 64 64 64 65 66 66 65 65 66 64 64 64 64 67 67 67 68 68 67 68 67 66 65 65 65 64 63 62 60 60 60 59
24 21 18 17 17 21 34 38 45 48 50 51 50 52 55 60 61 62 62 61 62 63 64 65 63 63 62 62 62 63 66 66 66 67 66 65 65 65 62 64 64 64 63 62 61 60 59 56 58
22 19 19 19 19 30 45 43 45 46 46 47 48 54 60 59 60 60 59 58 60 60 61 63 62 61 60 60 62 64 64 62 62 61 61 61 62 62 62 63 63 63 62 61 60 59 58 53 48
19 18 18 17 19 31 43 46 49 43 42 51 54 54 58 57 57 57 59 59 59 60 60 61 61 61 60 59 59 63 62 59 57 56 58 61 61 61 61 60 60 60 60 57 56 53 50 51 48
17 17 19 17 26 37 41 45 48 49 52 57 57 58 57 56 57 56 57 57 58 59 59 59 60 60 60 61 63 62 59 57 56 57 58 59 58 57 58 58 58 57 55 53 52 51 52 49 47
23 22 23 23 40 41 43 43 45 50 55 57 57 57 56 56 55 55 56 57 56 57 57 57 58 58 58 57 60 61 59 56 58 59 58 56 55 55 55 56 56 54 54 50 51 52 52 47 47
28 27 25 21 39 39 39 43 42 45 54 54 55 55 55 54 54 54 54 55 55 56 56 57 57 57 57 56 57 59 59 57 59 58 57 57 55 56 55 55 54 54 53 51 52 52 50 48 45
27 24 23 22 35 38 40 38 40 49 53 53 53 54 54 53 54 54 54 54 55 56 56 56 56 57 56 55 56 58 57 55 56 57 59 58 57 56 57 58 58 57 55 53 54 52 51 49 47
25 26 20 22 37 39 38 33 38 49 52 53 53 53 53 52 53 53 53 54 55 55 55 55 56 56 55 54 54 54 55 57 55 56 58 58 59 58 58 59 60 59 58 55 53 53 51 49 48
26 21 22 22 29 39 37 35 41 44 45 52 52 52 52 52 53 53 52 53 54 54 54 54 55 53 54 54 52 53 54 55 56 54 56 57 58 59 58 59 59 59 57 55 54 53 51 49 47
21 22 22 18 33 38 39 37 38 46 49 51 51 51 51 51 52 52 52 52 54 52 53 53 54 53 54 54 52 53 53 53 54 54 54 57 57 57 58 59 59 58 56 54 53 52 52 50 48
24 23 22 21 26 35 36 35 37 43 45 50 51 50 51 52 52 51 51 51 53 53 53 52 53 53 54 53 51 51 50 51 52 54 54 54 57 57 57 59 58 58 57 55 54 53 51 46 44
26 25 24 21 27 26 35 35 38 41 44 45 49 51 51 51 52 51 51 51 52 52 52 52 51 52 53 53 51 49 48 50 53 53 53 54 57 58 59 59 58 58 57 55 54 52 48 47 42
26 26 22 19 25 26 33 32 40 42 44 45 48 51 51 50 51 51 51 50 51 51 51 52 51 50 51 53 50 47 48 53 52 53 53 54 56 58 59 59 58 57 56 55 54 52 49 47 45
25 25 21 24 23 19 22 18 34 40 40 44 46 47 48 50 50 51 51 50 50 51 51 51 51 50 50 52 52 45 44 45 49 53 53 53 56 58 59 59 59 57 58 56 55 54 51 51 47
26 28 24 27 25 24 23 21 23 38 38 41 44 46 47 49 50 49 50 50 50 51 50 49 49 49 49 49 54 50 48 49 52 53 51 53 58 59 59 59 58 58 58 58 56 55 52 51 49
27 28 28 29 26 23 25 23 24 37 37 40 41 44 46 49 49 49 50 49 50 49 49 48 47 48 48 48 52 53 51 52 53 53 52 53 57 59 59 60 59 58 58 58 58 56 54 51 48
26 24 22 23 24 23 27 28 27 33 37 41 40 43 44 49 49 49 49 49 49 48 48 49 47 46 47 47 50 52 52 53 55 55 53 53 56 57 58 59 58 58 58 58 57 54 53 49 48
25 25 25 21 25 27 31 26 23 29 31 39 41 40 43 45 50 49 48 48 49 49 49 49 49 47 47 48 51 52 52 54 57 57 55 54 56 57 57 58 57 57 56 55 54 51 49 49 48
26 25 28 31 34 29 29 30 28 28 27 29 37 38 40 44 46 50 49 48 48 49 50 50 50 50 50 51 53 53 54 54 57 58 57 56 56 57 57 57 56 55 54 53 50 48 47 48 47
25 28 26 31 26 24 29 29 25 27 23 22 26 34 38 41 44 47 50 51 50 50 51 53 52 52 52 53 54 54 54 56 57 58 57 57 57 56 55 55 55 53 51 49 48 47 47 46 45
26 25 29 30 31 25 23 24 31 29 29 24 20 27 34 39 42 45 48 50 51 52 52 53 54 54 54 55 54 55 56 57 58 58 58 58 58 57 55 55 53 51 48 47 47 46 45 44 45
25 26 28 28 27 30 27 25 29 28 27 27 26 26 33 37 40 41 44 48 50 51 52 53 54 54 55 55 55 56 58 58 59 58 58 59 57 56 55 53 51 49 47 46 45 44 44 44 43

GFSSGP_sfc_dewp_057.txt.gz
Dewpoint
53 53 46 36 23 24 24 19 20 18 18 30 44 41 42 49 51 44 62 63 67 69 69 68 69 69 68 69 70 70 69 70 70 70 69 69 69 68 67 66 66 67 67 65 65 65 65 65 66
45 45 37 30 22 17 16 18 17 19 32 45 44 46 47 48 53 58 60 62 64 64 65 66 67 67 67 67 69 69 69 70 70 70 69 69 68 68 67 66 66 67 67 65 64 64 64 64 65
42 36 29 28 20 17 17 18 19 23 42 42 43 56 53 48 53 58 60 62 63 63 67 67 65 65 66 67 69 69 69 69 70 69 69 69 68 67 66 65 66 66 66 63 63 62 63 65 65
38 32 28 24 20 21 20 20 21 39 39 45 46 51 57 57 59 59 62 62 62 63 67 67 66 64 67 67 69 68 69 69 69 69 68 68 68 67 66 64 65 66 65 62 60 62 64 64 64
38 31 23 21 20 22 22 23 33 44 45 44 46 44 52 57 59 64 63 62 61 62 64 67 67 67 68 69 67 68 69 69 69 69 67 68 68 67 66 65 65 65 65 62 61 63 65 64 63
28 27 23 21 21 21 20 31 42 45 44 44 45 45 46 56 59 62 65 65 64 64 66 64 67 67 67 67 67 66 67 68 69 68 67 67 67 66 66 65 65 65 64 63 62 64 64 63 62
27 24 23 20 20 19 22 37 42 45 46 46 50 48 50 52 60 63 66 66 66 65 66 66 66 66 65 63 62 62 65 67 67 67 67 67 67 66 66 65 65 63 62 62 61 62 62 63 62
26 24 24 20 17 15 25 38 44 45 46 53 50 46 52 57 61 64 64 63 65 65 64 65 65 65 63 62 62 63 65 67 66 66 67 67 66 66 65 64 63 63 62 62 61 61 62 63 62
24 22 20 20 17 17 40 39 44 49 49 50 51 53 57 59 61 61 60 61 63 64 64 65 64 63 62 61 61 63 65 67 67 67 67 65 64 63 62 63 63 62 62 62 60 59 61 62 61
22 20 19 21 18 21 44 42 43 45 46 47 49 56 59 58 59 59 58 59 60 62 62 62 62 61 61 60 60 62 64 65 66 66 66 65 63 61 61 62 62 62 62 61 60 59 56 53 53
21 18 18 17 18 33 43 45 47 45 42 49 51 53 57 56 56 58 58 58 59 61 62 61 60 60 58 56 58 60 63 64 61 61 62 62 62 61 60 59 58 59 58 54 52 50 50 46 49
17 18 17 18 21 41 41 44 46 47 50 56 56 55 55 55 56 57 58 58 59 59 60 60 59 58 58 57 55 59 61 60 61 61 62 61 60 58 58 57 57 56 54 51 51 52 50 47 44
20 24 25 26 35 39 43 41 45 53 55 57 57 56 55 55 55 55 57 57 59 58 59 60 60 59 57 56 58 61 59 58 59 60 61 59 56 56 57 56 55 53 52 50 49 51 48 47 44
27 27 26 24 39 40 38 41 43 49 55 56 55 54 54 54 54 55 55 56 57 57 58 59 59 60 59 60 61 59 57 58 59 59 58 56 55 56 55 55 54 52 51 50 51 52 48 47 42
28 24 24 27 38 36 40 36 40 46 54 53 53 53 53 53 54 54 54 55 56 57 57 57 57 57 57 58 58 59 57 57 57 56 57 55 55 54 55 56 56 54 53 50 53 51 49 46 43
24 26 21 24 35 36 37 32 36 51 53 51 52 53 51 51 52 53 53 55 56 56 56 57 58 56 57 57 58 56 56 57 56 57 57 57 56 55 56 57 56 56 55 53 53 52 50 48 46
25 17 22 22 30 35 36 34 38 52 53 51 51 51 51 49 51 52 53 54 55 56 56 56 56 55 54 54 54 54 55 55 56 58 58 58 57 57 56 58 58 58 57 55 54 52 51 49 47
18 21 25 20 26 37 38 36 37 44 45 51 50 51 50 50 50 52 52 54 54 54 55 55 55 55 54 54 55 55 53 54 55 55 56 58 59 59 58 58 58 59 58 56 54 52 51 50 47
24 23 22 23 24 32 34 34 36 44 49 49 49 50 49 50 51 51 52 53 53 52 53 53 54 55 55 51 53 52 51 51 52 54 54 56 57 57 58 58 58 58 56 55 54 52 51 49 46
25 24 24 25 25 32 29 29 36 41 44 50 50 49 49 50 50 51 50 51 53 52 52 53 53 53 54 51 49 50 49 50 52 52 53 54 55 57 57 58 58 58 56 54 54 52 50 49 44
25 26 25 25 25 29 32 26 38 39 43 45 50 51 50 50 50 50 49 50 52 52 52 52 52 52 52 52 51 49 48 49 51 51 53 53 54 56 57 57 57 56 56 55 54 53 50 50 45
23 27 27 23 22 20 24 19 22 38 39 43 45 50 51 51 51 51 50 49 50 51 52 51 51 51 51 53 52 49 46 45 48 51 52 53 54 55 57 58 57 57 57 55 55 54 52 51 48
26 30 28 26 25 23 23 20 22 38 37 37 43 47 50 50 51 51 51 50 50 51 51 52 51 50 50 51 52 50 47 46 47 51 52 52 54 55 57 58 57 57 57 57 56 54 52 51 51
28 29 29 30 26 23 24 22 23 35 36 34 40 45 48 48 50 50 51 51 50 51 51 51 51 51 49 50 52 52 48 47 49 51 52 53 53 55 57 58 58 58 57 56 56 56 54 53 53
27 24 22 20 23 22 27 26 25 28 35 35 38 43 47 47 49 49 50 50 49 50 51 50 50 50 50 49 49 52 52 49 49 50 52 53 52 54 56 57 57 58 58 58 58 56 56 54 52
26 25 24 19 22 22 31 26 26 28 29 35 39 41 44 47 48 49 49 49 49 49 50 49 49 49 49 49 48 49 52 52 51 50 53 54 53 54 56 57 58 58 56 56 55 55 54 52 50
26 25 27 28 32 29 28 29 29 28 27 35 40 40 42 45 48 49 49 49 48 49 49 49 49 48 48 49 49 48 49 51 51 52 53 56 55 55 55 57 57 55 55 55 53 52 50 49 49
25 28 26 30 26 24 26 27 26 28 26 28 31 39 40 42 46 49 49 50 49 49 49 49 49 47 47 47 47 47 48 51 50 52 54 57 57 57 56 55 55 55 54 54 52 48 48 48 48
25 26 28 30 29 23 22 24 30 30 31 26 24 28 39 40 44 47 49 50 49 50 51 51 50 49 49 48 47 48 49 51 53 53 55 57 57 57 57 56 55 54 53 50 48 47 47 46 45
25 26 28 26 25 28 26 23 28 30 30 29 25 24 31 39 42 44 47 50 49 49 50 51 53 52 52 50 50 51 52 53 54 55 57 58 57 57 57 57 55 53 52 51 49 47 46 45 45

GFSSGP_sfc_dewp_060.txt.gz
Dewpoint
52 52 45 33 20 23 23 21 22 20 19 23 39 41 38 45 45 39 61 64 69 68 69 70 70 70 70 70 70 70 70 70 70 70 70 69 69 68 67 68 67 67 67 65 65 65 64 64 64
45 45 36 29 19 16 15 19 18 18 23 42 45 48 47 48 52 58 61 63 68 68 68 68 69 69 70 70 70 70 70 70 70 69 69 69 68 67 68 67 67 67 67 66 65 66 65 64 64
41 35 28 23 19 17 17 18 18 21 29 43 45 54 54 48 53 59 60 63 65 66 66 67 68 67 68 69 69 70 70 70 69 69 69 68 68 68 68 67 67 67 67 65 65 65 65 64 64
37 31 26 24 24 21 19 20 21 25 40 45 46 48 57 58 57 58 63 64 63 63 65 65 65 67 67 66 69 69 70 69 68 68 68 68 67 68 67 66 66 66 66 64 64 66 64 64 63
35 29 23 22 20 22 22 22 24 39 43 44 45 43 52 56 58 63 64 63 63 62 64 66 65 67 67 67 68 68 69 68 68 68 68 67 67 67 67 66 66 65 64 63 65 64 64 63 63
27 27 21 19 20 21 21 21 34 43 43 44 45 43 45 56 57 60 62 62 62 62 64 66 65 67 67 67 66 66 66 67 67 67 67 67 66 66 66 66 65 64 65 65 66 65 64 63 62
26 24 22 21 21 20 18 38 41 43 45 44 49 47 49 51 58 62 63 65 64 63 64 66 65 66 66 65 64 64 65 66 67 67 67 66 66 65 66 65 64 63 65 66 65 63 63 62 61
26 24 26 21 19 16 22 36 44 44 43 52 51 46 49 56 59 64 63 64 65 64 64 65 65 63 62 63 63 63 62 66 66 67 67 66 66 65 64 63 62 62 63 64 64 63 62 62 61
25 22 21 21 18 17 30 35 43 47 48 50 50 52 56 58 60 60 60 62 63 63 63 64 63 62 61 60 61 61 62 63 65 66 66 65 64 62 59 61 62 62 62 62 63 63 62 61 61
23 21 20 22 20 18 21 39 40 44 45 47 48 55 58 57 60 58 57 58 61 61 63 63 63 61 61 60 59 57 59 59 62 65 64 63 62 60 60 61 61 60 60 61 63 63 62 59 57
21 18 19 18 21 20 24 44 46 44 41 45 47 50 56 56 56 58 58 58 60 61 61 61 61 61 60 60 60 59 58 61 61 65 64 62 61 61 59 58 58 56 57 51 53 52 52 53 52
19 20 19 18 23 32 39 43 44 42 42 52 54 54 56 55 55 57 57 58 59 60 60 60 61 60 60 57 57 59 57 59 61 63 62 61 60 58 57 56 56 53 52 50 51 49 49 49 50
18 21 24 25 28 36 42 41 43 50 54 55 56 55 55 54 55 56 57 58 59 59 59 60 59 57 56 55 56 60 59 60 62 62 62 59 57 56 56 56 54 52 51 50 50 48 46 46 46
26 25 26 25 32 38 39 40 42 43 54 55 55 53 53 54 54 55 56 56 58 59 59 59 58 58 57 54 59 60 59 59 61 62 61 58 56 56 54 54 52 51 50 50 51 48 47 44 42
28 24 24 23 32 36 39 36 39 44 54 54 53 52 53 53 54 55 55 56 57 58 59 58 59 58 57 56 60 58 58 59 59 60 58 56 56 55 54 55 54 53 50 51 52 50 48 44 40
25 24 20 21 35 36 37 30 33 50 52 51 51 52 51 51 51 53 54 56 57 57 57 58 59 59 59 59 59 57 57 58 59 58 57 56 56 55 55 55 54 55 53 52 53 50 48 46 43
23 18 19 20 30 36 36 32 38 50 52 50 50 51 51 50 52 52 53 55 57 57 57 57 57 57 58 59 57 57 56 56 58 57 56 56 55 56 54 55 55 55 55 53 53 52 50 48 47
21 21 23 20 25 33 35 35 37 50 51 50 49 49 50 49 50 52 53 54 55 56 57 56 56 56 56 56 56 55 55 56 57 57 56 57 56 56 56 57 57 57 56 55 54 53 52 50 48
21 22 21 21 23 26 25 31 31 40 48 46 48 50 49 48 50 52 52 54 54 55 55 55 55 55 55 54 54 55 54 53 54 55 57 58 58 58 58 58 58 58 57 56 55 53 51 50 48
24 23 22 24 26 26 26 28 32 41 44 47 48 48 49 49 50 51 50 52 52 53 53 54 54 54 55 56 54 54 53 51 52 53 54 56 57 58 58 58 58 58 57 55 54 52 51 51 47
25 24 24 24 26 25 30 27 29 36 41 47 50 50 50 49 49 49 49 50 52 52 52 53 53 54 54 54 53 49 49 53 50 51 52 53 54 56 57 57 58 57 57 55 54 53 51 50 48
22 26 25 25 23 21 26 23 21 28 37 43 45 50 50 49 50 49 48 48 51 52 52 52 52 52 52 53 52 49 48 50 50 50 51 52 54 54 55 56 56 56 56 55 54 54 52 51 48
22 28 27 27 24 23 23 20 21 37 32 35 41 45 49 50 50 50 50 49 50 52 52 52 52 52 51 51 50 50 48 48 48 51 51 52 54 54 55 56 56 56 56 56 55 53 52 51 50
29 27 28 29 26 23 23 22 23 25 30 32 36 42 47 50 51 51 51 50 50 51 51 51 51 50 51 52 51 50 49 48 47 47 50 51 52 53 54 56 55 56 56 56 56 55 55 54 53
27 25 22 21 24 23 25 24 24 27 29 33 33 38 45 49 50 50 50 49 49 50 50 51 51 50 50 50 51 52 50 49 48 47 49 50 51 52 53 54 55 55 56 57 57 56 56 55 54
26 26 24 20 21 21 29 27 26 29 30 31 34 37 45 48 49 50 50 50 49 50 50 50 51 51 51 49 49 51 52 51 49 49 50 51 52 52 53 54 55 55 56 57 57 57 56 56 54
25 25 27 27 30 28 27 27 28 27 27 28 36 39 43 47 48 49 49 50 49 49 50 50 50 50 50 50 49 49 50 52 52 51 50 51 52 53 53 54 55 55 55 55 56 56 54 53 52
26 28 26 28 25 24 24 27 23 25 26 27 31 39 41 45 47 48 49 49 50 49 50 50 50 49 49 50 50 49 48 50 51 52 51 51 52 54 54 54 54 55 54 54 53 52 50 51 48
24 24 27 29 28 22 21 24 30 28 30 30 27 29 39 42 45 48 49 50 49 49 49 50 50 49 48 49 49 49 49 49 50 50 51 52 53 56 56 56 56 56 55 55 54 52 50 50 48
24 26 27 25 23 28 26 22 27 29 30 31 30 26 24 38 42 45 48 49 50 49 49 49 49 49 49 49 48 49 50 50 49 50 50 52 54 56 56 56 57 57 55 52 52 50 50 49 47

GFSSGP_sfc_dewp_063.txt.gz
Dewpoint
52 50 43 33 23 23 20 20 22 20 20 22 42 38 39 45 42 40 62 66 68 68 68 68 70 70 71 71 71 71 71 71 70 70 70 70 69 69 68 68 67 67 67 64 64 64 65 65 64
45 43 36 29 20 17 17 20 19 20 21 40 45 48 45 43 54 58 62 64 68 68 67 68 70 70 70 70 70 70 71 71 70 70 70 69 69 69 68 67 67 67 67 64 64 63 64 65 64
40 34 30 25 22 17 17 19 20 20 22 35 41 54 48 47 52 60 61 64 68 68 68 69 69 69 70 70 70 70 70 70 70 69 69 69 69 69 68 67 67 67 67 65 64 63 64 64 65
36 32 28 26 20 22 20 21 22 22 37 43 45 49 56 58 54 58 62 65 66 67 68 68 67 68 69 70 70 70 69 69 69 69 69 69 69 69 68 67 67 67 67 66 64 63 64 64 63
34 30 25 22 21 23 23 23 24 25 40 43 44 40 50 57 58 61 64 64 64 65 67 67 65 68 68 70 70 70 69 68 68 68 67 68 68 68 67 67 67 67 67 67 64 62 63 63 63
29 29 23 18 19 21 23 23 27 36 41 43 44 42 44 56 55 60 62 64 64 65 67 66 64 67 67 67 68 69 68 68 68 67 67 68 67 67 67 66 65 65 67 66 65 63 63 63 62
28 25 20 20 20 21 20 34 39 38 42 41 47 44 49 49 57 62 63 64 64 65 65 67 66 67 67 66 65 67 67 67 67 67 66 66 66 66 66 65 65 65 66 65 64 63 63 62 61
28 26 23 22 20 18 20 33 40 39 38 51 51 44 47 56 59 63 64 65 66 64 65 67 66 67 67 66 64 65 66 67 67 66 65 65 65 65 65 64 65 66 66 65 63 63 62 62 61
26 24 21 21 21 19 21 31 42 47 45 49 50 50 54 58 60 60 61 63 63 64 65 66 65 65 66 64 64 65 64 65 66 66 65 64 65 63 60 61 64 65 64 63 63 63 62 61 61
25 24 22 23 22 20 21 25 29 42 45 46 48 51 57 58 59 58 57 58 61 61 63 63 63 63 63 61 61 62 63 63 64 65 65 63 63 60 56 61 63 63 63 63 62 62 61 57 54
25 22 23 20 22 21 20 35 41 42 40 44 45 49 54 56 56 58 58 58 60 61 62 63 61 60 61 59 59 61 63 63 63 64 63 62 60 60 59 58 58 60 61 59 59 58 54 55 54
21 22 20 19 21 26 25 39 43 44 43 51 52 53 55 54 55 57 58 58 59 60 61 60 60 60 60 59 58 59 57 61 62 63 63 61 59 59 58 55 55 55 55 59 58 55 56 55 54
20 20 21 22 25 28 40 38 40 44 50 56 56 56 55 54 55 56 58 59 59 60 60 60 61 60 60 59 60 60 58 60 61 62 62 58 57 57 56 55 52 52 53 54 54 54 53 53 54
25 22 23 27 25 33 37 37 41 41 53 55 54 53 53 54 54 55 56 58 59 59 59 60 60 59 59 58 59 61 60 60 61 63 62 60 58 58 56 54 52 52 52 51 52 52 52 51 52
27 25 25 24 24 31 39 34 38 43 54 53 52 52 52 52 54 54 56 57 58 59 59 58 58 58 57 58 60 60 60 59 60 62 62 59 58 58 57 55 53 54 54 53 51 51 49 47 47
25 25 22 20 33 36 36 25 31 46 51 52 52 52 51 51 52 54 54 56 58 58 58 59 58 57 56 59 59 59 60 60 60 61 60 59 58 57 57 55 55 56 56 53 51 49 47 45 43
25 20 20 18 28 35 35 28 34 50 51 50 52 52 51 50 50 52 53 55 57 58 58 58 58 58 57 58 59 59 60 60 60 59 59 58 57 57 56 54 56 56 56 56 53 52 50 47 44
22 22 22 20 27 31 31 32 31 45 50 48 50 52 51 50 50 51 51 54 56 58 58 58 58 58 58 58 59 58 58 59 60 59 57 57 56 57 57 56 57 57 56 57 55 55 53 50 49
22 21 20 20 21 23 26 27 27 34 48 49 50 51 51 50 51 51 52 54 55 57 56 56 56 58 58 57 56 56 57 58 58 59 57 57 56 57 58 58 58 58 57 57 57 57 54 52 52
23 22 22 23 25 24 25 26 27 35 40 45 47 49 50 51 50 51 50 54 54 55 56 56 55 56 57 57 56 55 57 56 57 58 57 57 57 57 57 58 59 58 58 58 57 56 56 54 52
24 24 24 21 24 25 27 25 25 31 39 44 46 46 49 51 50 50 50 51 53 53 54 55 54 55 56 56 55 54 53 54 54 55 56 57 58 58 59 59 60 60 60 59 59 58 56 55 53
23 25 24 23 21 21 26 21 25 25 30 39 42 48 49 50 51 50 49 50 52 53 55 55 54 54 55 55 55 54 52 52 54 54 55 56 58 58 58 58 59 60 60 59 59 58 58 57 54
20 27 26 24 24 25 24 22 23 28 27 28 35 44 48 50 51 50 50 50 51 52 54 54 54 54 54 54 53 51 53 53 52 52 54 54 56 56 56 57 58 59 59 60 60 59 58 57 56
27 26 28 29 27 24 24 23 22 24 26 28 32 38 45 50 51 51 51 50 50 52 53 54 53 53 53 53 53 52 52 51 51 51 52 54 56 56 57 56 58 59 59 59 59 60 59 58 57
26 26 22 23 25 23 26 23 23 27 27 30 32 33 42 48 51 51 51 50 50 51 52 53 52 52 53 53 52 52 52 52 52 51 52 53 54 55 55 56 58 58 58 59 59 59 59 59 58
26 24 25 20 22 21 27 24 22 30 31 32 32 33 38 47 50 51 51 51 50 51 52 52 51 52 52 53 52 52 52 52 51 51 51 52 54 54 55 55 56 57 58 58 59 59 59 59 56
27 25 28 27 31 27 26 28 28 28 27 28 29 38 41 47 49 50 51 51 51 51 51 52 51 51 52 52 53 53 53 52 52 53 54 53 53 54 54 55 55 56 57 58 59 59 59 59 58
27 28 24 28 22 22 24 26 22 26 26 28 31 31 40 45 48 49 51 52 51 51 51 52 52 51 52 52 53 52 52 53 53 54 53 53 53 53 54 54 55 55 56 57 58 58 58 57 58
24 25 28 27 28 23 21 23 33 30 31 31 34 33 32 42 46 48 50 51 51 51 51 52 52 51 52 52 52 53 52 53 53 54 54 54 55 54 54 54 54 54 55 57 57 57 57 56 56
25 26 28 26 25 29 28 23 29 32 32 33 33 33 32 29 40 47 49 50 51 51 50 51 51 51 52 52 52 53 53 52 52 52 53 54 54 54 54 54 54 54 56 56 56 56 54 53 52

GFSSGP_sfc_dewp_066.txt.gz
Dewpoint
49 45 41 35 23 18 14 15 19 19 21 26 35 37 33 37 32 34 61 66 66 66 66 68 71 72 72 71 71 71 71 71 71 71 71 71 71 70 70 69 68 68 68 66 64 64 66 66 65
41 44 38 28 19 11 12 17 18 19 21 25 39 43 42 38 48 53 60 66 67 66 66 66 70 71 71 71 71 71 71 71 70 71 71 70 70 70 69 68 67 67 67 65 65 64 64 65 65
41 39 28 23 19 12 13 17 19 22 23 23 37 45 44 40 52 59 62 65 68 65 65 66 70 69 71 71 71 71 70 70 70 70 70 70 69 69 68 67 66 66 66 64 64 65 64 64 65
31 30 28 22 16 19 18 21 23 23 30 33 36 38 51 57 54 59 62 66 67 65 64 68 69 68 70 71 71 70 70 69 69 69 69 69 69 69 68 67 66 66 66 63 64 64 64 65 64
34 28 17 17 16 21 23 23 25 25 31 38 41 33 41 56 58 60 63 65 67 68 67 68 67 67 67 68 70 70 69 69 69 68 69 69 69 68 67 67 67 67 66 64 63 64 63 64 63
27 27 15 9 16 21 21 23 24 27 30 34 39 37 41 53 56 59 62 64 68 67 68 67 66 66 66 66 69 69 69 68 68 68 68 68 68 67 67 67 67 67 66 64 64 64 63 63 62
25 18 9 11 15 19 19 27 28 25 25 30 41 39 43 49 55 59 60 63 67 67 68 67 65 66 66 64 67 67 68 68 67 67 67 67 67 67 67 67 67 67 65 64 64 64 63 62 62
24 20 15 12 15 18 19 24 28 29 27 48 44 34 39 55 57 60 62 62 65 66 66 66 68 66 66 67 66 66 67 67 66 67 67 66 66 66 65 65 67 66 65 64 64 63 63 62 61
26 18 13 12 15 19 21 25 25 35 33 43 46 47 50 54 56 57 59 62 64 66 65 67 66 66 65 63 65 66 65 66 66 66 65 64 64 62 62 63 66 65 64 63 63 63 62 62 61
22 16 13 16 17 19 21 22 25 32 30 37 44 50 52 54 55 56 56 59 61 62 64 66 66 66 66 65 65 65 64 65 65 65 64 63 64 62 57 63 65 64 63 63 63 62 61 57 52
19 16 14 19 19 20 21 23 30 30 25 31 38 45 51 54 55 56 57 58 59 61 64 65 65 64 65 65 63 64 64 64 64 64 63 64 64 58 59 62 63 61 60 56 57 57 52 51 50
18 19 16 17 19 20 23 26 30 33 35 45 43 48 52 53 54 54 56 58 59 61 61 62 63 62 61 62 62 62 61 62 62 61 63 62 59 60 60 58 58 58 55 56 55 53 54 53 51
21 14 17 20 19 22 25 27 27 32 36 47 50 52 53 53 53 54 56 59 59 59 60 61 61 60 59 60 61 61 60 61 61 61 61 61 59 59 57 57 57 56 56 56 55 54 53 52 52
17 18 16 16 20 23 27 23 35 28 36 48 50 50 52 53 52 53 55 57 58 60 60 60 61 61 60 59 61 61 61 60 62 61 60 61 59 59 55 55 53 54 56 55 54 53 51 50 50
20 20 19 21 22 21 27 23 27 28 45 46 48 50 51 51 51 52 54 56 58 60 60 60 60 60 59 59 60 61 61 61 61 61 60 61 58 58 57 53 53 53 53 54 53 53 51 49 48
21 21 17 16 17 23 30 18 17 36 43 45 46 50 51 51 50 52 53 56 59 59 58 59 59 58 59 59 60 60 60 59 60 61 58 58 58 58 57 55 52 53 53 52 51 51 50 49 48
23 16 18 16 19 23 31 21 32 41 41 40 47 49 50 50 50 51 53 55 58 59 59 59 58 57 59 60 61 61 59 59 61 61 57 56 57 58 56 54 54 57 53 52 51 50 51 49 47
17 19 16 17 20 24 23 26 24 30 39 42 43 47 49 50 49 50 52 54 57 58 59 59 58 57 59 60 60 60 60 59 60 60 57 55 53 55 54 53 55 56 55 54 52 54 53 51 49
16 17 15 13 17 18 17 19 23 25 34 41 42 45 49 50 51 50 52 53 55 58 57 58 57 57 58 57 58 58 58 59 58 57 58 58 55 57 57 55 56 56 55 56 57 56 55 53 54
18 17 16 15 21 21 14 19 23 23 28 33 40 43 46 50 51 50 51 52 55 57 57 57 57 57 57 57 57 55 58 57 58 56 58 57 57 57 57 57 55 55 55 57 58 57 55 55 55
19 17 18 16 21 21 23 22 22 21 30 35 39 40 44 48 50 50 51 52 54 55 56 57 57 57 57 57 57 55 55 56 57 57 57 57 57 56 57 58 57 57 57 56 57 57 56 55 56
19 19 19 20 20 10 24 16 19 21 22 27 32 41 43 47 49 50 50 51 53 54 56 57 57 57 57 57 56 55 52 51 54 55 56 55 58 57 56 58 58 59 60 59 58 57 57 59 55
21 20 23 22 20 17 15 20 16 21 21 20 23 33 43 46 49 50 50 50 51 54 54 56 56 56 56 56 55 54 52 52 55 55 56 55 57 58 58 59 59 60 61 60 62 60 59 58 59
23 22 23 23 20 20 19 21 17 17 21 21 24 29 38 45 49 50 51 50 50 53 55 55 55 55 56 56 56 55 55 54 54 55 56 55 56 57 58 58 59 60 59 59 59 59 61 59 59
23 22 21 20 22 18 21 22 22 20 22 25 27 28 35 44 49 50 50 50 49 51 53 53 54 53 56 55 55 54 54 54 53 54 54 54 55 55 56 57 57 57 56 57 58 59 58 58 58
23 22 21 18 20 20 24 21 20 22 24 28 28 30 33 42 48 49 50 51 50 51 52 54 53 52 54 55 55 54 53 53 53 54 53 54 54 54 55 57 57 57 57 56 57 58 57 59 59
25 24 24 24 29 24 23 23 25 23 23 24 26 30 35 39 45 48 50 51 51 50 52 53 52 52 53 55 56 55 54 54 53 54 54 54 54 53 55 57 56 57 55 55 56 57 56 57 60
26 25 24 25 22 21 21 22 20 22 22 22 28 30 35 41 44 47 49 52 52 51 52 54 53 51 53 54 55 54 54 54 53 54 54 54 54 54 55 55 55 54 54 54 55 55 56 57 59
25 25 26 24 23 23 21 22 27 25 25 26 28 30 33 39 44 46 48 51 52 52 51 52 52 51 52 53 54 54 55 56 55 55 55 54 55 54 54 53 53 53 53 54 55 55 55 56 58
22 24 25 24 24 26 28 23 27 29 28 30 29 29 32 31 38 44 48 50 51 52 51 51 52 52 52 53 53 54 55 54 55 55 55 56 55 55 54 54 52 52 52 54 55 55 55 56 57

GFSSGP_sfc_dewp_069.txt.gz
Dewpoint
48 39 37 32 23 17 13 12 14 13 17 22 27 29 29 33 26 33 59 63 65 63 68 68 71 72 72 72 71 71 72 71 71 71 71 71 71 70 70 70 69 69 68 66 67 67 67 67 67
36 37 36 30 17 13 10 14 14 15 18 23 28 31 31 30 37 39 54 64 65 64 66 66 70 71 72 71 71 71 72 71 71 71 71 71 71 70 70 69 69 68 68 66 67 67 66 66 66
42 35 31 21 18 14 13 14 15 17 19 20 25 31 33 34 46 52 60 64 66 65 65 67 70 71 71 71 71 71 71 70 70 71 71 71 71 70 69 68 68 68 67 65 65 66 66 65 66
32 28 26 17 14 17 17 16 19 18 21 25 25 27 38 54 51 56 60 64 66 65 65 68 69 70 70 71 71 71 70 70 70 70 70 70 70 69 68 67 67 67 67 66 64 65 65 65 65
28 25 20 16 15 15 19 18 20 20 22 28 30 28 32 53 57 58 60 63 66 67 67 68 68 69 69 70 68 68 70 69 70 70 69 69 69 68 67 67 66 66 66 66 65 65 64 64 64
24 22 18 14 11 14 19 19 20 20 22 24 30 30 34 53 52 57 61 62 66 68 67 67 68 68 68 67 65 62 68 69 69 69 68 68 68 67 67 66 66 65 65 65 65 64 63 63 63
24 21 17 12 9 13 19 22 23 21 20 21 31 32 36 47 53 58 58 61 64 68 69 68 68 66 66 63 62 62 64 68 68 68 68 68 67 67 67 67 66 65 65 65 64 64 64 62 62
23 20 16 13 11 11 17 18 21 21 22 36 32 28 33 55 56 58 59 61 63 67 69 68 68 65 63 64 63 66 66 67 67 68 67 66 66 67 67 67 66 65 65 64 64 63 63 62 61
22 17 14 12 13 13 17 19 21 22 25 24 36 41 45 52 53 55 57 60 62 66 66 68 67 67 65 63 65 66 67 66 67 67 66 65 65 65 65 64 65 64 64 64 64 63 63 62 61
20 16 14 14 13 12 16 17 19 22 22 23 30 41 47 50 51 52 52 55 59 62 65 66 67 66 66 66 65 65 65 67 67 66 65 63 64 64 63 65 64 63 63 63 63 63 62 58 51
20 16 15 14 14 15 16 17 19 22 22 25 32 35 45 50 51 53 53 55 57 60 63 65 65 67 67 67 68 67 67 66 65 65 65 64 64 63 64 65 60 60 60 56 56 57 52 50 48
15 17 16 14 13 16 17 18 19 22 26 29 36 40 44 51 51 50 52 54 57 60 61 63 65 65 65 67 65 65 65 64 64 63 63 62 63 61 63 62 58 57 55 56 53 52 53 51 49
17 16 15 14 12 15 18 18 21 21 22 26 39 47 47 50 50 50 52 56 56 59 60 61 62 64 63 63 64 65 63 63 63 62 62 61 61 61 61 60 57 56 56 55 53 52 52 51 50
17 16 17 14 14 16 16 19 21 22 23 28 39 45 48 50 49 49 53 55 57 58 59 61 60 61 61 63 62 62 62 62 62 61 61 61 61 60 59 61 58 56 55 54 53 52 51 50 49
19 16 16 17 14 13 15 16 19 20 21 29 37 44 46 48 49 49 51 56 57 59 60 60 60 60 60 60 61 61 61 61 60 61 61 61 59 60 60 59 57 56 56 57 55 53 51 49 48
19 18 16 17 16 17 17 19 17 21 28 32 38 41 46 48 48 48 52 55 57 59 60 61 60 59 60 60 60 60 61 60 59 59 61 60 59 60 60 57 55 59 57 55 53 51 48 48 48
22 17 18 18 17 16 19 20 19 30 29 32 36 40 45 46 49 49 51 54 58 59 60 59 60 59 60 60 61 61 60 61 60 59 58 59 58 59 58 56 56 59 55 55 53 52 51 49 48
18 17 18 18 18 17 16 22 21 26 31 33 34 40 44 46 47 48 50 53 57 59 60 59 59 59 59 60 60 59 59 60 60 60 58 58 57 59 57 56 59 57 54 53 54 54 52 51 50
19 17 17 19 17 19 19 16 18 20 25 30 34 36 43 46 46 49 51 53 57 58 59 58 57 58 59 59 59 57 57 58 59 58 58 57 56 56 57 55 58 59 57 56 58 56 57 53 53
21 18 18 18 16 18 17 13 13 17 21 25 31 35 38 46 46 49 51 52 54 57 58 58 57 57 58 58 57 57 56 57 55 57 58 56 56 54 54 55 56 57 57 59 59 58 57 55 57
23 22 21 18 17 20 19 16 17 18 21 22 27 29 34 43 46 49 50 52 54 56 57 58 57 57 57 57 57 57 57 57 55 55 57 57 57 56 55 56 58 58 57 58 60 60 59 56 57
22 21 20 18 18 17 18 12 18 18 20 23 26 31 32 40 46 48 50 50 53 55 57 57 57 57 56 57 56 55 54 55 54 54 55 55 59 56 56 57 58 59 58 58 59 59 59 59 57
24 23 21 20 20 21 18 13 16 18 16 18 20 26 35 38 46 48 49 49 51 55 56 57 57 57 57 57 56 55 54 54 55 53 54 56 56 58 55 58 59 58 60 60 61 60 60 60 57
23 23 22 23 22 21 20 18 17 17 18 19 19 22 32 38 44 47 49 49 48 54 56 57 57 57 57 57 57 56 55 54 53 56 53 55 56 57 58 58 58 59 59 61 60 59 59 59 60
20 22 21 21 21 21 20 18 20 18 19 20 23 24 32 37 44 47 47 48 48 51 55 55 56 55 57 57 57 57 56 53 53 55 56 55 56 57 57 58 56 56 56 57 59 58 59 58 59
22 22 23 22 23 21 21 19 20 22 21 24 25 27 28 35 44 46 47 48 48 50 53 54 54 54 56 57 56 57 56 54 53 54 55 56 55 55 56 57 56 56 56 57 57 58 57 59 59
23 21 23 22 28 26 21 23 23 24 21 21 22 27 30 34 42 46 47 48 49 49 52 54 53 53 55 56 57 57 57 56 56 56 57 57 56 53 54 55 56 57 56 56 56 55 56 57 58
27 24 22 21 24 24 23 23 21 22 21 21 25 28 32 35 39 44 47 49 50 50 51 54 53 52 52 55 57 56 56 57 56 56 56 56 57 56 55 55 55 55 55 55 55 53 56 57 58
24 23 25 24 24 23 24 25 26 25 26 24 28 28 32 38 40 43 46 49 50 50 50 52 52 52 52 53 55 56 56 56 57 56 56 56 57 57 56 56 56 55 55 55 55 55 55 55 56
26 26 26 25 24 26 29 28 25 27 27 28 27 27 30 30 40 42 45 48 50 51 51 50 52 52 52 53 53 56 57 57 57 56 57 57 56 57 56 56 55 55 54 55 55 55 54 55 55

GFSSGP_sfc_dewp_072.txt.gz
Dewpoint
52 40 33 35 26 23 17 14 13 14 13 20 23 24 26 27 23 38 60 63 64 68 68 69 72 73 72 72 72 72 72 72 71 71 71 71 71 70 70 70 70 70 70 69 68 68 68 68 68
38 32 35 30 26 19 14 14 14 14 16 21 19 23 26 27 41 48 57 64 64 66 68 68 71 72 72 71 71 71 72 71 71 71 71 71 71 71 70 70 69 69 69 68 67 68 67 67 68
43 37 30 28 24 17 16 14 15 15 18 18 17 22 28 30 46 50 60 64 65 65 65 68 70 71 72 71 71 71 71 71 70 71 71 71 71 71 70 69 68 68 69 67 67 67 66 66 66
34 31 27 21 16 16 14 17 18 17 17 21 22 23 30 49 46 52 59 63 65 65 65 68 69 70 71 71 71 70 70 70 70 70 71 71 71 70 70 68 67 68 68 67 66 65 65 65 64
30 25 21 19 17 16 15 18 18 19 19 23 24 26 33 53 56 57 59 62 65 67 68 68 68 70 70 71 70 69 69 69 69 70 70 70 70 69 68 68 67 66 67 66 65 65 65 64 63
25 23 19 15 15 14 15 19 18 19 19 20 21 27 37 54 53 59 61 63 67 68 70 69 68 69 68 68 68 67 64 66 69 69 69 69 68 68 68 67 67 67 66 66 65 65 64 64 63
26 20 18 17 15 13 12 21 20 19 18 19 29 30 36 48 55 59 60 63 67 70 70 70 68 66 68 66 65 63 63 63 67 68 68 68 67 67 67 66 66 66 66 66 64 64 64 63 62
24 21 18 16 14 12 13 19 21 19 19 27 26 24 36 53 56 60 63 64 67 68 69 69 69 67 65 64 63 62 61 63 64 68 67 66 66 66 66 66 66 66 65 64 64 64 63 62 61
22 19 18 16 14 12 14 18 19 19 18 22 24 32 41 53 53 56 59 63 64 65 67 68 67 68 66 64 63 63 63 62 64 67 66 65 65 65 64 64 65 65 64 64 64 63 63 61 60
20 21 18 16 13 12 14 13 18 20 20 21 23 36 48 49 50 53 54 57 61 62 66 67 66 66 66 66 63 63 64 62 65 66 65 64 65 65 64 64 64 64 63 63 63 63 61 58 54
20 19 18 15 13 14 13 13 16 17 18 25 29 38 42 49 50 54 53 56 57 61 64 65 65 66 65 64 65 66 63 62 63 65 64 64 64 64 64 62 62 62 62 60 60 58 53 51 53
16 16 17 16 14 14 13 15 16 18 25 26 24 34 41 45 50 50 54 51 55 59 62 64 65 65 65 66 65 65 65 65 65 65 65 64 63 64 63 57 59 57 56 55 55 53 53 51 52
17 14 13 14 15 14 14 14 17 18 19 21 22 42 45 46 49 49 50 55 57 59 61 63 62 64 64 64 65 65 65 64 64 63 62 63 62 62 62 56 55 55 55 54 52 53 52 52 50
19 14 12 14 15 16 13 15 15 20 20 21 22 36 45 46 49 48 51 55 57 59 60 61 60 61 63 62 63 64 64 62 62 62 61 61 62 61 61 57 54 56 54 54 53 54 53 52 52
19 16 17 15 15 16 15 14 14 15 18 20 20 31 42 46 48 49 50 56 57 60 60 60 59 61 61 62 62 63 62 61 61 61 60 60 61 61 60 60 55 56 55 55 55 54 54 53 50
20 19 17 16 15 15 16 17 15 17 19 19 25 32 41 45 47 49 50 55 57 59 60 59 59 60 60 60 61 62 62 61 60 60 60 60 61 61 59 59 58 56 56 56 56 54 53 52 51
21 17 16 15 15 16 17 17 17 20 24 24 28 34 39 44 47 48 51 53 56 58 60 59 59 59 59 60 60 61 60 60 60 60 60 60 60 59 58 60 60 59 57 58 54 54 53 52 51
21 17 16 17 17 18 17 16 18 24 26 28 28 31 39 44 45 49 51 53 56 59 59 59 59 60 59 60 60 59 59 59 59 59 60 59 58 57 59 59 58 60 57 57 55 54 54 53 52
23 20 17 16 18 19 20 17 16 20 21 28 29 32 37 44 46 49 52 54 56 59 59 59 59 59 59 59 58 58 58 58 57 58 58 59 59 57 58 59 59 58 56 56 57 56 55 55 54
23 23 22 19 18 19 18 17 18 17 19 23 28 31 34 43 45 49 51 53 56 56 58 58 57 58 58 59 58 57 58 57 56 57 58 58 58 57 57 57 57 58 57 57 56 56 56 55 55
24 23 23 19 18 19 17 17 19 18 17 18 24 28 32 43 45 48 50 52 55 55 57 57 57 58 58 58 57 57 57 57 56 55 56 57 56 56 56 56 56 57 57 57 58 58 56 55 55
22 24 24 21 21 19 19 16 19 19 19 19 22 28 30 35 46 48 50 52 53 55 57 57 57 57 58 58 57 56 55 54 53 51 53 57 58 56 55 56 56 56 57 59 59 60 57 57 55
24 30 30 23 21 23 18 17 18 17 18 19 23 27 32 34 46 47 49 51 52 55 55 58 57 57 57 57 56 56 55 54 53 50 51 56 57 57 56 57 58 57 57 59 59 59 58 58 56
28 28 33 28 25 21 20 19 19 19 19 20 21 23 31 35 46 47 50 50 51 55 55 58 57 57 56 57 56 56 55 54 54 52 52 55 55 57 57 58 59 59 60 59 58 58 58 57 56
28 34 30 26 23 23 21 19 22 22 20 20 21 22 31 37 44 46 48 48 50 54 56 57 57 56 57 57 56 56 56 55 55 52 51 54 54 55 57 56 57 56 57 59 59 58 57 57 56
27 31 25 23 24 22 21 19 20 22 19 23 23 26 31 35 43 46 48 48 48 54 55 56 56 56 57 57 57 56 56 55 55 54 52 52 54 55 56 57 56 56 57 57 57 56 57 56 57
31 26 27 26 28 29 24 20 25 22 21 21 22 25 28 32 41 45 47 49 49 51 55 55 56 55 56 57 57 57 56 56 55 55 55 54 54 54 55 56 56 55 54 55 55 55 55 55 55
34 32 29 25 24 28 26 25 22 25 23 21 23 30 34 35 39 45 46 49 49 50 53 56 55 54 56 56 57 57 56 56 55 54 54 56 56 55 55 55 56 55 54 54 54 53 54 55 55
31 27 29 26 24 27 29 27 37 30 25 25 30 32 37 42 41 44 46 49 50 51 52 54 54 53 55 56 56 56 56 57 57 55 55 54 57 56 54 55 54 54 53 53 53 53 53 53 52
32 30 28 28 26 25 31 28 35 33 28 30 28 28 34 39 42 44 46 49 49 50 50 52 54 53 53 55 56 56 56 56 57 56 56 56 55 56 55 54 54 53 53 53 53 53 52 52 51

GFSSGP_sfc_dewp_078.txt.gz
Dewpoint
57 48 37 34 28 26 23 21 20 19 21 23 25 27 27 35 27 29 60 67 69 70 71 71 71 72 72 72 72 72 72 72 72 71 71 71 70 70 70 70 70 70 70 69 69 69 69 69 69
46 40 33 32 26 22 22 24 19 22 22 22 21 25 29 51 58 60 61 67 68 69 71 70 71 71 72 72 72 72 72 72 71 71 71 71 70 71 71 70 69 69 70 69 68 68 68 69 69
43 39 33 30 26 23 22 23 22 18 20 18 18 22 33 49 61 61 62 67 68 69 70 71 71 71 71 71 71 71 71 71 71 70 71 71 71 71 71 70 70 69 69 67 67 68 69 68 68
35 35 33 25 25 26 24 25 21 19 20 20 21 35 49 51 59 60 64 66 68 67 69 70 70 71 71 71 71 71 71 70 70 70 71 71 71 71 70 70 69 69 69 69 68 69 69 68 67
31 29 26 24 22 23 23 22 20 21 22 25 26 25 49 57 60 64 65 65 64 66 68 70 69 70 71 71 71 71 70 70 69 69 70 70 71 70 70 69 69 69 68 68 68 68 67 66 64
26 26 21 21 21 22 21 21 20 21 23 22 22 33 52 57 60 62 64 64 66 67 67 68 70 70 70 70 70 68 66 66 64 63 62 67 69 69 69 69 68 68 68 68 67 66 65 64 63
26 24 21 20 19 19 20 22 21 22 21 20 27 38 53 55 59 62 63 64 65 67 67 67 68 70 70 69 67 65 65 65 65 63 62 64 67 67 68 68 68 67 67 67 66 65 64 63 63
27 26 27 23 22 21 22 19 22 20 20 34 28 44 49 52 59 60 62 63 64 65 66 66 67 66 66 66 66 65 66 66 65 64 62 62 66 67 67 67 67 66 66 66 66 64 63 63 62
29 25 24 24 23 23 23 21 19 22 20 28 29 41 47 57 57 58 58 60 62 64 64 66 66 66 64 63 65 65 66 64 64 63 62 65 65 65 66 66 66 66 65 65 65 63 62 62 62
30 25 25 25 23 21 22 19 17 20 21 22 46 55 56 56 56 56 57 58 60 62 63 63 64 63 63 63 63 63 63 63 62 62 61 65 65 65 64 65 65 65 65 64 64 62 61 57 56
30 28 26 23 21 22 21 21 22 16 18 24 37 53 54 55 55 55 56 58 58 60 61 63 63 63 62 62 61 61 61 62 62 62 60 64 65 65 64 64 63 63 63 61 60 58 54 53 52
30 29 26 25 24 22 20 20 19 18 21 26 39 53 54 52 52 52 53 56 58 59 60 60 61 62 62 62 61 61 61 62 62 62 60 61 64 64 63 62 62 61 59 58 56 53 52 52 52
28 28 28 27 24 22 21 20 19 18 17 21 29 49 51 50 50 51 52 54 57 58 59 59 60 61 63 62 62 62 60 61 61 61 61 61 63 62 61 60 60 58 57 55 53 52 51 51 53
27 26 27 26 24 21 19 18 17 18 20 19 31 44 48 49 49 53 53 55 57 59 58 57 57 60 63 63 62 62 60 61 61 64 62 62 62 61 60 59 57 56 55 53 52 52 49 50 52
29 26 25 25 24 22 20 17 17 16 19 18 18 35 43 47 50 53 53 55 58 59 57 56 56 58 60 62 63 63 62 62 62 64 64 63 60 59 59 56 55 55 53 51 52 52 50 49 52
28 28 25 25 23 22 19 19 19 19 17 17 17 18 43 45 49 51 53 56 58 57 57 57 59 57 60 61 63 63 63 62 63 63 64 62 59 58 55 53 54 53 51 51 53 53 50 50 51
28 24 24 23 24 22 19 18 19 18 18 17 16 17 39 45 49 50 54 58 58 57 56 56 57 58 60 60 62 62 63 62 63 63 62 62 58 57 53 51 54 53 50 51 53 53 51 50 50
24 24 24 22 23 21 21 18 18 19 18 17 18 26 40 45 48 53 56 58 58 57 56 56 57 58 59 60 61 61 62 62 62 62 61 60 59 57 53 55 58 54 52 54 54 53 52 50 50
28 27 26 26 27 26 26 23 23 24 24 17 19 26 40 45 48 54 56 58 58 56 56 56 57 59 59 59 58 59 58 60 60 60 59 59 58 58 56 54 59 57 56 55 54 52 50 51 50
26 26 25 26 26 24 23 22 26 26 25 21 22 26 36 46 49 54 56 57 57 57 56 57 57 58 57 58 58 58 58 59 59 59 58 58 58 57 57 55 58 58 57 56 54 52 53 52 50
26 24 25 24 28 27 24 25 27 28 25 20 23 27 33 46 49 54 55 56 56 56 56 57 57 57 58 58 58 58 58 58 58 58 58 58 58 57 57 58 58 58 57 56 54 53 52 52 51
31 25 26 28 30 27 30 26 28 29 28 22 22 26 33 46 49 53 54 55 55 56 57 57 57 58 58 57 57 56 56 55 57 57 57 56 57 57 57 57 58 58 57 57 57 56 53 53 51
33 28 29 32 32 33 28 28 27 28 24 22 22 23 35 46 48 52 53 55 55 56 56 56 57 57 58 57 57 56 55 55 56 57 56 56 57 57 57 57 57 57 57 57 57 57 55 55 54
32 32 31 33 33 28 26 30 27 26 25 23 24 24 34 46 48 51 53 54 54 55 56 56 56 57 58 57 57 56 55 55 55 55 55 55 56 57 57 57 57 57 57 55 57 58 56 55 55
34 33 28 27 28 24 26 28 27 29 27 25 24 23 34 46 48 50 53 53 53 55 55 56 57 56 57 57 57 56 56 55 54 54 54 54 54 56 56 56 56 56 57 56 56 57 56 55 54
34 35 31 23 26 26 28 25 25 28 28 26 25 28 40 46 48 49 51 52 53 54 55 55 56 56 56 57 56 56 55 55 55 54 53 53 54 55 56 56 56 55 56 57 57 57 57 57 56
37 35 36 35 36 31 31 29 24 24 24 24 24 38 44 46 47 49 51 52 53 53 55 55 55 55 55 57 57 56 56 55 54 53 53 52 53 54 57 56 56 56 56 56 57 57 56 57 56
36 40 34 35 27 26 28 28 26 33 31 25 24 35 44 45 47 49 50 52 53 53 54 54 54 54 56 57 57 56 56 55 54 53 50 51 51 53 55 56 56 57 57 57 57 56 56 56 56
37 37 37 35 34 31 29 32 37 39 39 33 30 32 41 45 47 48 49 52 53 54 54 54 54 53 55 56 56 56 56 56 55 54 52 50 50 53 54 55 56 55 56 56 56 55 55 55 55
39 37 37 31 31 33 32 32 44 44 40 33 31 35 37 44 47 48 48 51 53 54 54 55 55 54 55 56 56 56 56 56 55 55 55 53 51 51 53 54 55 55 55 55 55 54 54 54 54

GFSSGP_sfc_dewp_084.txt.gz
Dewpoint
57 42 35 34 25 26 24 21 22 20 19 21 25 27 26 25 26 23 51 65 67 68 70 70 70 71 71 72 72 72 73 73 73 72 72 72 72 71 72 72 71 71 70 69 71 71 70 70 70
49 36 34 31 23 18 15 24 23 23 23 24 29 41 39 31 55 56 59 65 68 68 70 70 71 71 70 71 71 72 71 72 72 72 72 72 72 71 72 71 70 70 71 71 71 70 70 70 70
41 37 30 29 26 17 11 20 24 24 24 22 19 30 38 41 58 59 61 67 68 69 69 70 71 70 69 71 71 71 72 70 72 72 72 72 71 71 71 70 70 71 71 71 70 70 70 70 69
36 33 32 27 25 26 18 20 26 24 23 21 20 25 45 54 58 61 63 68 68 69 69 69 70 70 70 71 71 71 71 71 71 71 71 71 71 71 71 70 70 70 70 70 70 70 70 68 68
30 32 27 27 26 26 27 27 25 24 25 26 24 23 42 53 61 63 67 67 67 68 68 69 69 70 69 70 71 71 71 70 70 70 69 70 69 69 70 68 68 69 69 69 69 69 68 68 67
23 28 25 24 24 24 23 24 23 23 24 22 23 27 43 58 61 64 67 66 66 67 68 68 69 70 69 70 70 70 70 70 69 68 68 68 69 68 68 68 68 68 68 69 68 68 67 67 66
18 24 23 22 21 21 21 22 22 21 20 20 32 36 47 56 61 64 65 65 66 66 67 68 68 70 69 69 68 68 68 67 67 67 67 67 67 67 67 68 68 67 67 68 68 67 66 66 65
25 22 22 21 20 19 19 23 21 20 21 29 43 38 39 53 62 64 64 64 64 65 65 67 68 69 69 69 67 66 65 65 65 66 65 65 64 65 66 67 66 67 67 68 67 65 66 65 64
28 21 21 20 21 17 25 24 24 23 21 24 28 40 48 55 61 62 60 61 62 63 64 66 67 68 69 67 67 66 65 65 64 64 64 63 63 63 63 66 66 65 66 66 65 65 65 64 63
29 25 20 23 22 20 22 28 24 24 24 23 25 38 55 59 60 60 60 60 61 62 63 64 66 66 66 67 66 65 64 64 63 63 63 62 63 62 62 65 65 65 65 64 64 65 64 62 60
32 25 24 25 25 24 24 25 23 22 21 25 25 28 53 57 59 59 60 60 61 62 62 63 63 65 64 64 65 65 65 64 64 63 63 62 62 63 63 64 64 64 64 61 61 63 60 59 59
31 32 28 26 26 27 25 26 25 23 25 27 25 26 47 55 56 57 58 57 59 60 62 63 64 63 64 64 64 64 64 64 63 63 62 62 62 63 63 63 63 63 62 59 59 59 58 57 56
28 32 31 30 29 28 28 26 27 26 25 25 25 24 38 53 55 56 56 56 57 59 60 61 63 63 63 62 63 63 63 63 63 61 62 62 62 62 62 63 63 63 60 57 55 55 56 55 55
23 24 24 26 27 28 27 27 28 28 26 24 22 20 32 47 54 54 54 55 57 58 59 60 62 63 63 62 62 62 62 62 62 61 61 63 63 63 62 63 62 61 59 55 53 54 54 54 54
28 28 28 28 27 26 27 24 24 26 25 23 21 20 21 43 51 53 53 54 55 58 58 59 59 61 62 62 61 61 61 61 61 61 60 62 62 62 63 62 61 60 59 54 52 52 53 54 54
26 27 25 25 27 27 25 21 23 25 24 23 21 20 21 32 49 52 52 52 56 57 57 57 59 61 61 61 61 61 60 60 61 61 60 62 62 62 62 61 60 59 57 53 52 52 53 53 54
24 20 23 24 26 25 23 23 24 24 22 20 20 20 19 22 42 49 50 53 56 57 56 56 56 59 61 61 61 61 60 60 60 61 61 60 62 63 62 61 59 56 55 54 51 51 53 53 53
18 22 24 25 25 27 26 25 27 28 27 27 26 25 23 21 25 36 50 55 56 56 55 56 55 57 60 62 63 62 61 60 61 61 62 61 61 62 61 59 57 56 54 53 51 50 52 53 53
23 24 22 22 25 26 23 23 25 27 27 26 26 27 27 27 24 38 53 56 55 55 56 56 55 55 58 59 60 60 60 60 60 62 62 62 61 62 59 56 55 54 54 52 51 50 52 52 53
20 19 19 23 25 24 25 25 26 27 27 27 26 26 28 27 46 52 54 55 56 55 56 56 56 56 58 57 59 59 60 61 61 61 61 60 59 58 56 54 53 52 52 52 52 50 50 51 53
23 25 27 27 30 26 27 24 23 24 26 26 28 28 29 27 39 53 55 55 56 55 55 55 55 55 56 59 58 59 59 59 60 61 60 59 58 56 55 54 52 50 51 51 52 50 50 51 51
29 32 32 30 28 23 30 24 22 26 29 30 30 30 30 28 40 52 54 54 55 55 55 55 55 55 56 58 58 57 57 57 58 59 60 58 57 55 55 53 51 51 51 51 53 51 50 52 50
31 36 34 32 30 28 27 26 24 26 25 28 29 29 29 28 44 51 54 54 55 55 55 55 55 54 57 57 57 57 57 57 58 59 59 59 58 56 56 57 54 53 54 55 55 54 54 53 51
34 33 31 30 29 25 24 25 24 25 26 28 28 30 29 27 46 52 54 55 55 54 54 55 55 55 56 57 57 56 56 57 57 57 57 58 58 58 57 57 57 57 56 56 55 55 54 53 52
33 31 23 22 25 22 25 25 25 27 27 27 29 30 30 28 46 52 53 54 54 54 54 54 54 54 56 56 56 56 55 56 57 57 57 57 57 57 58 57 56 58 57 57 56 56 55 54 53
33 31 24 20 21 25 29 22 24 40 40 40 40 37 32 31 45 50 53 54 53 54 54 54 53 54 55 56 56 55 55 56 56 57 57 57 57 58 58 58 58 57 57 57 57 57 56 55 55
33 31 34 31 30 29 28 29 35 41 41 41 41 40 41 36 43 49 52 54 53 53 54 53 53 54 55 55 56 55 55 54 55 55 56 57 57 57 58 58 58 58 58 57 57 56 56 56 56
33 39 33 33 22 22 25 28 32 38 38 41 42 42 45 43 39 50 52 53 54 53 54 54 54 55 55 56 56 56 55 55 55 55 54 54 55 56 56 57 57 57 57 57 55 55 55 56 56
35 33 36 35 34 26 23 27 40 39 39 39 41 45 47 43 48 51 52 53 54 53 53 54 54 54 55 56 55 55 56 55 54 54 53 53 53 54 55 56 56 56 56 56 55 55 55 55 54
35 32 32 31 28 31 28 27 43 43 40 40 40 44 47 47 49 51 52 52 52 52 52 53 53 54 54 55 56 56 56 55 55 54 53 52 52 53 54 55 55 56 55 55 56 56 56 55 55

GFSSGP_sfc_dewp_087.txt.gz
Dewpoint
58 42 35 35 25 27 21 18 22 20 21 21 24 24 25 26 37 28 55 65 68 68 70 69 69 70 72 72 72 73 73 73 73 73 72 72 72 72 72 72 72 72 72 72 72 72 71 71 71
47 35 36 33 20 9 7 23 22 23 24 26 24 36 33 28 46 52 56 66 67 69 70 69 69 69 71 72 72 71 73 73 73 73 72 72 72 72 72 72 71 71 71 72 71 71 71 71 70
39 35 32 30 23 5 6 17 22 24 26 23 19 31 32 35 55 55 59 66 68 68 69 69 68 69 70 71 72 71 71 72 72 72 72 72 72 72 72 71 71 70 71 71 71 71 71 70 69
36 35 32 26 21 22 13 19 25 25 22 21 20 21 37 48 57 59 61 67 67 68 68 69 68 69 70 71 72 70 70 71 71 71 72 72 72 72 70 69 70 71 71 71 70 70 70 69 69
32 31 24 26 24 23 25 25 26 24 24 24 23 22 33 50 59 62 65 67 67 68 69 69 69 69 70 71 71 71 70 70 71 71 71 71 71 70 69 68 68 69 69 69 69 69 69 68 68
26 29 21 15 21 20 24 25 23 21 21 22 22 23 32 56 60 64 67 67 69 68 69 68 69 69 69 70 70 70 70 70 70 71 70 69 69 68 69 68 67 68 69 69 69 69 68 68 67
21 25 15 19 21 20 18 25 22 19 19 20 29 31 40 51 60 65 67 67 69 69 68 68 69 70 69 69 69 69 69 69 69 68 68 68 68 67 68 67 67 67 68 68 68 68 67 67 66
23 23 20 22 17 14 17 22 22 21 20 25 37 31 27 48 62 65 67 67 68 69 68 68 69 70 70 70 68 68 68 68 67 67 67 66 67 67 67 67 67 67 68 68 68 67 66 66 65
27 19 18 17 18 15 22 22 24 23 22 23 25 34 38 55 63 64 64 66 67 68 68 68 69 70 70 70 68 68 67 67 66 66 65 64 66 66 66 66 66 66 67 67 67 66 65 65 64
27 23 20 21 19 16 18 21 21 23 23 23 25 30 43 57 61 62 62 63 65 64 66 67 68 69 70 68 67 68 68 67 66 66 65 67 66 66 65 65 65 66 66 66 66 65 64 63 61
30 24 23 22 22 23 19 21 21 20 21 25 24 29 42 47 56 61 61 61 63 65 65 66 67 68 68 67 67 66 66 66 66 64 64 65 65 64 64 65 65 65 65 64 65 64 62 62 61
28 32 27 23 24 26 24 21 22 24 25 28 28 29 29 38 47 55 61 60 61 64 66 65 66 66 66 67 67 66 64 64 64 65 63 64 64 63 62 64 65 64 64 64 64 62 62 61 60
31 31 31 30 30 28 28 27 28 28 28 28 28 28 29 30 39 49 56 59 61 62 64 65 65 65 65 65 66 65 65 64 64 64 63 63 63 62 63 64 64 64 62 62 63 60 60 60 59
22 23 24 26 26 26 26 26 27 26 29 29 28 28 28 28 33 41 55 57 59 60 62 66 64 65 64 64 64 64 65 65 64 64 63 63 63 63 64 65 63 63 61 62 61 59 59 58 58
24 21 26 28 28 27 28 22 24 27 28 28 28 28 28 27 27 40 45 54 58 59 62 64 64 64 64 63 64 63 63 64 63 62 63 63 63 63 64 63 63 62 60 59 59 59 58 57 56
21 24 19 24 28 28 26 19 22 24 26 25 26 26 27 27 27 33 44 51 55 58 60 63 63 62 64 64 63 63 62 63 62 62 62 63 63 63 63 62 62 62 60 58 57 56 56 56 55
21 12 22 22 26 26 25 22 25 28 28 28 27 27 26 26 27 31 42 50 55 57 59 61 63 61 62 63 63 62 62 62 62 62 61 62 62 63 63 62 62 60 58 58 56 56 56 55 55
11 17 23 21 25 24 21 21 22 26 26 28 29 29 30 30 29 31 34 46 54 58 60 61 62 61 63 63 62 62 61 61 61 61 61 62 62 63 62 62 60 60 59 56 55 56 56 56 55
21 22 21 21 21 20 19 20 22 25 25 26 27 28 29 30 31 32 35 50 56 59 59 59 60 60 61 62 61 61 60 60 60 61 62 61 62 62 62 60 59 59 59 56 56 56 56 55 55
19 17 17 22 23 26 26 26 26 26 25 25 27 28 29 30 30 33 46 53 55 57 58 59 59 59 59 60 61 61 61 61 61 61 61 61 61 62 61 59 58 58 59 57 55 56 55 55 55
20 20 23 23 28 29 27 23 22 24 25 26 26 28 28 29 30 33 48 53 55 56 58 57 58 58 59 59 59 60 61 61 61 60 61 61 61 62 60 59 59 59 57 55 55 56 55 53 55
24 27 27 30 28 20 29 18 19 24 26 27 29 30 30 30 32 33 46 53 55 56 57 57 57 57 58 59 57 58 57 57 59 60 60 59 60 60 58 59 58 56 56 56 55 54 54 56 54
29 34 31 30 29 28 26 25 23 24 22 26 29 30 33 34 34 35 47 52 55 56 55 56 57 56 56 58 58 58 57 58 59 60 59 57 57 57 57 57 55 54 55 56 55 54 56 57 55
34 30 30 31 28 24 24 24 20 22 26 34 38 37 34 34 34 40 51 54 55 55 55 55 55 56 56 57 58 58 58 58 58 58 57 56 56 57 55 54 54 54 55 56 56 56 56 57 56
31 29 24 24 23 18 25 24 24 28 39 41 42 42 42 40 36 50 53 53 55 55 55 56 55 55 56 57 58 58 58 58 58 57 57 57 56 56 57 56 56 56 57 56 56 57 55 55 55
31 30 23 16 21 22 29 24 23 40 41 41 42 44 46 47 45 48 52 54 54 54 54 55 55 54 55 56 57 57 57 58 57 57 58 58 57 56 56 56 56 57 57 57 57 56 56 56 57
33 30 32 29 29 25 23 28 31 39 39 39 41 43 45 47 48 44 52 54 54 54 54 54 54 53 55 56 56 56 57 57 57 58 58 58 59 58 57 56 55 55 54 55 57 56 55 56 57
33 36 31 31 22 21 22 24 24 37 38 39 40 43 46 48 48 44 49 54 54 54 54 55 54 53 55 55 56 55 55 56 57 57 57 57 58 58 58 58 56 56 55 53 54 55 57 55 55
33 32 33 34 33 25 23 23 39 38 37 39 41 43 46 48 49 50 52 53 53 54 54 54 54 53 55 55 55 56 55 56 56 56 57 57 57 57 58 57 57 57 56 54 53 52 55 56 55
34 32 31 29 27 32 29 26 39 33 37 40 43 44 46 47 51 52 51 52 52 53 53 53 54 53 55 55 56 56 57 56 55 55 55 56 57 57 57 58 57 57 57 57 56 53 53 55 55

GFSSGP_sfc_dewp_090.txt.gz
Dewpoint
52 45 32 33 21 15 6 5 14 19 20 21 24 19 21 24 30 28 53 61 62 65 67 69 70 71 72 73 73 73 73 73 73 73 73 73 73 73 73 73 72 72 72 71 71 71 71 71 72
41 34 29 27 12 5 0 8 13 14 22 25 24 24 27 24 31 41 54 63 64 64 67 68 70 71 72 72 73 73 73 73 73 73 73 73 73 72 72 72 72 72 72 72 71 71 71 71 71
40 30 21 16 13 4 0 6 9 19 21 23 23 27 28 28 42 43 53 63 65 64 65 68 69 69 72 72 72 73 73 73 73 72 73 73 73 72 72 72 71 72 72 72 71 71 71 71 70
33 26 25 16 6 11 4 5 15 22 19 20 21 21 24 38 47 48 54 63 63 63 65 68 68 69 71 72 72 71 72 72 72 72 72 72 72 72 72 71 71 71 71 71 71 71 71 70 69
32 22 13 12 7 7 17 12 23 24 22 17 19 21 24 40 50 57 56 61 61 64 66 69 68 69 70 72 72 70 71 71 71 72 72 72 72 71 70 70 70 71 70 70 70 71 70 69 68
24 21 10 4 6 11 11 15 17 18 17 14 17 20 26 47 53 58 61 63 64 66 68 69 68 69 69 71 71 69 70 71 71 71 71 71 71 69 69 69 69 69 69 69 70 69 69 68 68
23 16 8 5 4 8 11 14 18 12 7 7 20 23 31 40 53 62 63 64 67 69 69 70 70 69 69 69 69 69 69 69 70 70 70 69 68 68 68 68 69 69 68 69 69 68 68 68 67
23 17 14 9 8 10 8 12 15 14 11 24 25 22 30 36 52 63 65 65 68 69 70 70 70 69 69 69 68 69 69 69 69 68 68 68 68 68 68 68 68 68 69 69 68 67 67 67 66
26 18 14 12 13 11 14 15 14 17 16 18 23 25 30 42 51 59 64 66 66 68 69 70 69 70 69 69 69 69 69 68 67 67 66 66 69 68 67 66 66 67 67 68 68 67 66 65 65
24 21 19 19 17 14 12 12 12 17 16 18 21 23 25 33 44 48 56 61 64 66 69 69 70 69 70 68 70 69 69 68 69 68 68 69 67 66 64 65 65 66 66 66 66 66 65 64 63
25 21 22 21 21 19 17 16 16 15 15 17 20 22 23 34 34 40 46 55 58 63 67 68 69 69 70 70 69 69 69 68 67 68 68 67 67 66 64 65 66 67 66 66 66 65 66 63 62
26 24 24 22 21 19 19 18 17 18 21 21 19 21 25 27 31 32 40 45 54 59 65 68 68 69 69 70 69 68 69 68 68 67 68 67 65 66 65 63 64 65 66 65 65 65 65 62 61
25 21 21 23 23 22 22 21 21 22 23 24 24 26 29 29 28 29 32 38 47 57 63 67 68 68 69 68 68 68 68 68 67 67 66 65 65 64 64 63 64 65 65 64 64 64 63 62 61
19 21 21 22 22 24 23 23 24 25 25 25 26 26 28 29 30 28 31 39 44 53 60 66 67 68 68 67 67 67 67 66 67 67 65 66 64 64 62 64 65 66 65 64 63 64 63 61 59
26 24 24 23 24 24 25 24 23 22 23 24 24 26 26 27 28 28 30 36 45 51 57 64 67 67 66 66 67 67 66 67 66 66 64 65 64 64 64 64 63 65 63 63 63 64 62 59 57
20 20 17 14 20 23 24 17 14 20 22 23 24 25 26 27 28 27 29 32 37 47 54 62 65 66 66 65 65 66 66 66 65 65 64 63 63 63 64 63 63 64 63 62 62 63 61 59 57
15 10 10 12 23 23 24 16 18 24 25 24 25 26 26 28 28 29 30 32 38 44 53 60 65 65 66 65 64 65 65 64 65 64 63 63 63 63 64 64 63 63 62 60 62 62 60 58 56
5 5 10 12 13 22 19 17 18 20 18 19 19 22 25 27 28 30 31 32 34 46 54 59 63 65 64 65 65 64 64 63 64 63 62 62 63 63 63 62 62 61 60 60 60 60 59 57 55
10 12 10 14 17 16 14 11 10 16 18 21 20 20 21 24 28 31 33 36 40 49 55 57 62 63 63 63 63 62 62 61 62 62 62 62 63 63 63 62 61 60 59 59 61 60 59 56 57
17 11 8 9 15 20 18 19 22 21 21 21 21 21 22 23 24 29 32 35 47 49 55 57 60 61 63 62 61 60 61 61 62 62 62 62 62 62 62 61 60 60 59 59 60 59 58 57 58
20 17 16 15 18 23 24 19 13 21 22 22 23 24 25 26 26 27 30 34 47 51 55 57 59 61 62 61 60 60 62 62 62 61 61 61 62 62 62 61 60 60 59 59 59 60 57 55 57
17 18 19 19 23 18 24 8 10 14 17 23 28 32 32 32 30 29 29 32 45 52 55 57 59 60 61 61 59 60 57 58 61 60 61 62 61 61 61 60 60 60 59 59 59 59 59 58 55
19 28 27 27 26 23 20 19 10 17 19 26 33 39 40 38 33 33 31 32 40 52 56 58 59 59 59 59 59 58 57 57 59 61 61 60 61 61 60 60 60 59 59 60 60 59 59 57 56
29 31 29 26 24 20 18 18 7 18 26 34 38 40 42 42 42 35 35 35 45 53 57 58 58 58 59 59 58 58 57 57 58 59 59 58 58 60 59 60 59 59 59 59 59 58 59 58 58
28 24 22 22 22 14 21 19 16 25 37 39 39 40 42 44 45 44 43 46 49 55 55 57 57 57 58 58 57 58 58 58 58 59 57 56 56 56 57 57 57 58 59 59 59 58 59 58 58
26 25 19 11 14 14 22 21 22 36 39 38 39 40 41 43 46 46 45 50 51 54 55 56 56 56 57 57 57 57 58 58 58 59 58 56 56 56 56 56 56 57 57 58 58 58 57 58 58
29 29 28 27 24 23 15 20 32 34 35 36 37 39 41 44 48 47 46 50 52 55 55 56 57 56 56 56 57 57 58 58 58 58 58 57 57 57 57 57 57 57 57 57 58 57 56 57 58
31 30 29 29 21 18 15 17 21 34 32 34 36 40 42 46 49 50 44 50 53 54 55 56 57 55 55 56 56 56 57 57 58 59 58 58 57 57 56 56 56 56 55 55 56 56 56 56 56
32 30 32 31 30 25 19 22 37 33 31 31 37 40 43 48 50 51 51 51 53 54 54 56 55 54 55 55 55 56 56 57 57 57 58 58 58 57 56 55 54 53 53 53 52 51 53 56 55
30 28 30 27 28 28 28 23 34 33 25 25 33 40 44 45 47 51 51 52 52 53 54 55 55 54 55 55 55 56 56 56 56 56 57 58 58 58 58 57 57 56 55 54 52 51 50 54 55

GFSSGP_sfc_dewp_093.txt.gz
Dewpoint
53 46 34 24 19 15 5 3 1 9 14 17 21 15 17 21 23 31 48 55 56 60 66 69 71 72 73 73 73 73 73 73 73 73 73 73 73 73 73 73 73 73 73 72 71 71 71 71 71
42 36 27 19 16 7 5 3 4 7 14 23 23 23 21 23 27 40 46 58 58 59 65 67 71 72 73 73 73 73 73 73 73 73 73 73 73 73 73 73 73 73 72 72 71 71 71 72 71
46 32 19 15 12 10 2 2 5 6 18 18 21 23 22 23 30 33 51 58 57 56 62 68 70 71 72 72 73 73 73 73 73 73 73 73 73 73 73 72 72 72 72 72 71 71 71 71 70
36 27 20 14 12 8 8 6 4 7 18 17 17 19 26 33 40 39 52 57 56 56 59 69 69 70 72 72 73 73 73 72 72 72 72 73 73 73 72 71 72 72 72 71 71 71 71 70 69
28 19 13 9 10 9 5 7 10 12 18 17 18 18 22 32 40 48 52 55 56 58 62 69 68 70 71 72 72 71 72 72 72 72 72 71 72 71 70 71 71 71 71 71 71 71 70 69 69
24 21 14 12 11 9 8 7 10 16 18 20 15 16 22 39 43 49 52 57 58 60 64 69 69 69 70 71 71 70 71 71 71 71 72 72 71 69 70 71 70 70 70 69 70 70 69 69 68
25 20 15 14 13 11 8 12 11 11 11 16 16 16 22 34 48 55 55 58 60 64 67 69 69 69 69 69 70 69 69 71 71 70 70 70 70 69 70 69 69 68 70 70 69 69 68 68 67
25 23 19 16 14 12 9 9 10 10 13 12 13 13 20 38 47 57 60 60 64 67 68 69 69 69 69 70 69 69 69 69 70 70 68 68 68 68 68 68 69 68 69 69 69 68 68 67 66
28 23 19 17 15 15 12 12 11 12 11 10 17 18 30 34 41 50 61 63 65 67 68 70 69 69 68 68 69 69 69 69 69 69 68 67 68 68 68 67 67 67 67 66 67 67 66 66 65
27 24 21 18 17 15 14 13 13 14 14 14 15 22 23 24 30 41 50 60 63 66 67 69 70 69 68 65 69 68 68 68 69 68 68 69 68 68 64 66 66 66 66 67 67 66 65 65 64
25 24 23 20 19 20 18 16 16 14 14 17 18 22 22 21 27 37 38 47 57 62 64 68 69 70 69 66 66 66 67 66 67 68 67 66 66 68 69 66 65 66 66 67 66 65 66 65 65
22 23 24 23 21 21 21 20 18 19 21 20 19 19 21 22 26 31 33 36 45 56 61 69 69 68 70 67 66 65 64 67 67 68 70 68 67 69 67 64 64 64 65 66 65 65 65 64 63
21 22 22 24 22 23 22 20 20 20 21 21 21 22 24 23 24 26 28 30 37 47 58 66 68 68 68 70 68 68 67 65 67 68 68 67 66 67 65 64 62 66 66 64 64 64 64 64 63
15 14 16 18 19 20 21 22 23 24 23 23 23 24 26 27 28 27 26 28 33 40 51 66 67 68 67 68 69 68 68 68 67 66 68 68 67 66 64 63 63 63 64 64 64 64 63 63 62
23 21 23 21 21 21 23 22 23 23 23 23 23 24 25 26 27 29 29 29 33 38 43 63 68 68 68 68 68 68 66 67 66 66 68 67 66 66 64 64 64 65 64 65 64 63 63 63 62
17 18 12 11 13 15 19 21 19 17 19 22 22 22 24 25 26 27 29 26 28 35 43 53 62 68 68 67 67 67 66 67 67 67 67 67 66 65 64 64 65 65 64 64 63 62 62 61 60
17 10 10 8 9 15 16 17 15 18 20 22 23 23 23 25 25 27 29 27 25 32 40 51 62 67 67 66 67 67 67 67 67 66 66 66 66 64 64 65 64 64 63 63 63 62 61 60 59
5 5 5 6 6 11 18 18 16 15 19 20 18 18 19 22 23 26 29 30 27 31 41 49 59 67 66 66 66 66 65 66 66 66 66 65 65 64 64 64 63 64 62 62 62 61 61 60 57
10 8 7 4 3 14 15 13 9 10 10 11 13 15 16 17 19 23 29 33 33 35 40 50 57 66 66 64 64 64 64 63 64 64 64 64 64 63 63 62 63 63 61 61 61 61 60 59 58
14 12 15 9 5 5 6 12 12 12 14 16 17 17 17 17 17 20 24 31 36 37 41 51 55 61 64 63 63 63 63 62 63 64 63 64 63 63 62 62 62 61 60 60 60 60 59 59 58
16 16 14 9 9 12 15 13 14 15 16 16 17 18 20 23 24 24 24 29 36 39 45 49 53 59 64 64 63 62 62 62 62 62 63 63 63 63 63 62 62 60 60 60 60 60 59 58 58
17 15 13 15 14 11 20 10 12 12 12 16 21 28 35 37 35 34 29 29 33 39 48 51 53 59 62 63 60 61 60 59 60 61 62 62 62 62 62 62 61 60 60 60 60 60 59 58 56
19 18 16 17 18 19 18 14 12 12 8 19 28 34 37 39 39 38 33 31 30 38 47 53 54 57 61 62 60 61 60 59 59 61 62 62 62 61 62 61 61 60 60 60 60 60 60 59 57
19 21 24 25 23 19 17 13 9 10 22 30 35 36 39 40 41 41 37 35 30 35 51 55 56 57 59 60 60 60 60 58 55 60 61 61 61 61 61 61 60 60 60 60 60 60 59 59 59
23 26 22 19 17 14 12 11 12 23 33 34 35 37 39 42 44 43 41 34 34 39 53 57 56 56 58 60 60 60 59 58 57 58 60 59 59 59 60 60 60 60 60 60 60 60 60 60 59
23 23 18 12 14 12 14 15 11 29 34 33 36 38 39 42 46 46 44 44 44 48 56 56 55 55 57 59 59 58 57 57 57 60 60 59 57 58 59 60 60 60 60 60 60 60 60 60 60
23 24 22 23 24 23 21 17 30 30 34 33 33 37 39 42 46 49 48 45 49 54 56 57 56 55 57 58 59 57 57 57 58 59 59 58 57 57 57 58 59 59 59 59 59 58 58 59 59
24 23 25 26 18 14 8 8 26 33 31 29 29 36 39 43 46 50 50 45 50 55 55 57 57 56 56 57 57 56 57 57 58 59 58 57 57 57 56 57 57 58 59 59 58 57 58 58 59
24 29 27 26 22 19 16 22 35 29 26 25 28 35 40 44 45 47 51 51 51 55 55 56 57 56 56 55 56 57 56 57 58 59 59 57 57 57 56 57 57 57 57 58 58 58 57 56 56
24 25 28 25 24 23 27 28 32 30 23 27 31 37 40 43 43 44 46 52 54 54 55 55 57 56 56 55 55 56 56 57 57 57 58 58 56 56 56 56 55 55 54 54 53 53 53 53 54

GFSSGP_sfc_dewp_096.txt.gz
Dewpoint
52 46 41 33 19 18 11 6 6 4 5 10 17 18 16 20 32 38 50 55 65 64 69 71 72 72 73 73 73 73 73 73 73 73 73 73 74 73 73 73 73 73 73 72 72 71 71 72 72
41 38 36 25 16 10 7 7 5 3 11 22 20 21 18 20 34 42 51 56 63 64 67 69 71 72 72 73 73 73 73 73 73 73 73 73 73 73 73 73 73 73 73 72 72 71 71 72 71
44 35 29 19 14 10 10 9 5 7 17 19 18 18 18 20 29 42 54 58 61 63 64 68 70 71 72 73 73 73 73 73 73 73 73 73 73 73 73 72 73 72 72 72 72 72 72 71 70
34 36 28 15 11 10 8 10 10 5 14 15 13 13 22 40 40 41 54 56 57 61 63 69 70 71 72 72 73 73 73 72 72 72 73 73 72 73 72 72 72 72 71 72 72 72 71 70 69
29 27 20 14 11 10 11 11 10 9 9 18 14 14 20 31 44 51 56 56 58 62 70 69 69 70 72 72 73 72 72 72 72 72 72 72 72 72 71 70 71 71 71 71 71 71 70 70 69
26 25 18 14 13 13 12 12 10 8 11 16 16 14 25 41 41 51 58 60 63 69 70 69 69 70 71 72 71 71 71 71 72 72 72 72 72 70 70 70 70 71 70 70 70 70 70 69 69
28 24 20 18 17 16 14 16 13 8 9 11 19 18 24 27 50 57 57 61 66 69 70 69 69 70 70 70 70 69 70 70 71 71 71 71 70 69 70 70 69 69 69 69 70 69 69 69 68
31 27 23 21 18 17 17 16 10 9 10 19 13 14 21 45 51 62 66 63 67 70 71 70 70 69 69 70 69 68 69 70 70 71 70 70 69 69 69 69 68 68 68 68 69 68 68 67 67
31 26 23 22 21 20 20 17 15 11 10 9 15 17 29 42 46 57 63 65 67 69 70 71 70 69 69 69 69 69 69 69 70 70 69 68 70 69 69 68 67 67 67 67 67 67 67 65 65
25 28 25 23 21 19 17 15 14 13 12 12 15 22 23 31 36 45 57 62 64 67 69 70 70 69 70 67 69 69 69 69 70 70 70 70 69 68 66 67 66 66 66 66 67 67 66 65 65
22 25 27 24 22 21 19 18 17 14 13 18 20 25 26 27 31 38 44 55 61 65 67 70 70 70 70 67 69 68 68 68 69 69 69 70 68 68 68 66 66 66 66 66 66 66 66 65 65
18 20 22 23 23 21 21 21 20 20 24 25 22 23 25 27 27 30 41 38 44 62 66 68 69 70 70 69 68 67 67 67 68 68 69 68 67 68 67 65 65 65 65 65 65 65 65 64 65
18 17 17 20 21 22 23 21 23 22 21 20 21 23 25 25 26 25 26 36 38 47 63 68 68 69 69 70 68 68 67 67 68 68 69 68 67 67 66 65 64 63 64 64 64 63 63 64 63
16 16 13 14 18 17 19 20 20 23 23 22 23 22 24 26 27 27 30 31 36 41 52 69 68 69 69 68 69 68 69 68 68 68 68 68 68 67 66 65 63 63 64 65 64 63 62 63 63
18 15 14 15 13 13 17 17 19 21 22 22 23 23 25 25 26 29 32 34 35 37 46 68 68 68 68 68 69 68 68 68 68 67 68 67 67 67 65 64 64 64 64 64 63 63 63 63 63
20 20 17 18 19 18 20 20 19 22 22 22 24 24 25 26 26 28 33 33 31 33 40 65 68 68 68 68 68 66 68 67 67 67 68 67 67 66 65 64 64 64 64 64 63 63 62 62 61
21 17 17 15 12 10 9 11 12 16 18 18 18 23 24 25 26 28 30 32 32 31 41 53 67 68 67 68 67 66 67 67 66 66 66 67 67 65 65 64 64 64 64 63 63 62 62 61 61
15 12 13 11 10 9 11 11 12 16 17 20 22 24 23 24 25 28 31 30 31 32 38 52 67 68 67 67 66 66 65 65 66 66 66 65 66 65 65 64 64 64 63 63 62 61 61 61 60
11 11 10 10 6 8 11 12 9 17 17 13 14 18 18 21 21 22 33 40 41 43 45 51 62 68 67 66 65 65 64 64 65 66 66 65 65 64 64 63 63 63 62 62 62 61 60 60 61
12 12 12 11 11 10 7 6 5 7 8 12 11 12 15 17 18 20 24 37 44 42 45 51 58 67 66 65 65 64 63 64 64 64 64 64 64 64 63 63 62 62 62 61 61 60 59 60 60
12 13 12 12 10 9 9 6 10 12 15 15 15 17 19 20 22 27 31 36 41 45 49 50 54 66 66 65 64 63 63 64 64 63 63 63 64 63 63 63 62 62 61 61 61 60 59 58 59
11 12 13 15 14 9 9 8 10 13 14 15 16 19 24 35 38 38 38 39 41 45 50 49 52 56 66 64 63 63 62 61 61 61 62 62 63 63 63 62 62 62 61 61 60 61 59 59 57
15 14 15 17 15 14 13 12 12 15 12 14 28 34 41 42 42 42 42 41 38 41 52 53 53 54 64 64 63 63 61 61 61 61 61 61 62 62 62 62 62 61 61 61 60 60 59 59 58
23 15 18 19 17 16 15 15 13 14 14 23 34 36 39 42 43 43 44 43 39 42 50 54 54 56 63 63 63 63 61 60 59 60 61 61 61 61 61 62 61 61 60 60 60 60 60 59 58
23 23 23 22 20 19 17 13 16 18 32 33 33 36 41 44 46 48 44 43 41 42 51 56 54 55 62 62 62 63 61 61 60 60 60 61 60 60 61 61 61 60 60 60 60 60 60 59 58
27 24 24 17 18 18 16 13 19 22 32 33 37 38 41 43 46 48 50 50 47 47 55 56 55 55 60 60 61 61 61 60 59 59 61 60 59 59 61 60 60 60 60 60 60 60 59 59 59
28 26 30 27 23 25 30 15 29 32 34 32 33 37 41 42 45 47 49 52 49 57 58 58 56 55 58 60 60 60 60 59 59 60 60 59 58 58 59 60 60 60 59 60 60 59 58 58 59
29 28 24 26 26 23 29 25 32 35 31 27 27 37 41 42 44 45 47 49 54 56 57 58 59 57 59 59 59 59 58 58 60 59 58 57 58 57 58 58 59 59 59 59 59 59 59 58 59
21 28 26 28 25 24 20 27 38 35 28 27 33 37 41 42 42 43 43 46 49 56 55 56 57 58 58 58 58 58 58 58 59 59 58 57 57 57 56 57 57 59 59 59 59 59 58 58 58
17 25 30 26 22 22 29 32 41 34 27 34 36 38 40 40 40 40 41 41 42 48 54 55 56 57 58 57 57 58 58 58 59 58 58 57 56 56 57 57 57 56 57 59 58 58 58 57 57

GFSSGP_sfc_dewp_099.txt.gz
Dewpoint
54 51 47 37 24 20 16 13 13 10 7 13 21 21 20 25 39 44 60 65 67 68 70 71 72 72 73 73 73 73 73 73 74 73 73 73 73 73 73 73 73 73 74 72 72 72 72 71 72
46 42 40 34 18 14 13 16 13 10 14 26 21 20 18 25 43 53 61 64 67 69 70 70 71 72 72 73 72 73 73 73 73 73 73 73 73 73 73 73 73 73 73 72 72 72 71 71 71
44 40 32 28 19 14 12 13 12 12 18 24 21 20 24 32 47 51 62 64 65 67 69 70 71 71 72 72 73 72 73 73 73 73 73 74 73 73 73 72 72 73 73 72 72 72 71 71 70
36 36 34 22 16 14 13 10 9 8 14 17 17 19 26 43 47 53 62 63 64 64 68 69 70 71 72 72 72 73 72 72 72 72 73 73 73 73 73 72 72 73 72 72 72 72 71 70 69
31 31 27 20 17 15 13 12 11 12 15 20 17 16 23 48 54 56 58 60 62 65 68 69 69 70 71 72 72 72 72 72 72 72 72 72 73 72 72 72 72 72 72 72 71 71 70 69 69
25 27 22 22 20 17 14 13 12 13 14 15 16 16 30 45 52 55 57 60 67 68 68 69 70 70 71 71 71 71 71 71 70 72 72 72 72 71 71 71 70 71 71 71 70 70 70 69 69
30 25 21 20 18 18 18 20 18 15 11 12 20 18 20 50 52 56 57 66 68 69 68 68 69 70 70 70 70 70 70 70 69 70 71 71 70 70 70 70 70 70 70 69 70 70 69 69 68
31 30 27 24 20 20 21 20 20 15 11 21 17 16 22 50 55 57 58 65 69 69 68 67 68 68 68 69 68 69 69 68 69 70 70 70 69 69 69 69 69 68 69 70 69 68 68 67 66
34 30 28 27 25 24 25 23 22 18 10 16 22 26 45 50 54 56 59 63 67 68 68 68 68 68 68 68 68 68 69 68 69 70 69 68 69 68 68 68 68 68 68 67 67 67 67 66 65
24 27 29 27 26 24 23 21 21 21 17 15 24 28 43 46 50 55 58 60 65 67 68 68 68 68 68 68 68 67 68 68 69 70 69 68 68 68 68 67 66 66 66 66 66 66 66 66 65
25 22 23 24 28 27 25 23 22 22 20 19 22 24 25 32 38 51 58 59 64 66 69 68 68 68 68 67 68 68 68 68 68 68 69 68 68 67 66 65 66 65 66 65 64 64 65 65 65
20 22 22 21 23 24 24 23 22 23 25 27 23 24 27 27 30 34 44 58 59 65 68 68 68 68 68 68 67 67 68 68 68 68 68 68 66 66 65 65 64 65 65 64 63 64 65 65 65
14 15 18 20 20 20 21 20 22 23 22 23 24 24 26 27 27 27 31 37 45 60 66 68 67 68 68 67 68 67 67 67 67 67 67 67 66 65 65 64 64 64 64 63 62 63 63 63 63
18 15 14 14 17 15 17 20 21 22 20 19 21 22 25 26 27 25 26 26 35 37 64 67 67 67 67 67 66 66 67 66 67 67 67 66 66 66 65 64 63 63 63 63 63 62 62 63 63
22 20 20 17 16 15 15 13 15 18 20 20 20 21 22 22 24 27 26 28 29 33 46 66 67 68 68 67 67 66 67 66 67 67 67 66 66 66 65 64 63 63 63 63 63 63 62 62 63
20 22 19 20 18 18 16 14 14 20 19 19 20 22 22 24 24 24 27 28 31 32 38 66 67 67 68 67 67 67 66 66 66 67 67 66 66 65 64 64 63 64 63 63 63 62 61 61 61
21 19 20 19 20 18 15 15 16 18 18 19 20 21 22 22 24 25 26 30 28 30 33 63 67 67 67 67 67 66 66 65 65 65 66 66 65 65 64 63 64 64 64 63 63 62 61 60 61
18 20 20 19 19 17 15 12 11 15 14 14 17 19 21 23 23 25 26 27 31 31 31 57 67 67 67 67 66 65 65 67 65 64 65 65 65 64 63 63 63 63 63 62 62 62 62 61 61
13 14 11 11 12 14 12 9 9 11 11 10 15 13 14 22 21 21 25 30 29 31 31 56 66 66 66 66 65 64 64 65 65 65 64 65 66 65 64 64 63 63 62 61 62 61 61 60 61
11 10 8 9 12 13 10 9 10 9 9 9 11 10 10 11 14 17 19 20 34 33 37 57 66 66 66 66 65 64 65 65 64 65 65 64 65 64 64 63 63 63 62 62 61 61 60 60 60
16 11 7 9 13 14 14 11 10 10 9 8 10 6 9 11 13 16 18 19 26 36 37 60 66 66 65 65 64 63 63 64 64 64 64 64 64 63 63 63 63 63 62 61 61 60 59 58 59
5 14 12 9 11 13 14 11 11 9 9 9 10 14 14 17 19 32 38 40 37 36 39 59 66 65 65 64 64 62 62 61 62 63 63 63 64 63 63 63 62 62 62 61 61 61 60 59 57
13 12 19 13 12 16 14 11 11 14 13 14 19 14 15 24 41 46 46 42 40 38 42 54 65 65 64 64 63 62 62 61 62 62 62 62 62 63 62 62 62 62 62 61 61 61 60 59 58
13 14 24 26 20 16 17 15 13 14 14 18 35 41 43 45 46 47 49 50 51 48 42 46 61 64 64 63 62 62 61 61 60 60 60 61 61 62 62 62 62 62 61 61 61 61 59 59 59
22 16 22 22 21 18 18 16 17 18 18 35 42 42 43 45 46 47 48 48 50 51 45 50 53 63 63 62 62 62 61 61 59 59 60 59 60 60 61 61 61 61 61 61 61 60 60 59 59
20 21 25 17 19 19 19 16 17 18 24 46 43 43 44 45 45 45 46 48 49 53 51 51 59 62 62 62 61 62 62 61 60 59 60 60 59 59 59 60 61 61 61 61 61 60 60 59 59
29 27 26 29 28 27 27 28 33 38 40 42 42 42 43 42 42 43 43 45 46 54 56 56 56 59 61 61 61 61 62 61 60 60 60 59 58 59 60 61 60 61 60 60 60 60 60 59 59
30 31 28 31 23 21 29 31 32 36 38 42 40 40 40 40 39 40 41 43 44 47 54 56 57 57 59 60 60 60 59 59 59 59 58 56 56 58 58 59 60 60 60 60 60 59 60 59 59
32 30 31 31 27 27 25 31 36 38 41 41 38 38 37 37 36 37 38 41 42 44 45 50 56 57 57 59 58 58 58 59 59 58 57 57 57 57 57 57 58 59 59 59 59 59 59 58 58
32 31 31 26 25 26 29 30 38 40 41 38 36 36 36 35 34 34 35 36 38 39 40 42 48 57 58 58 58 58 59 59 59 58 56 57 56 57 56 57 57 58 59 59 59 58 58 58 58

GFSSGP_sfc_dewp_102.txt.gz
Dewpoint
54 49 45 36 22 19 19 16 16 14 13 11 17 21 19 29 38 37 61 64 67 69 71 71 71 72 72 73 72 73 73 73 73 73 73 73 73 73 74 74 73 73 73 72 72 72 72 72 72
44 43 39 32 20 13 12 18 16 16 16 16 22 20 22 42 50 60 61 66 67 69 70 71 72 72 72 72 72 73 73 73 73 73 73 73 73 73 73 73 73 73 73 72 72 71 71 71 71
43 40 32 30 21 14 12 13 13 15 13 11 18 19 22 32 57 59 62 66 68 68 70 71 71 72 72 72 72 72 73 73 73 73 73 73 73 73 73 73 73 73 73 72 71 70 71 71 70
35 36 34 27 21 18 14 11 14 11 12 13 14 13 31 48 54 59 64 67 67 68 69 70 70 71 72 72 72 72 72 72 72 72 73 73 73 73 73 72 73 73 73 72 72 71 71 70 69
31 32 29 26 25 21 17 15 16 15 16 18 17 14 30 51 58 62 63 63 65 67 69 70 69 70 71 72 72 72 72 71 72 72 72 73 73 73 72 72 72 72 72 72 72 71 70 69 69
25 27 24 24 22 21 19 18 16 16 17 16 16 15 38 53 60 62 63 61 65 67 68 69 70 70 71 71 71 71 71 71 71 71 72 72 72 72 71 71 71 71 71 71 71 70 69 69 68
25 24 22 22 21 20 20 22 20 21 18 16 18 18 40 49 56 59 61 65 66 67 67 68 69 70 70 69 70 70 70 70 70 71 71 71 71 70 71 71 70 71 70 70 70 69 69 69 68
32 30 29 24 23 22 23 23 22 23 21 24 19 19 31 50 55 59 65 66 67 67 67 68 68 69 69 69 69 69 70 69 69 70 70 69 69 69 70 69 70 69 69 70 69 68 68 68 67
33 30 27 28 28 27 29 27 27 23 21 23 19 21 33 53 57 61 66 66 67 67 67 67 67 68 68 68 69 69 70 69 68 69 69 69 70 69 69 68 68 68 68 67 68 67 67 66 66
26 28 31 32 30 28 28 27 26 24 23 23 23 29 48 52 54 58 63 65 66 66 66 67 67 67 67 69 67 67 68 68 68 67 67 69 68 68 68 68 67 67 67 67 66 66 66 65 65
25 25 29 27 26 26 26 27 28 25 22 27 27 29 27 38 49 56 60 64 65 66 67 67 67 67 67 67 68 67 68 67 67 67 68 68 68 67 67 66 66 66 65 65 65 64 63 64 64
26 27 25 24 23 23 22 22 23 25 26 27 26 25 26 27 36 45 57 61 63 67 67 67 67 67 67 67 67 66 67 67 67 66 68 68 67 65 65 65 64 65 64 63 62 62 62 63 64
14 15 16 19 22 23 22 22 23 22 23 24 23 23 26 28 28 29 32 54 62 65 67 67 67 67 67 67 67 67 67 67 67 67 67 68 67 65 64 64 64 64 64 63 62 62 62 62 64
21 19 18 16 14 14 16 17 19 19 22 20 20 19 23 25 27 26 27 30 48 63 66 67 67 67 67 67 67 66 67 67 67 67 68 68 67 65 64 64 64 64 63 62 62 62 61 61 63
20 18 20 21 21 18 17 15 14 15 18 18 19 19 20 22 24 27 27 26 28 45 65 67 67 68 67 67 67 66 66 67 67 67 67 67 66 65 64 63 63 63 63 62 61 61 62 62 62
15 20 19 21 22 21 17 17 17 16 17 18 18 18 18 21 25 24 25 27 27 29 55 67 67 67 67 67 67 66 66 66 66 67 67 66 66 65 64 63 63 63 63 63 62 62 61 61 62
18 11 14 16 22 21 20 18 19 18 19 18 18 19 20 20 22 23 25 25 26 29 40 65 67 67 67 67 67 66 66 66 66 66 67 65 65 65 64 63 63 63 63 63 62 62 61 60 61
11 18 18 18 16 20 19 19 19 20 16 13 13 14 17 20 22 22 24 24 27 27 33 60 65 67 67 67 67 65 65 65 66 66 66 65 65 64 64 63 63 63 63 63 62 61 61 60 60
11 7 7 7 10 13 11 9 13 16 11 11 12 14 17 18 20 23 24 27 27 30 31 51 64 66 67 67 66 65 65 65 65 65 65 65 64 64 63 63 63 63 63 62 62 61 61 60 61
14 11 10 11 12 11 9 8 11 12 11 11 11 11 14 14 12 14 17 20 28 29 32 47 62 66 67 66 66 65 65 64 65 65 65 66 65 64 64 63 63 63 63 62 62 61 60 60 61
15 16 16 15 14 13 10 9 11 13 13 13 12 11 11 9 9 12 14 17 20 28 32 46 59 65 66 66 66 64 64 63 62 64 65 65 65 65 64 64 63 63 63 61 61 61 60 59 60
11 14 14 13 10 13 16 9 10 14 14 14 13 12 11 11 12 29 43 48 48 40 34 44 56 64 65 66 65 64 63 62 63 63 64 64 64 64 64 63 63 63 63 62 61 61 60 59 58
6 19 17 14 13 25 17 15 13 15 13 14 14 35 37 41 47 49 49 50 51 51 51 60 61 64 65 65 64 63 63 62 61 62 63 63 64 63 63 63 63 63 63 62 61 61 60 60 58
21 20 18 20 27 20 20 21 15 15 16 16 42 45 45 45 45 46 48 48 49 52 55 56 65 65 65 64 64 63 62 61 61 62 62 62 63 63 63 62 62 62 62 62 61 61 60 60 59
23 20 18 18 20 16 19 17 16 25 25 23 41 44 44 45 44 43 44 45 46 48 54 50 65 64 64 64 63 62 61 61 61 61 61 61 61 61 62 62 62 62 62 61 61 61 60 60 59
17 27 19 14 17 18 19 17 23 40 42 44 44 44 41 40 41 41 42 43 44 45 47 55 60 63 63 62 62 62 62 61 61 60 60 60 60 60 61 61 61 61 61 61 61 61 60 60 59
27 26 26 23 22 21 27 25 34 38 40 40 40 39 38 36 37 36 38 40 42 42 44 47 56 58 61 61 61 61 61 61 60 59 60 60 60 59 60 60 60 61 61 61 61 60 60 60 59
31 29 24 27 17 17 24 28 33 35 39 39 37 36 34 33 33 34 36 36 39 40 42 45 47 52 58 60 61 61 61 60 59 60 60 59 58 59 59 59 60 60 60 60 60 60 60 59 59
31 31 29 29 29 20 23 28 34 34 36 36 36 33 32 31 31 31 32 35 36 38 39 41 43 46 51 58 58 59 59 59 59 59 58 57 57 56 57 58 59 59 59 60 60 60 59 59 59
31 32 30 24 21 28 28 28 36 35 34 33 31 31 30 29 29 29 30 32 34 35 36 39 41 41 45 54 57 58 59 59 58 58 57 57 55 56 56 55 57 57 58 59 59 59 59 59 58

GFSSGP_sfc_dewp_105.txt.gz
Dewpoint
52 46 44 34 22 19 14 14 15 12 11 11 16 20 19 23 36 32 59 64 67 69 71 71 72 72 72 72 72 72 72 72 73 73 73 73 73 73 73 73 73 73 73 72 71 72 72 71 71
42 42 37 30 16 12 8 17 15 14 15 19 14 18 19 32 49 59 60 66 67 69 70 71 71 72 72 72 72 72 73 73 72 73 73 73 73 73 73 73 73 73 73 72 72 72 72 71 71
43 38 33 30 21 9 0 12 15 12 14 13 11 17 19 38 55 58 62 66 68 69 70 70 71 71 72 72 72 72 72 72 72 72 73 73 73 74 73 73 73 73 73 72 71 71 71 71 70
35 36 33 27 24 21 13 13 13 14 15 15 15 14 20 44 57 59 66 67 68 69 70 70 70 71 71 72 72 72 72 71 71 72 73 73 73 73 73 72 73 73 73 71 71 71 71 70 69
31 33 27 27 26 24 19 19 20 20 18 19 18 14 19 48 59 64 66 66 66 68 69 70 69 70 71 72 72 72 71 71 71 72 72 73 73 73 72 71 72 72 72 72 71 71 70 69 69
26 28 25 23 22 22 23 22 20 21 20 20 17 17 21 55 61 63 65 65 66 67 69 69 70 70 71 71 71 71 71 71 71 71 72 72 72 72 71 71 71 71 71 71 71 70 69 69 68
24 24 23 25 22 22 23 24 22 20 21 23 21 19 30 56 61 62 62 64 66 67 68 69 70 70 70 69 69 69 70 70 70 71 71 71 71 70 71 71 71 71 71 70 70 69 69 69 68
32 28 27 22 20 20 24 26 24 26 25 26 20 17 38 49 59 62 63 64 65 66 67 68 69 70 70 69 69 69 69 69 70 70 70 69 70 70 70 70 70 70 69 69 69 69 68 68 67
33 30 27 24 25 26 28 29 29 26 22 25 25 25 33 53 63 65 64 64 64 65 65 67 68 68 68 69 69 69 70 69 69 70 69 68 70 69 69 69 69 68 68 69 68 68 67 67 66
28 30 28 30 29 30 31 29 29 27 28 26 26 29 29 43 53 62 63 62 63 64 64 66 67 67 67 68 69 69 69 69 68 69 69 70 68 68 68 68 67 67 67 67 67 67 66 66 65
25 27 30 30 29 29 26 26 28 27 26 27 27 28 26 29 41 50 59 63 63 64 64 66 66 67 67 67 68 68 68 67 67 67 67 69 68 68 68 66 66 66 67 65 65 65 64 63 64
23 25 26 26 26 24 23 24 23 23 25 28 26 27 25 25 27 31 49 57 64 65 65 66 66 66 67 67 67 68 68 66 66 66 66 68 68 67 66 66 65 65 64 63 63 62 62 63 63
18 17 16 16 17 19 20 20 21 21 22 25 26 27 27 26 26 26 32 51 58 63 65 65 66 66 66 66 66 66 66 66 65 65 67 68 68 67 66 65 65 64 63 63 62 62 61 62 62
23 21 20 22 20 16 15 16 17 20 21 21 24 23 24 27 27 26 27 27 39 58 64 66 66 65 66 66 66 65 65 65 65 66 66 68 68 66 66 64 64 64 63 62 62 61 61 61 62
15 14 13 17 20 20 18 18 18 18 16 16 17 19 21 21 25 28 26 26 28 45 61 66 66 66 66 66 66 66 66 65 65 65 67 67 67 65 64 64 64 64 63 62 61 60 61 61 61
10 12 13 19 18 20 20 18 19 20 17 17 17 17 18 20 21 24 25 26 26 32 51 64 67 67 66 66 66 66 66 66 66 66 66 67 67 65 64 63 64 64 63 61 61 60 60 61 61
13 7 11 11 17 19 20 18 20 19 20 19 19 19 19 19 21 22 24 25 26 27 32 55 66 67 67 66 66 66 66 66 66 66 66 67 66 65 64 63 64 63 63 62 61 61 61 60 61
6 13 14 13 16 8 7 9 9 11 11 11 16 18 17 16 15 17 22 24 26 27 29 37 62 66 67 67 66 66 65 66 66 66 66 65 66 64 64 63 63 63 62 62 62 61 61 60 60
19 18 16 17 16 12 12 11 11 12 11 10 13 14 14 14 15 19 22 25 26 27 29 38 56 66 66 66 66 65 64 65 65 66 66 65 65 64 64 63 63 63 62 62 62 61 61 60 60
19 17 16 16 16 15 15 15 15 14 12 11 12 13 13 14 15 16 16 18 18 22 31 38 54 63 66 66 66 65 65 65 65 65 65 65 65 64 64 64 63 63 62 62 62 61 60 60 60
15 16 15 15 14 13 12 12 12 14 14 13 13 14 15 29 24 13 13 16 26 27 26 37 51 60 65 66 66 63 62 63 64 64 65 65 65 64 64 64 63 63 63 62 62 61 60 59 61
-1 7 11 10 14 12 17 11 14 17 16 17 15 36 45 44 46 44 48 50 50 51 52 42 45 59 64 65 65 63 63 62 63 64 64 65 65 64 64 63 63 63 63 62 62 62 61 60 58
-0 8 16 20 18 16 14 15 16 17 16 17 30 43 43 43 44 44 46 48 48 50 53 54 45 56 62 65 64 64 62 62 62 63 63 64 64 64 64 63 63 63 63 62 62 61 61 61 59
20 20 17 18 19 15 13 16 15 16 17 21 41 41 40 40 40 41 43 45 46 47 48 54 58 59 63 65 64 63 62 62 62 62 63 63 63 64 64 63 63 63 62 62 62 62 61 61 60
21 20 16 12 14 11 13 14 15 36 39 41 40 40 39 37 38 40 41 42 43 43 44 48 57 63 64 65 64 64 63 62 61 62 62 62 62 62 62 63 62 62 62 62 62 61 61 60 60
17 20 17 9 12 13 20 19 31 39 39 38 37 36 36 36 35 37 39 40 40 41 42 44 48 52 64 64 64 64 62 62 61 61 62 61 61 62 62 62 62 62 62 62 62 61 61 61 60
25 17 19 20 19 19 17 19 34 35 35 34 34 34 34 33 33 33 35 37 39 40 40 42 44 48 52 63 63 63 61 60 61 61 61 61 60 60 61 62 62 61 62 61 61 61 60 60 60
25 24 21 25 18 14 17 23 26 30 31 34 33 33 33 32 32 31 32 34 36 38 39 40 43 44 48 56 62 61 60 60 59 59 59 59 58 59 59 59 60 60 61 61 61 60 60 60 60
28 29 29 27 25 18 17 23 32 30 31 32 32 30 32 29 30 28 29 32 33 36 37 39 40 43 45 48 56 60 59 59 59 59 58 59 59 59 59 59 58 59 60 60 60 60 59 59 59
20 24 33 26 23 25 25 22 34 32 32 31 27 27 27 29 26 26 28 30 32 33 34 36 39 41 43 46 50 59 59 59 58 58 58 57 57 57 58 57 57 58 58 59 59 59 59 59 58

GFSSGP_sfc_dewp_108.txt.gz
Dewpoint
51 45 42 30 18 17 12 9 16 11 11 13 17 16 13 18 26 32 59 64 67 68 70 71 72 72 72 72 72 72 73 73 73 73 73 73 73 73 73 73 73 73 73 72 71 71 71 71 72
40 42 36 29 12 4 -1 16 14 14 14 17 14 14 17 22 44 56 61 66 68 69 70 71 71 72 72 72 72 72 73 73 73 73 73 73 73 73 73 73 73 73 73 72 71 71 71 71 71
41 37 28 27 16 2 -2 3 11 14 13 14 12 16 17 23 48 57 62 66 68 68 69 71 71 71 72 72 72 72 72 72 72 72 73 73 73 73 73 73 73 73 73 72 72 72 71 71 70
36 35 31 24 21 19 4 9 13 15 17 17 15 17 19 32 52 59 66 67 68 68 69 70 70 71 72 72 72 72 71 71 71 72 73 73 73 73 73 72 73 73 73 71 70 71 71 70 70
31 32 23 26 25 24 20 19 19 23 21 21 20 18 19 26 59 65 66 67 67 68 69 70 70 70 71 72 72 72 71 71 71 72 72 73 73 73 72 72 72 72 72 71 70 71 70 70 69
25 28 23 19 22 23 23 24 22 22 21 22 22 20 21 47 60 64 66 66 67 68 68 69 70 70 71 71 71 71 70 70 71 71 72 72 72 72 72 71 71 71 71 71 71 70 69 69 69
21 23 20 23 22 22 23 24 24 22 23 26 24 21 23 43 60 63 64 65 66 67 68 69 69 70 70 69 69 69 70 70 70 70 71 71 71 71 71 71 71 71 70 71 70 69 69 69 68
27 24 25 21 19 19 23 25 25 27 27 29 24 21 25 36 59 63 64 64 65 66 68 68 68 69 69 69 68 69 69 69 69 70 70 70 70 70 70 70 70 70 70 70 69 68 68 68 67
33 27 25 22 22 22 28 30 31 29 25 27 28 27 28 44 62 63 63 63 62 64 66 67 67 68 68 69 69 69 69 69 69 69 69 68 70 69 69 69 69 69 69 69 68 68 68 67 66
30 31 27 28 26 28 31 30 29 28 28 28 30 32 31 44 57 60 61 60 61 62 63 66 66 67 67 68 69 69 70 70 70 70 69 69 68 68 69 68 68 68 68 68 68 67 67 66 65
28 26 29 30 30 30 28 27 28 27 25 29 29 30 30 30 43 55 56 61 62 62 62 65 65 66 66 67 68 68 68 68 68 68 69 69 68 67 68 68 68 67 67 67 67 66 66 64 64
26 25 27 26 26 25 23 24 23 24 25 27 26 28 29 28 28 32 46 55 60 64 64 64 65 65 65 66 66 66 67 67 67 67 68 68 68 68 67 66 65 65 65 64 65 65 63 63 64
20 21 19 19 19 17 17 17 19 19 20 22 25 26 28 29 28 26 28 39 56 62 65 64 64 65 65 66 66 66 66 67 67 66 66 67 68 68 67 66 66 65 63 63 62 62 62 62 62
19 15 16 17 18 20 18 19 18 21 21 19 19 22 25 27 29 27 28 28 34 54 62 65 65 65 66 65 65 66 66 67 66 66 65 66 67 67 66 66 66 64 64 62 62 62 62 62 62
13 10 10 13 19 20 20 18 18 20 20 18 18 18 19 21 23 26 25 25 27 31 49 64 65 65 65 65 64 65 65 66 65 64 65 65 66 67 66 65 65 65 62 61 61 60 60 60 61
12 11 8 16 12 12 19 11 15 19 13 12 16 19 19 20 21 21 23 25 25 28 34 51 65 65 65 65 65 65 64 64 64 64 64 66 65 66 66 65 65 65 63 61 61 60 60 60 61
14 5 10 10 16 13 13 12 17 15 12 12 13 11 15 17 19 20 22 24 25 26 29 37 62 65 65 65 65 64 65 65 65 64 64 65 66 66 65 65 64 64 63 62 61 60 60 60 61
5 7 13 15 16 15 13 13 14 16 14 14 14 13 12 13 15 16 18 22 25 26 28 32 50 65 66 66 65 65 65 65 65 65 64 65 65 66 65 64 64 63 63 62 61 60 61 61 61
14 17 19 18 19 18 16 14 15 16 15 15 15 15 14 14 15 16 17 19 23 26 28 30 32 50 65 65 65 64 63 64 65 65 65 65 66 65 65 64 63 63 62 62 62 61 60 60 61
16 16 16 16 17 15 14 11 11 12 14 16 15 15 14 15 42 45 41 22 19 21 25 29 31 33 62 63 64 64 64 65 65 65 65 65 65 65 64 64 63 62 62 62 62 61 60 60 60
15 15 15 13 10 11 10 8 5 10 14 15 18 18 33 43 44 45 45 47 49 49 49 43 34 38 58 62 65 65 65 64 64 64 64 65 65 64 64 64 63 63 62 62 62 62 61 59 60
-0 7 9 5 5 0 16 5 7 10 14 15 14 18 43 43 43 42 43 44 46 46 48 50 53 42 58 64 64 63 62 61 62 63 64 64 65 64 64 64 64 63 63 62 62 62 61 60 59
3 7 5 7 16 17 9 8 4 9 10 23 38 41 39 38 39 40 40 41 42 43 44 46 49 52 52 63 63 64 63 62 62 64 63 63 64 64 64 64 64 63 63 63 62 62 61 61 59
15 18 18 17 17 11 7 5 6 14 35 36 38 37 38 36 36 37 38 39 40 41 42 43 48 54 50 62 64 64 62 61 62 63 63 63 64 64 64 64 63 63 63 63 62 62 61 61 60
18 16 13 10 16 8 8 10 15 34 35 35 35 35 35 34 35 35 35 36 38 39 40 42 44 50 59 62 64 63 62 62 61 62 62 62 62 63 63 63 63 63 63 63 62 62 61 61 60
16 17 14 7 10 11 12 13 30 34 33 35 35 35 33 31 32 32 34 35 36 38 40 40 43 46 50 61 63 64 63 62 62 62 62 62 61 62 62 63 62 63 63 62 62 62 61 61 61
21 17 16 14 13 13 16 20 31 28 29 32 33 33 31 30 30 31 32 34 34 37 39 41 41 44 47 50 62 64 63 62 61 62 62 62 62 61 61 62 62 62 62 62 62 61 61 61 61
21 25 19 23 12 14 16 21 22 26 27 29 30 30 30 30 30 30 31 32 33 35 37 41 41 42 45 48 52 62 61 61 60 60 61 61 61 60 61 61 61 61 61 61 61 61 61 60 60
24 24 23 23 24 17 13 18 30 27 28 27 29 29 29 29 29 30 30 32 32 33 35 36 39 40 43 45 49 58 61 60 60 60 60 60 59 59 60 60 60 59 60 60 60 60 60 59 59
19 21 25 20 23 24 23 21 31 29 29 27 25 25 25 29 28 29 30 29 30 31 32 34 38 40 41 44 49 58 59 60 59 59 59 58 58 58 58 58 58 58 58 59 59 59 59 59 59

GFSSGP_sfc_dewp_111.txt.gz
Dewpoint
49 43 41 31 16 17 8 5 15 10 14 15 16 15 13 14 14 27 60 63 66 68 70 72 72 72 72 72 72 72 73 74 74 73 73 73 73 73 73 73 73 73 73 73 72 72 72 73 72
39 40 36 28 9 -0 -4 11 12 11 11 16 15 15 17 17 28 42 58 65 67 68 70 71 72 72 72 72 72 72 73 74 73 73 73 73 73 73 73 73 73 73 73 73 72 71 72 72 72
40 37 29 26 12 0 -2 2 10 13 14 15 15 16 18 22 32 49 62 66 68 68 69 70 71 71 72 72 72 72 72 73 73 73 73 73 73 73 73 72 72 73 73 73 72 72 72 71 71
38 36 31 19 14 14 4 9 13 16 20 18 16 20 23 33 50 59 64 67 67 68 69 70 70 71 72 72 72 72 72 72 72 72 73 73 73 73 73 72 72 73 73 73 72 72 71 70 70
33 31 20 21 20 21 23 20 20 22 23 21 21 21 25 31 55 62 66 67 67 68 70 70 69 71 71 72 72 72 71 71 71 72 72 73 73 73 72 72 72 72 72 71 72 72 70 70 70
23 28 18 14 19 21 22 24 23 21 21 23 22 23 27 33 51 62 66 67 68 69 70 71 70 70 71 71 71 70 70 70 71 72 72 73 72 72 72 72 72 72 71 70 70 70 70 70 69
19 21 18 19 20 20 22 24 23 22 23 26 25 25 28 31 58 63 66 67 68 70 70 71 70 70 70 70 70 69 69 70 70 71 71 72 71 71 71 71 71 71 70 70 70 70 69 69 69
24 21 21 21 18 15 21 25 26 26 27 30 27 26 30 34 61 64 66 67 68 68 70 70 70 70 71 72 68 69 69 69 70 70 70 70 70 70 70 70 70 71 70 70 70 69 69 68 68
32 24 21 18 19 19 27 30 32 31 29 29 29 30 32 33 55 61 63 64 66 66 67 68 68 69 70 71 70 69 69 69 69 70 69 68 71 71 71 70 69 70 69 69 69 68 68 67 67
32 30 24 25 23 25 30 30 30 29 30 30 30 32 32 29 35 39 58 61 63 65 65 66 67 68 69 69 70 71 70 70 70 70 70 71 71 71 70 69 68 68 68 68 68 67 67 66 66
28 17 29 31 30 31 29 27 27 25 23 26 27 27 29 29 32 35 46 61 61 63 65 66 66 67 68 68 68 68 69 69 69 70 70 70 70 71 71 70 70 70 68 69 68 68 68 67 66
25 27 27 27 26 23 23 23 21 22 23 24 23 27 28 29 30 30 39 45 61 64 63 66 67 66 67 67 67 67 67 68 68 68 69 69 68 69 70 69 70 69 70 69 69 69 68 68 67
22 21 19 18 16 17 18 18 20 20 21 22 23 24 26 27 27 28 30 33 48 61 65 65 66 66 66 66 66 66 66 66 67 68 68 68 67 67 68 68 68 68 68 68 68 68 68 67 66
20 14 12 14 13 14 16 18 20 22 20 18 18 18 20 21 24 27 29 30 35 41 56 66 66 66 66 65 66 66 66 66 67 68 69 68 68 67 67 67 68 68 68 68 67 67 66 66 66
12 11 12 10 17 18 20 12 19 19 16 14 15 17 18 19 21 24 26 31 32 35 38 58 67 67 66 66 67 66 66 66 66 67 69 69 69 68 67 67 66 67 68 67 67 66 66 66 66
17 13 8 13 16 14 17 3 19 17 15 14 16 17 18 18 18 21 27 27 28 31 35 41 57 66 67 67 67 67 67 67 67 67 67 69 69 68 68 66 66 67 66 66 66 65 65 65 65
16 5 8 9 17 16 15 11 14 17 16 17 17 17 18 18 18 20 25 25 25 26 35 39 46 61 66 67 67 67 67 67 67 66 66 67 68 67 67 66 66 66 66 65 65 65 64 64 64
4 7 10 11 16 16 16 15 15 16 16 15 16 18 19 19 18 19 23 24 25 28 35 38 41 50 64 66 67 67 67 66 66 66 65 65 66 65 66 66 66 66 64 64 64 64 64 64 63
17 14 14 18 17 19 18 12 9 11 11 14 15 14 16 18 19 23 42 46 43 37 36 34 37 45 55 62 64 64 63 64 65 65 65 65 65 65 66 66 65 65 64 63 63 63 63 62 63
14 13 12 15 16 12 5 3 4 6 11 10 10 15 17 20 28 43 45 46 48 49 50 51 49 39 42 57 62 63 63 64 65 65 65 65 65 65 65 65 64 64 64 63 63 62 62 62 62
13 12 10 6 7 4 4 2 2 2 6 12 26 39 41 41 41 42 42 43 44 46 47 48 49 52 51 44 58 64 65 66 64 64 65 64 65 65 65 64 64 64 64 63 63 63 62 60 61
3 7 6 5 3 -2 8 -1 3 3 12 35 38 37 36 37 36 37 38 39 41 43 44 45 47 48 51 53 51 62 61 60 61 63 64 65 65 65 64 64 64 64 63 63 63 63 63 62 60
8 8 10 11 10 13 8 7 1 3 21 32 33 33 33 33 32 33 34 35 37 39 41 42 44 47 50 54 54 62 62 62 62 64 65 64 64 64 64 64 64 63 64 64 63 63 63 63 61
18 17 17 18 15 6 4 4 3 26 32 32 31 32 32 31 30 31 32 33 35 36 38 40 42 44 50 55 55 62 63 62 62 63 64 64 64 64 64 64 64 64 63 64 63 63 63 62 62
16 13 11 10 12 4 12 9 12 32 33 32 32 30 31 30 30 30 30 32 34 36 37 39 41 42 46 51 54 62 63 64 63 63 63 63 63 63 63 64 64 63 63 63 64 63 63 62 62
13 12 9 4 5 6 7 3 21 30 30 30 30 29 29 29 28 29 30 31 33 35 37 38 41 41 45 49 54 61 62 62 63 64 63 63 63 63 64 64 64 64 64 63 63 63 63 63 62
17 16 15 12 10 9 7 19 28 27 27 27 29 27 28 29 29 30 29 30 31 33 34 37 39 41 43 46 50 60 62 63 63 64 65 65 64 64 64 64 63 63 63 63 63 63 62 62 62
16 19 20 18 14 11 13 14 25 26 26 27 27 27 27 28 28 29 30 31 31 32 34 36 38 40 42 45 48 52 63 63 63 64 64 64 64 63 63 63 63 63 62 63 62 62 62 62 62
20 19 19 19 17 17 16 22 30 26 27 26 26 26 27 28 28 28 29 30 32 32 32 33 34 37 41 43 46 52 61 62 63 62 64 63 63 62 62 62 63 62 62 62 62 62 61 61 61
20 19 25 21 18 23 23 22 28 28 27 27 22 24 24 28 28 28 28 29 30 30 31 31 32 34 38 42 45 47 51 61 61 61 61 61 60 62 62 62 61 60 61 61 61 60 60 60 60

GFSSGP_sfc_dewp_114.txt.gz
Dewpoint
48 36 36 30 17 8 4 -1 2 3 7 13 13 10 9 14 16 24 33 61 63 64 70 71 71 72 72 73 73 74 74 74 73 73 73 73 73 73 73 73 73 73 74 73 72 73 72 72 73
32 33 33 23 12 8 6 3 5 3 7 12 12 14 16 18 27 33 45 60 64 65 68 69 71 72 72 72 73 73 74 74 73 73 73 73 73 73 73 73 73 73 73 73 71 72 73 72 72
33 34 25 19 15 11 10 7 5 8 12 12 14 17 19 25 38 43 50 62 65 65 67 69 71 71 72 72 72 73 73 73 73 73 73 73 73 73 73 73 73 73 74 73 72 72 72 71 71
29 26 22 17 16 15 13 11 11 9 14 18 17 17 23 40 41 48 56 64 65 65 66 70 70 71 71 72 72 73 73 72 73 73 73 73 73 73 73 72 73 73 73 73 73 72 71 71 70
29 25 19 18 18 17 17 16 18 16 19 19 19 18 23 33 43 50 57 65 64 66 67 71 69 71 71 72 72 72 72 72 72 73 73 73 73 73 72 72 72 73 73 73 73 72 71 70 70
21 25 18 16 17 18 19 20 20 19 19 19 22 22 26 31 38 52 58 65 67 67 69 71 70 71 71 71 71 70 71 71 71 72 72 73 73 72 72 72 72 72 72 72 72 71 70 70 70
23 21 19 18 18 19 19 23 21 21 20 20 26 24 28 31 35 53 59 65 68 69 70 71 71 71 70 70 69 69 70 70 71 71 71 72 71 71 71 71 72 71 70 70 71 70 70 70 69
20 20 17 18 17 19 19 20 21 21 21 30 28 24 28 35 33 43 50 65 68 70 71 71 71 71 70 71 69 69 69 69 70 70 71 70 70 70 71 71 71 71 70 70 70 69 69 69 68
25 15 14 16 17 17 18 23 23 29 27 26 30 30 32 32 28 32 37 54 66 68 69 70 70 70 70 70 70 69 69 69 69 70 70 69 70 71 71 69 70 70 69 69 69 69 68 68 67
18 14 14 16 17 15 17 21 21 25 24 24 26 28 27 25 27 31 32 37 53 66 68 69 69 69 70 67 70 70 69 68 69 69 70 69 69 69 68 68 68 68 68 68 68 68 67 67 65
16 15 13 21 20 21 21 22 21 19 19 21 23 23 24 27 28 30 31 32 41 59 66 68 68 69 70 69 69 68 68 67 68 70 69 69 68 69 68 69 70 71 69 68 67 68 66 65 63
17 17 16 16 21 21 18 15 15 16 19 21 21 24 26 26 28 27 30 29 33 51 62 66 68 68 70 69 67 68 68 69 69 69 70 68 69 69 68 67 67 68 69 67 67 66 66 65 64
18 12 15 20 18 16 16 16 16 16 17 18 21 22 23 22 22 22 24 27 31 39 52 64 66 67 68 69 67 67 68 66 69 69 69 69 69 69 68 66 66 66 67 68 66 66 66 66 65
17 20 17 14 14 12 11 12 13 17 19 18 16 16 17 19 21 23 25 26 30 30 36 47 62 67 66 67 68 68 68 66 68 68 68 69 68 68 67 67 66 66 66 67 67 66 66 65 65
14 12 9 9 7 11 16 13 15 15 18 16 14 13 14 15 16 18 21 25 27 28 31 41 51 62 67 67 66 67 66 66 66 67 70 69 69 68 68 67 66 65 67 67 68 67 65 65 65
16 14 5 10 14 12 12 4 3 17 16 14 12 12 13 14 15 16 19 22 23 25 30 35 40 51 63 66 66 64 64 65 64 66 67 70 69 69 68 67 67 67 68 68 66 66 65 65 64
14 -2 0 2 10 11 9 5 7 11 12 14 14 12 11 14 14 17 19 21 21 25 31 34 40 44 58 64 66 66 66 65 64 64 65 67 69 70 68 67 67 69 68 68 66 65 66 64 64
1 3 3 4 5 11 10 8 8 12 11 14 13 12 13 11 13 18 23 29 38 41 44 44 40 42 46 58 63 62 64 65 64 64 64 66 68 68 68 65 68 68 67 66 67 66 65 64 64
11 10 7 6 10 12 12 8 5 3 3 5 6 9 11 25 36 40 43 44 45 46 47 48 50 52 43 41 54 57 62 63 64 64 65 65 67 68 67 65 66 67 66 66 67 66 66 66 65
12 9 8 9 12 10 3 0 -1 0 4 8 8 23 36 37 38 39 40 42 44 44 46 48 48 49 50 45 41 55 58 61 62 64 66 66 66 66 67 66 66 66 66 65 66 65 64 64 65
12 11 10 7 3 2 2 -1 -4 4 5 20 34 35 35 35 35 36 38 39 41 42 44 44 46 47 48 51 50 43 56 58 60 64 66 66 65 66 68 66 66 66 66 64 64 65 64 62 63
8 7 5 4 4 -2 2 -2 4 2 10 27 31 33 33 33 33 33 34 36 37 38 41 42 44 45 46 49 50 51 46 53 58 61 64 65 67 66 66 67 66 66 66 64 64 64 64 64 61
7 10 9 9 8 8 5 2 5 1 6 27 32 33 33 32 32 31 32 33 34 37 38 40 42 43 45 48 50 52 50 55 56 61 62 64 66 66 66 66 66 65 65 65 64 64 64 64 62
11 12 10 11 11 7 4 0 1 12 29 31 32 31 31 30 31 31 32 32 33 35 36 37 39 40 42 45 49 52 55 53 55 57 61 62 65 65 65 65 65 65 65 64 64 64 64 64 63
14 12 8 7 12 6 5 6 3 30 30 29 29 29 30 30 30 30 30 30 32 32 34 35 35 37 39 43 46 50 54 56 59 57 60 62 63 63 64 65 64 64 65 65 64 64 64 64 63
14 14 7 -4 -3 -2 9 6 13 29 28 28 28 29 29 28 28 29 30 31 31 32 33 35 34 35 37 41 44 48 53 56 58 59 58 61 63 63 64 64 64 64 64 64 64 64 64 64 64
12 13 11 11 10 10 6 5 25 27 28 27 27 28 28 28 28 28 28 30 30 30 32 33 34 34 37 40 44 48 53 59 60 61 62 62 64 63 64 64 64 64 64 64 64 63 63 64 64
13 15 17 16 14 10 8 10 26 28 27 27 28 27 27 28 28 29 28 30 30 30 31 32 33 33 36 40 44 47 52 58 61 63 63 63 64 64 64 64 64 63 63 64 64 63 63 63 63
17 17 18 18 18 16 16 26 30 28 28 26 27 26 30 28 29 31 31 31 32 32 30 31 32 33 35 40 44 47 52 61 62 63 63 64 64 64 64 64 64 63 63 63 63 63 62 62 62
16 17 20 20 18 19 21 25 27 27 27 26 22 23 24 28 28 30 30 30 31 30 30 30 31 32 34 38 42 44 46 51 62 62 63 64 63 64 63 63 62 62 62 62 62 61 61 61 61

GFSSGP_sfc_dewp_117.txt.gz
Dewpoint
51 37 29 26 20 13 10 5 1 2 2 10 12 9 9 11 14 23 35 53 59 60 70 71 71 72 73 73 74 74 73 74 74 73 73 73 73 74 74 74 74 74 74 73 73 72 72 72 73
37 28 29 27 17 12 8 7 5 6 6 10 6 8 11 17 24 33 42 53 60 62 68 69 71 72 73 73 73 73 74 74 73 73 74 73 73 74 74 74 73 73 74 72 72 72 72 73 72
37 29 27 21 19 14 11 10 8 8 9 8 9 14 15 25 36 41 47 60 63 63 66 69 71 71 72 73 73 73 74 73 73 73 73 73 73 74 74 73 73 74 74 72 71 73 73 72 71
29 26 26 21 17 17 16 13 13 10 12 14 13 14 20 37 39 45 49 60 63 63 65 70 70 71 72 72 73 73 73 73 73 73 73 73 73 74 73 73 73 74 74 73 73 73 72 71 71
30 26 22 19 18 18 17 16 17 18 17 18 17 17 19 33 35 47 51 61 64 64 66 71 70 71 71 72 73 73 73 72 72 73 73 73 73 73 73 72 73 73 73 73 73 72 71 70 70
23 23 20 17 17 17 18 20 19 20 19 19 18 20 23 32 34 44 53 60 67 65 67 72 71 71 71 71 71 71 71 72 72 72 72 73 73 72 72 72 72 72 73 72 72 71 70 70 70
23 21 20 19 18 18 19 22 21 20 20 19 24 25 26 29 36 35 42 59 66 68 68 72 71 70 70 70 70 70 71 71 71 72 72 72 72 71 71 72 72 72 72 72 71 70 70 70 70
20 21 19 19 17 18 19 19 21 20 20 28 26 23 26 34 35 34 38 48 64 68 70 71 71 70 70 69 69 69 70 70 71 71 71 71 71 71 71 71 71 71 70 70 70 70 69 69 69
23 16 16 16 16 17 19 18 22 22 26 24 26 29 30 32 29 30 36 41 57 68 69 72 71 70 69 68 69 69 70 70 70 71 70 70 70 71 71 69 70 70 69 70 70 69 69 68 68
20 17 16 16 15 17 17 15 18 20 21 23 24 27 27 26 26 29 32 35 39 56 68 71 71 71 70 66 70 68 68 67 68 69 71 70 69 69 66 68 69 69 68 69 69 68 68 68 66
17 16 17 16 15 19 17 17 18 19 18 20 21 23 24 25 28 30 29 31 33 45 63 69 70 71 71 69 67 67 66 67 67 68 69 69 68 69 67 68 68 70 69 70 68 68 67 66 63
12 14 14 13 12 17 17 17 15 14 18 18 18 20 23 25 26 25 28 28 31 38 56 66 69 70 70 70 66 66 64 67 66 67 71 69 68 69 68 66 67 69 68 68 68 66 66 66 65
6 10 7 6 11 15 14 11 11 11 11 12 14 20 22 21 23 23 24 26 30 34 43 59 67 69 70 70 68 69 68 65 66 66 70 68 66 69 68 66 66 67 66 67 67 66 66 65 64
11 9 12 10 10 9 9 8 6 7 10 16 16 15 16 16 18 19 23 26 29 31 33 41 50 67 68 69 70 70 69 67 68 67 68 71 68 69 66 66 63 65 64 65 66 66 66 66 65
11 8 5 4 4 5 9 8 7 9 14 17 14 14 13 13 13 16 17 21 25 27 31 37 44 50 64 67 67 69 67 67 65 66 70 70 70 70 69 68 65 62 63 68 68 68 67 67 66
9 12 8 6 8 6 10 7 2 10 12 12 11 11 11 11 11 15 18 19 20 22 28 33 34 43 51 60 64 66 66 67 65 66 66 70 69 69 69 68 67 65 65 66 68 67 66 66 65
10 8 11 6 8 7 8 6 3 6 12 9 11 13 11 11 12 14 18 22 23 29 37 40 45 45 47 52 60 64 67 66 65 64 66 68 69 70 68 67 68 69 65 67 66 67 67 66 65
11 7 5 6 5 5 6 7 7 7 7 11 11 10 12 11 14 34 39 42 42 44 45 46 47 50 51 47 53 57 61 64 66 65 64 67 68 69 69 66 68 68 67 67 67 67 67 65 64
12 11 8 5 4 5 8 8 5 5 3 4 3 5 6 21 35 36 39 41 42 44 45 45 47 49 50 49 42 47 59 61 64 66 66 65 66 69 69 67 68 68 67 67 68 67 66 65 66
14 9 7 6 5 8 9 7 2 2 3 3 6 8 29 33 32 34 36 38 41 42 43 45 45 46 47 47 48 45 47 55 61 64 65 67 67 68 68 68 66 69 67 66 67 66 66 66 67
10 8 8 7 7 5 4 2 4 5 4 5 26 30 29 32 33 33 34 35 37 39 41 41 43 44 46 48 47 48 51 49 58 62 63 65 67 68 69 68 67 67 68 66 66 66 65 64 67
8 6 7 7 6 4 8 4 8 9 7 16 27 31 33 33 32 32 33 34 35 36 39 41 41 42 43 46 47 49 47 46 50 60 62 63 66 67 68 69 68 68 67 66 65 65 65 64 62
10 11 10 9 8 9 6 3 7 8 6 21 30 31 32 32 31 31 32 32 33 34 36 38 40 40 42 44 46 47 49 50 51 52 62 63 65 66 67 68 68 68 67 67 66 65 65 64 62
10 10 12 11 9 8 9 7 5 17 28 27 28 30 30 30 30 30 30 31 31 33 34 36 37 38 40 42 44 45 48 50 51 53 56 61 63 65 68 67 68 67 66 66 66 66 64 64 63
13 14 12 11 9 8 9 6 6 26 28 28 28 29 30 30 29 29 28 29 30 31 32 32 34 35 37 39 41 42 44 48 51 52 55 60 62 63 66 66 66 66 66 66 66 65 64 64 63
9 13 12 7 6 5 2 4 16 26 27 28 28 29 29 28 28 28 28 28 29 30 31 31 31 33 35 36 38 40 42 45 49 52 55 56 61 63 66 66 65 65 66 65 65 64 64 64 64
9 10 11 12 11 10 6 4 22 27 28 27 28 28 28 28 28 28 28 28 28 29 30 31 31 32 34 35 37 38 42 45 48 53 57 58 61 63 65 66 64 64 64 65 64 64 63 64 64
14 10 14 15 12 9 6 6 24 28 27 28 28 28 28 28 28 28 28 29 29 31 31 31 30 30 32 34 36 39 42 46 49 55 59 61 61 63 64 65 64 64 64 64 64 64 63 63 63
11 15 13 14 18 16 16 27 31 27 28 28 27 27 30 29 29 32 32 30 31 31 30 30 30 30 32 34 37 39 44 46 50 57 61 62 62 62 62 64 64 63 63 63 63 63 62 62 63
13 14 16 19 15 21 17 25 27 28 29 26 25 26 25 28 28 31 32 31 31 31 32 30 30 30 33 34 36 41 42 45 47 55 60 62 61 62 62 63 63 63 63 63 62 62 62 62 61

GFSSGP_sfc_dewp_120.txt.gz
Dewpoint
53 39 31 29 21 19 13 9 7 3 3 10 8 7 8 9 12 30 46 55 62 65 69 70 72 73 73 74 74 73 73 73 73 73 73 73 73 74 74 74 74 74 75 74 73 73 72 73 73
39 35 29 26 23 16 12 10 5 8 9 10 5 6 8 15 30 37 45 56 62 64 69 69 72 72 73 73 73 73 74 74 73 73 73 73 74 74 74 73 73 74 74 73 73 72 73 74 72
46 36 26 26 22 18 13 13 10 9 10 9 8 11 14 29 37 41 48 57 62 64 70 70 71 72 73 73 73 73 73 73 73 73 73 73 74 74 74 73 73 73 73 73 73 73 73 72 71
32 27 26 24 21 19 17 16 14 12 12 14 12 14 20 35 38 44 50 57 64 64 67 70 70 71 72 73 73 73 73 72 72 73 73 73 74 74 73 73 73 74 74 73 73 73 72 71 70
31 27 23 21 20 19 19 17 17 17 19 18 17 17 22 34 37 46 52 59 66 68 71 70 70 71 72 73 73 73 72 72 72 73 73 73 73 73 73 72 73 73 73 73 73 72 71 70 70
25 26 21 20 19 18 19 19 19 19 19 20 18 19 24 35 36 41 48 60 68 69 72 70 70 71 71 72 72 72 72 72 72 72 72 73 73 73 72 72 72 73 73 72 72 71 70 70 70
23 23 20 19 19 19 20 21 21 21 21 21 25 23 31 35 39 41 44 53 67 71 72 73 71 70 70 70 70 70 71 71 71 71 72 72 72 71 71 71 72 72 72 72 71 70 70 70 70
21 21 19 19 18 18 19 19 20 19 20 27 25 23 29 36 38 41 48 55 68 70 72 73 72 70 70 70 70 70 70 71 71 71 71 71 71 71 71 71 71 71 71 71 70 70 69 69 69
23 21 17 17 17 17 17 18 19 20 21 24 26 26 31 32 32 36 44 50 60 69 71 74 72 71 70 68 69 70 70 70 70 71 71 69 71 71 71 70 70 71 69 70 70 69 69 68 68
19 20 19 18 16 15 16 18 16 16 18 21 24 28 30 28 30 35 34 41 46 59 70 72 72 71 71 66 69 69 69 70 71 71 71 71 71 71 69 69 69 69 68 69 69 68 68 68 67
16 16 17 16 16 13 14 16 17 17 17 22 23 25 26 27 32 36 33 32 38 45 66 70 71 71 72 69 70 68 68 68 69 70 71 71 70 70 68 69 69 70 69 69 68 68 68 67 66
11 13 14 14 9 12 12 15 14 15 19 18 17 20 26 28 29 28 35 30 35 41 48 69 71 70 70 71 71 68 67 68 68 68 70 69 69 69 67 68 69 69 69 69 69 68 67 66 66
9 8 8 9 9 6 9 10 10 9 10 11 10 13 30 24 23 26 28 29 35 42 49 63 70 70 70 70 70 70 68 68 68 68 69 69 68 68 68 67 68 68 68 68 68 67 66 66 65
9 8 9 8 9 5 7 7 5 8 7 6 14 16 18 20 22 24 27 28 37 38 44 47 53 68 69 69 68 70 70 70 69 68 68 69 68 68 68 67 67 67 67 68 67 67 66 65 65
12 10 9 7 5 4 5 4 8 10 9 10 16 16 16 18 18 23 27 32 32 33 38 50 50 52 62 68 68 69 69 69 69 67 70 69 69 69 68 67 66 67 66 67 67 68 67 66 66
10 12 11 11 12 6 6 7 10 9 10 11 14 15 15 15 15 18 29 35 38 41 46 49 50 53 55 57 67 67 68 68 67 69 67 69 70 70 68 67 68 68 67 66 67 66 67 66 66
17 12 12 11 9 7 7 8 8 8 6 10 14 12 13 16 17 37 39 41 42 43 46 48 50 51 55 55 54 57 67 67 68 66 67 69 69 68 69 67 67 68 68 66 66 66 66 66 65
12 12 12 12 9 7 6 5 6 8 9 12 9 12 14 14 30 37 37 39 40 42 46 46 47 50 52 52 54 51 52 65 66 66 65 67 68 67 67 68 67 67 67 67 66 66 67 66 65
14 12 11 12 13 10 10 7 5 9 11 10 8 8 13 16 33 34 38 38 39 41 42 43 45 48 48 48 49 50 50 53 64 65 66 66 66 68 67 67 67 67 65 66 66 66 66 65 65
12 12 14 13 9 9 7 7 8 9 9 8 8 15 29 31 32 33 35 37 39 39 40 41 42 44 45 45 46 48 50 51 53 62 65 66 66 67 68 67 66 67 65 65 67 66 65 65 66
12 13 13 9 8 7 8 7 8 8 11 10 21 28 31 32 32 32 33 35 37 37 38 38 40 41 43 45 44 46 47 49 50 51 57 65 65 66 68 67 66 66 66 65 66 66 65 64 65
11 11 9 8 8 6 8 4 7 9 9 13 29 32 31 31 31 31 31 32 33 35 36 37 37 38 39 43 43 45 46 47 50 51 53 61 65 65 66 67 67 66 67 66 66 65 64 64 63
9 11 11 10 10 10 8 6 10 13 12 29 30 30 30 30 30 30 30 30 30 32 33 35 36 35 36 39 42 42 44 46 48 50 52 54 59 64 65 65 66 67 66 67 66 65 64 64 62
10 10 10 11 11 10 9 8 8 19 26 27 27 28 29 29 29 29 29 29 29 30 31 32 32 32 34 36 38 39 40 42 44 47 50 52 57 61 63 64 65 66 66 65 66 64 64 63 63
11 12 12 11 13 12 12 9 24 26 27 27 28 28 28 28 28 28 27 27 28 28 29 30 30 30 31 33 35 36 38 39 41 43 47 50 53 57 60 63 64 66 66 65 66 65 64 64 62
12 11 13 7 11 12 10 7 21 26 27 28 28 28 28 27 27 27 27 27 28 28 28 29 30 30 30 32 33 35 36 38 39 41 45 48 52 55 59 61 62 64 65 66 66 65 65 64 63
13 12 10 13 11 12 9 8 26 29 27 27 27 27 27 27 28 28 27 28 28 28 29 29 30 30 30 31 33 34 36 37 39 41 44 47 50 54 57 61 61 63 65 65 65 64 64 64 63
13 13 15 14 10 9 8 12 25 28 26 27 28 28 27 28 28 29 30 30 30 30 31 32 31 31 31 32 34 35 37 39 40 42 44 46 49 54 57 60 61 61 64 64 64 64 63 63 62
12 15 14 13 12 12 14 23 31 28 28 28 26 26 29 28 29 31 31 31 32 32 33 32 31 31 31 32 34 36 39 41 43 45 48 48 50 53 57 57 59 56 62 62 63 63 63 62 62
9 10 13 19 15 13 16 24 28 28 28 26 24 25 25 28 29 31 32 31 32 32 32 32 32 31 32 33 34 36 38 39 40 42 45 50 52 55 59 59 59 58 61 62 62 62 62 62 61

GFSSGP_sfc_dewp_123.txt.gz
Dewpoint
53 43 40 31 22 21 17 15 13 9 10 8 6 7 8 19 30 40 50 57 63 68 70 71 72 73 73 74 73 73 73 73 73 73 73 73 73 73 73 73 73 74 74 73 73 73 71 73 72
51 44 34 27 22 21 19 16 8 8 14 13 8 10 11 33 38 45 51 57 63 68 70 71 71 72 73 73 73 73 73 74 73 73 73 73 73 73 73 73 73 74 74 74 73 72 73 73 71
48 44 28 26 24 21 19 14 10 12 13 13 11 13 21 37 44 47 55 63 65 68 68 70 71 71 73 73 73 73 73 73 73 73 73 73 73 73 73 72 73 74 74 73 73 73 73 72 71
35 31 27 23 23 23 21 20 15 13 15 14 16 17 33 41 44 49 57 64 67 68 68 70 70 71 72 73 73 73 73 72 72 73 73 73 74 74 73 72 73 73 73 73 74 73 72 70 70
36 30 24 25 22 22 21 21 21 23 23 24 19 20 33 38 42 50 58 64 68 70 69 70 70 71 72 73 73 73 72 71 72 72 73 73 73 73 72 72 72 73 73 73 73 72 70 70 70
28 27 23 21 22 21 21 21 22 23 24 26 25 22 36 40 35 38 54 64 68 70 70 70 70 71 71 72 72 72 71 71 71 72 72 73 73 72 72 72 72 72 72 72 71 71 70 70 70
23 23 21 21 20 19 20 23 23 21 20 25 28 26 35 34 35 36 39 64 66 71 70 70 70 70 70 70 70 70 71 71 71 71 71 71 71 71 71 71 71 72 71 71 71 70 69 69 69
23 22 19 19 18 19 19 20 19 20 24 33 26 25 29 35 34 35 37 49 65 68 71 70 70 70 69 70 70 70 70 70 70 71 71 70 70 71 71 71 71 71 71 71 70 69 69 69 68
24 21 20 19 18 17 18 20 20 18 19 24 28 31 30 33 32 32 34 37 65 66 70 70 70 69 69 69 70 70 70 70 70 70 70 69 71 71 70 70 70 70 70 70 69 69 68 68 68
19 21 21 22 18 16 14 15 17 18 18 20 25 30 27 27 31 32 31 33 35 62 67 70 70 69 68 68 68 68 70 70 70 71 70 70 70 70 70 70 69 69 68 69 68 68 68 68 67
14 17 19 17 18 17 13 12 16 15 16 24 22 23 24 29 28 30 30 30 30 42 68 70 70 70 70 68 68 68 68 69 70 70 70 70 70 70 70 69 69 69 68 68 68 68 68 67 67
10 11 14 14 15 10 8 9 12 14 17 17 12 16 25 26 26 28 28 27 28 30 50 69 70 69 68 69 69 67 67 68 69 69 70 70 69 69 68 68 68 69 69 68 68 67 67 67 67
10 11 9 11 10 11 11 9 11 12 11 11 11 13 19 24 25 21 25 20 23 32 39 67 68 68 69 69 68 69 68 68 67 68 69 70 69 68 67 68 68 69 68 68 68 67 67 66 66
13 12 12 10 8 8 7 7 11 10 10 9 9 10 17 21 21 17 18 18 32 44 46 48 51 58 66 67 66 67 68 69 68 67 68 69 68 67 68 65 68 68 68 68 68 67 66 65 65
13 10 10 11 11 9 8 4 4 7 10 10 8 15 17 16 16 34 40 41 42 44 45 46 48 50 52 55 61 66 67 68 68 69 68 68 68 67 68 66 67 67 67 68 67 67 66 65 65
11 13 10 11 11 12 7 8 8 8 11 13 15 16 16 18 37 39 38 39 40 42 42 44 46 47 47 48 53 57 61 65 67 67 68 68 68 68 67 67 66 67 67 67 66 66 66 65 65
14 14 14 15 15 8 6 8 8 11 10 11 11 14 11 14 37 36 37 37 38 39 40 41 43 44 45 46 48 49 54 60 64 67 67 67 68 68 68 67 66 67 66 66 66 66 66 65 64
11 13 13 12 13 14 10 8 9 10 8 9 12 12 12 32 34 35 36 36 37 37 38 38 39 43 43 44 45 46 48 52 56 63 66 66 66 67 67 68 66 66 66 66 65 65 66 65 64
13 15 12 12 15 13 11 8 8 9 10 10 11 14 31 32 33 33 34 34 34 34 35 36 37 39 41 42 43 43 44 46 49 53 55 65 65 66 67 67 66 66 65 66 65 65 65 65 65
19 14 12 13 15 13 9 7 8 9 9 11 18 31 31 31 31 31 32 32 32 33 33 34 34 35 36 38 39 41 42 45 47 49 53 54 61 66 66 66 65 67 65 64 65 65 64 64 65
14 12 12 11 12 9 8 7 8 10 10 31 30 30 30 30 30 30 29 30 30 30 31 32 32 33 34 35 36 38 41 43 45 47 49 52 55 62 65 65 65 65 66 64 64 65 64 63 64
10 14 13 12 11 9 10 7 9 9 18 30 29 29 29 29 29 28 28 28 28 29 29 29 30 30 31 33 33 34 36 39 42 44 46 48 52 55 60 64 65 64 66 66 63 66 65 64 62
13 17 14 13 10 10 8 8 8 11 26 27 27 28 28 28 28 27 28 27 27 28 28 28 29 30 30 30 31 32 33 37 39 41 42 44 47 52 56 61 64 66 65 66 65 63 66 64 62
14 13 15 14 12 9 8 9 14 25 26 27 28 27 27 27 27 27 27 27 27 27 27 27 28 28 29 30 30 31 32 34 35 37 39 41 44 48 52 56 61 63 65 65 65 65 65 65 63
14 12 14 14 14 11 12 11 27 26 28 28 28 28 27 27 27 27 26 26 26 26 27 28 28 28 28 29 29 30 31 32 34 35 38 39 42 45 49 54 57 62 62 64 65 65 64 64 63
15 14 16 11 11 10 10 12 25 27 28 29 28 28 28 27 27 28 27 27 28 28 28 29 29 29 29 29 29 30 31 33 34 35 37 39 40 43 46 50 53 58 61 62 63 64 63 61 61
18 13 16 16 12 11 11 21 28 28 27 28 27 28 28 28 28 29 28 28 28 29 30 31 31 30 30 31 32 32 33 34 35 36 37 39 41 42 44 48 51 55 59 61 61 62 62 62 61
14 15 15 19 12 9 11 15 26 27 28 29 28 28 28 28 28 28 28 28 29 30 31 33 31 30 30 32 34 35 35 37 38 39 39 40 42 44 44 46 48 53 57 60 60 60 61 61 63
16 17 17 17 15 12 10 12 30 26 28 27 26 26 28 28 27 27 28 29 30 31 32 33 32 31 31 33 34 35 36 37 37 39 41 42 45 45 47 47 49 52 57 59 58 60 60 61 62
14 14 19 16 13 16 17 17 29 28 30 26 24 25 25 27 27 27 28 29 29 30 31 32 31 31 32 33 34 34 34 35 36 36 38 40 42 46 49 50 51 54 53 54 54 55 55 52 61

GFSSGP_sfc_dewp_126.txt.gz
Dewpoint
52 44 39 30 21 21 20 16 14 9 10 8 6 13 29 30 38 40 51 58 68 68 71 72 72 73 73 73 72 73 73 73 73 73 73 73 73 73 73 73 74 74 74 73 73 72 72 71 72
50 43 32 27 21 20 19 19 8 8 11 13 11 14 28 38 44 48 52 61 67 69 70 71 72 72 73 73 72 73 73 73 73 73 73 73 73 73 73 73 73 74 74 73 72 72 72 72 71
43 44 27 25 23 21 21 16 13 11 14 16 16 16 33 42 47 51 58 67 69 69 69 71 71 72 72 73 72 72 73 73 73 73 73 73 73 73 73 72 73 74 74 73 72 73 73 71 70
36 30 26 23 23 24 23 24 22 13 16 16 16 26 36 42 50 53 63 68 68 68 69 70 70 71 72 73 72 72 72 72 72 72 73 73 73 73 73 72 73 73 74 74 73 73 72 70 70
34 28 24 24 22 23 23 23 22 25 26 26 20 31 34 37 51 60 64 69 69 69 69 70 69 70 72 73 73 72 72 71 72 72 72 73 73 73 72 72 72 72 72 73 73 71 70 70 70
30 26 23 22 22 22 21 21 22 24 26 26 25 32 37 38 33 51 64 69 69 69 69 70 70 70 71 72 72 71 71 71 71 71 72 72 72 72 71 72 72 72 72 72 72 70 70 69 69
24 22 21 21 20 20 20 21 20 20 25 24 27 32 37 33 33 40 63 65 70 70 69 69 70 70 70 70 70 70 70 70 70 71 71 71 71 70 71 71 71 72 71 71 70 70 69 69 69
23 22 21 19 18 18 17 19 18 16 23 28 27 27 31 36 33 35 43 63 68 69 69 68 69 69 69 70 69 69 69 69 70 70 70 70 70 70 70 70 71 71 71 71 70 69 69 69 68
23 20 20 20 20 18 17 15 18 20 18 22 27 26 33 36 33 29 32 46 63 68 69 68 68 68 68 69 70 70 70 70 69 70 69 69 70 70 70 70 69 70 70 70 69 68 68 68 68
19 21 21 22 22 17 16 13 15 16 17 20 19 25 27 31 31 30 29 30 33 44 67 69 68 68 68 68 69 69 70 71 70 70 70 70 70 70 70 69 68 69 69 69 68 68 67 67 67
15 14 18 19 19 19 11 10 14 13 15 22 18 18 19 27 25 28 28 29 29 33 65 69 69 68 67 67 68 68 68 69 69 69 70 69 70 70 70 69 69 69 68 69 68 67 67 67 66
11 12 14 15 12 10 10 9 8 12 15 19 13 15 19 21 23 25 25 24 42 47 54 61 63 66 67 69 67 67 68 68 69 69 69 69 69 69 69 69 69 69 69 68 68 67 67 66 66
9 11 11 11 10 9 11 9 10 11 11 11 11 13 15 20 22 21 40 44 45 46 47 51 53 54 57 59 63 68 67 67 67 69 70 69 69 69 69 68 68 68 69 68 67 67 66 66 66
16 14 11 11 11 12 10 10 10 11 12 8 9 10 12 21 35 40 41 42 43 43 45 47 47 49 51 52 54 58 63 67 67 68 69 69 69 68 69 68 68 68 68 68 67 67 66 66 66
15 10 11 11 11 11 13 9 8 8 11 10 10 8 18 38 39 39 39 40 40 41 42 43 45 45 45 48 51 54 56 59 63 67 68 68 68 68 68 67 67 68 68 68 67 67 66 65 65
13 15 12 12 15 13 11 12 9 9 8 12 13 15 31 37 36 36 37 37 37 38 38 40 42 43 43 44 47 49 52 55 57 61 64 66 68 67 67 67 66 67 67 67 67 67 66 65 64
14 10 14 15 18 13 10 8 9 10 11 9 13 15 34 34 34 34 34 34 34 35 36 36 38 38 40 42 44 45 47 51 52 53 56 59 64 68 67 67 67 66 67 67 67 66 66 65 64
10 12 13 14 14 15 13 11 11 11 9 11 11 28 33 32 32 32 32 32 32 32 33 34 35 36 36 38 40 41 42 43 45 49 53 54 56 59 65 67 66 66 66 66 66 66 66 65 64
13 12 12 14 14 15 14 12 10 10 16 26 31 31 31 30 30 30 29 30 30 30 30 31 31 33 33 34 35 36 38 40 42 45 47 52 56 57 59 65 62 65 66 66 66 65 65 65 65
17 16 16 13 14 12 11 9 8 17 30 30 29 29 29 29 28 28 28 28 28 28 29 29 29 30 31 32 33 34 36 38 40 42 45 49 51 52 55 57 64 62 65 65 65 64 64 65 64
16 15 13 13 13 10 9 8 10 23 29 29 28 28 28 28 27 27 27 27 27 27 27 28 28 28 30 31 30 31 32 33 36 39 40 43 46 47 50 52 56 63 61 61 64 65 64 62 64
11 14 15 12 10 8 9 7 9 22 27 27 27 27 27 27 27 27 27 27 27 27 27 27 27 28 28 29 29 30 30 30 32 34 38 39 43 45 47 50 54 57 63 62 63 65 64 63 61
14 17 14 14 11 10 9 7 8 24 26 27 27 27 27 27 27 26 26 26 26 27 27 27 28 28 28 29 29 29 29 30 31 33 34 37 39 41 44 48 51 54 59 62 63 63 63 63 62
15 14 15 14 12 9 9 8 9 25 26 27 27 27 27 26 27 27 27 27 27 28 29 29 28 29 29 29 29 28 28 29 30 31 33 34 37 39 42 45 49 54 56 57 62 63 63 63 63
13 13 13 12 13 11 13 11 24 27 28 27 27 27 27 27 27 27 27 27 27 28 28 27 29 29 29 28 28 29 29 30 30 31 33 34 35 37 39 43 46 49 52 55 59 62 62 63 63
13 15 14 11 13 12 13 10 24 27 28 29 28 28 27 27 27 27 27 27 27 27 27 30 30 29 28 28 28 30 32 33 33 34 34 35 36 37 39 41 43 45 48 50 54 60 62 61 62
17 13 16 15 15 13 12 26 26 27 28 29 28 27 27 27 26 27 27 26 27 27 29 32 30 29 29 29 31 32 34 35 36 36 36 37 38 39 41 42 43 45 47 50 53 58 60 60 60
14 15 14 20 12 9 11 14 21 26 28 27 27 27 27 26 26 26 26 27 28 28 29 33 31 29 31 32 33 34 35 35 36 38 38 40 42 43 43 43 44 45 46 48 51 55 59 59 58
15 14 17 18 17 11 10 10 22 24 27 26 25 26 27 25 25 26 26 26 27 29 29 32 30 30 30 31 33 34 34 35 35 35 36 37 39 40 44 46 46 46 47 48 51 54 58 58 59
17 16 19 16 13 15 14 14 29 28 28 26 24 25 25 26 25 25 26 25 26 27 27 29 29 29 29 30 31 33 35 34 34 34 35 36 36 37 37 39 40 42 44 47 50 52 57 58 57